[[{"header":{"parameterUnit":"m.s-1","parameterCategory":1,"la1":30.6,"la2":29.2853,"lo1":-89.7004,"lo2":-87.6739,"dy":0.0162,"dx":0.0183,"nx":112,"ny":82,"refTime":"2024-03-14T06:00:00:Z","depth":0,"parameterNumber":2,"parameterNumberName":"U-component_of_WINDS"},"data":[0.0,0.0,0.0,0.0,0.0,0.0,0.0,0.0,0.0,0.0,0.0,0.0,0.0,0.0,0.0,0.0,0.0,0.0,0.0,0.0,0.0,0.0,0.0,0.0,0.0,0.0,0.0,0.0,0.0,0.0,0.0,0.0,0.0,0.0,0.0,0.0,0.0,0.0,0.0,0.0,0.0,0.0,0.0,0.0,0.0,0.0,0.0,0.0,0.0,0.0,0.0,0.0,0.0,0.0,0.0,0.0,0.0,0.0,0.0,0.0,0.0,0.0,0.0,0.0,0.0,0.0,0.0,0.0,0.0,0.0,0.0,0.0,0.0,0.0,0.0,0.0,0.0,0.0,0.0,0.0,0.0,0.0,0.0,0.0,0.0,0.0,0.0,0.0,0.0,0.0,0.0,-3.3447,-3.4723,-3.5549,-3.5639,-3.4556,-3.3511,-3.2676,0.0,0.0,0.0,0.0,0.0,0.0,0.0,0.0,0.0,0.0,0.0,0.0,0.0,0.0,0.0,0.0,0.0,0.0,0.0,0.0,0.0,0.0,0.0,0.0,0.0,0.0,0.0,0.0,0.0,0.0,0.0,0.0,0.0,0.0,0.0,0.0,0.0,0.0,0.0,0.0,0.0,0.0,0.0,0.0,0.0,0.0,0.0,0.0,0.0,0.0,0.0,0.0,0.0,0.0,0.0,0.0,0.0,0.0,0.0,0.0,0.0,0.0,0.0,0.0,0.0,0.0,0.0,0.0,0.0,0.0,0.0,0.0,0.0,0.0,0.0,0.0,0.0,0.0,0.0,0.0,0.0,0.0,0.0,0.0,0.0,0.0,0.0,0.0,0.0,0.0,0.0,0.0,0.0,0.0,0.0,0.0,0.0,0.0,0.0,0.0,0.0,0.0,0.0,0.0,-3.3655,-3.499,-3.5342,-3.5729,-3.6297,-3.3075,-3.1627,-3.3091,0.0,0.0,0.0,0.0,0.0,0.0,0.0,0.0,0.0,0.0,0.0,0.0,0.0,0.0,0.0,0.0,0.0,0.0,0.0,0.0,0.0,0.0,0.0,0.0,0.0,0.0,0.0,0.0,0.0,0.0,0.0,0.0,0.0,0.0,0.0,0.0,0.0,0.0,0.0,0.0,0.0,0.0,0.0,0.0,0.0,0.0,0.0,0.0,0.0,0.0,0.0,0.0,0.0,0.0,0.0,0.0,0.0,0.0,0.0,0.0,0.0,0.0,0.0,0.0,0.0,0.0,0.0,0.0,0.0,0.0,0.0,0.0,0.0,0.0,0.0,0.0,0.0,0.0,0.0,0.0,0.0,0.0,0.0,0.0,0.0,0.0,0.0,0.0,0.0,0.0,0.0,0.0,0.0,0.0,0.0,0.0,0.0,0.0,0.0,0.0,0.0,0.0,0.0,-3.3646,-3.3787,-3.5312,-3.5519,-3.5489,-3.54,-3.2702,-3.1634,-3.3149,-3.1512,0.0,0.0,0.0,0.0,0.0,0.0,0.0,0.0,0.0,0.0,0.0,0.0,0.0,0.0,0.0,0.0,0.0,0.0,0.0,0.0,0.0,0.0,0.0,0.0,0.0,0.0,0.0,0.0,0.0,0.0,0.0,0.0,0.0,0.0,0.0,0.0,0.0,0.0,0.0,0.0,0.0,0.0,0.0,0.0,0.0,0.0,0.0,0.0,0.0,0.0,0.0,0.0,0.0,0.0,0.0,0.0,0.0,0.0,0.0,0.0,0.0,0.0,0.0,0.0,0.0,0.0,0.0,0.0,0.0,0.0,0.0,0.0,0.0,0.0,0.0,0.0,0.0,0.0,0.0,0.0,0.0,0.0,0.0,0.0,0.0,0.0,0.0,0.0,0.0,0.0,0.0,0.0,0.0,0.0,0.0,0.0,0.0,0.0,0.0,0.0,0.0,0.0,-3.3878,-3.3728,-3.5342,-3.537,-3.504,-3.4563,-3.2766,-3.2139,-3.3211,-3.1334,0.0,0.0,0.0,0.0,0.0,0.0,0.0,0.0,0.0,0.0,0.0,0.0,0.0,0.0,0.0,0.0,0.0,0.0,0.0,0.0,0.0,0.0,0.0,0.0,0.0,0.0,0.0,0.0,0.0,0.0,0.0,0.0,0.0,0.0,0.0,0.0,0.0,0.0,0.0,0.0,0.0,0.0,0.0,0.0,0.0,0.0,0.0,0.0,0.0,0.0,0.0,0.0,0.0,0.0,0.0,0.0,0.0,0.0,0.0,0.0,0.0,0.0,0.0,0.0,0.0,0.0,0.0,0.0,0.0,0.0,0.0,0.0,0.0,0.0,0.0,0.0,0.0,0.0,0.0,0.0,0.0,0.0,0.0,0.0,0.0,0.0,0.0,0.0,0.0,0.0,0.0,0.0,0.0,0.0,0.0,0.0,0.0,0.0,0.0,0.0,0.0,0.0,-3.3668,-3.3994,-3.534,-3.4921,-3.4563,-3.4503,-3.3063,-3.2556,-3.3424,-3.2556,0.0,0.0,0.0,0.0,0.0,0.0,0.0,0.0,0.0,0.0,0.0,0.0,0.0,0.0,0.0,0.0,0.0,0.0,0.0,0.0,0.0,0.0,0.0,0.0,0.0,0.0,0.0,0.0,0.0,0.0,0.0,0.0,0.0,0.0,0.0,0.0,0.0,0.0,0.0,0.0,0.0,0.0,0.0,0.0,0.0,0.0,0.0,0.0,0.0,0.0,0.0,0.0,0.0,0.0,0.0,0.0,0.0,0.0,0.0,0.0,0.0,0.0,0.0,0.0,0.0,0.0,0.0,0.0,0.0,0.0,0.0,0.0,0.0,0.0,0.0,0.0,0.0,0.0,0.0,0.0,0.0,0.0,0.0,0.0,0.0,0.0,0.0,0.0,0.0,0.0,0.0,0.0,0.0,0.0,0.0,0.0,0.0,0.0,0.0,0.0,0.0,0.0,-3.3819,-3.421,0.0,-3.4891,-3.4174,-3.3335,-3.1601,-3.1127,-3.2494,0.0,0.0,0.0,0.0,0.0,0.0,0.0,0.0,0.0,0.0,0.0,0.0,0.0,0.0,0.0,0.0,0.0,0.0,0.0,0.0,0.0,0.0,0.0,0.0,0.0,0.0,0.0,0.0,0.0,0.0,0.0,0.0,0.0,0.0,0.0,0.0,0.0,0.0,0.0,0.0,0.0,0.0,0.0,0.0,0.0,0.0,0.0,0.0,0.0,0.0,0.0,0.0,0.0,0.0,0.0,0.0,0.0,0.0,0.0,0.0,0.0,0.0,0.0,0.0,0.0,0.0,0.0,0.0,0.0,0.0,0.0,0.0,0.0,0.0,0.0,0.0,0.0,0.0,0.0,0.0,0.0,0.0,0.0,0.0,0.0,0.0,0.0,0.0,0.0,0.0,0.0,0.0,0.0,0.0,0.0,0.0,0.0,0.0,0.0,0.0,0.0,0.0,-3.3484,-3.3517,-3.3909,0.0,-3.4382,-3.3484,-3.2587,-3.0854,-3.0562,-3.2284,0.0,0.0,0.0,0.0,0.0,0.0,0.0,0.0,0.0,0.0,0.0,0.0,0.0,0.0,0.0,0.0,0.0,0.0,0.0,0.0,0.0,0.0,0.0,0.0,0.0,0.0,0.0,0.0,0.0,0.0,0.0,0.0,0.0,0.0,0.0,0.0,0.0,0.0,0.0,0.0,0.0,0.0,0.0,0.0,0.0,0.0,0.0,0.0,0.0,0.0,0.0,0.0,0.0,0.0,0.0,0.0,0.0,0.0,0.0,0.0,0.0,0.0,0.0,0.0,0.0,0.0,0.0,0.0,0.0,0.0,0.0,0.0,0.0,0.0,0.0,0.0,0.0,0.0,0.0,0.0,0.0,0.0,0.0,0.0,0.0,0.0,0.0,0.0,0.0,0.0,0.0,0.0,0.0,0.0,0.0,0.0,0.0,0.0,0.0,0.0,0.0,0.0,-3.2907,-3.2675,-3.3006,-3.4354,-3.3275,-3.2497,-3.2497,-3.1127,-3.1099,0.0,0.0,0.0,0.0,0.0,0.0,0.0,0.0,0.0,0.0,0.0,0.0,0.0,0.0,0.0,0.0,0.0,0.0,0.0,0.0,0.0,0.0,0.0,0.0,0.0,0.0,0.0,0.0,0.0,0.0,0.0,0.0,0.0,0.0,0.0,0.0,0.0,0.0,0.0,0.0,0.0,0.0,0.0,0.0,0.0,0.0,0.0,0.0,0.0,0.0,0.0,0.0,0.0,0.0,0.0,0.0,0.0,0.0,0.0,0.0,0.0,0.0,0.0,0.0,0.0,0.0,0.0,0.0,0.0,0.0,0.0,0.0,0.0,0.0,0.0,0.0,0.0,0.0,0.0,0.0,0.0,0.0,0.0,0.0,0.0,0.0,0.0,0.0,0.0,0.0,0.0,0.0,0.0,0.0,0.0,0.0,0.0,0.0,0.0,0.0,0.0,0.0,0.0,-3.3336,-3.2496,-3.2288,-3.3634,-3.2617,-3.16,-3.115,-2.9448,-2.952,-3.2195,0.0,0.0,0.0,0.0,0.0,0.0,0.0,0.0,0.0,0.0,0.0,0.0,0.0,0.0,0.0,0.0,0.0,0.0,0.0,0.0,0.0,0.0,0.0,0.0,0.0,0.0,0.0,0.0,0.0,0.0,0.0,0.0,0.0,0.0,0.0,0.0,0.0,0.0,0.0,0.0,0.0,0.0,0.0,0.0,0.0,0.0,0.0,0.0,0.0,0.0,0.0,0.0,0.0,0.0,0.0,0.0,0.0,0.0,0.0,0.0,0.0,0.0,0.0,0.0,0.0,0.0,0.0,0.0,0.0,0.0,0.0,0.0,0.0,0.0,0.0,0.0,0.0,0.0,0.0,0.0,0.0,0.0,0.0,0.0,0.0,0.0,0.0,0.0,0.0,0.0,0.0,0.0,0.0,0.0,0.0,0.0,0.0,0.0,0.0,0.0,0.0,0.0,-3.2764,-3.1866,-3.1394,-3.2166,-3.1309,-3.0394,-2.9715,-2.8122,-2.824,-3.0777,0.0,0.0,0.0,0.0,0.0,0.0,0.0,0.0,0.0,0.0,0.0,0.0,0.0,0.0,0.0,0.0,0.0,0.0,0.0,0.0,0.0,0.0,0.0,0.0,0.0,0.0,0.0,0.0,0.0,0.0,0.0,0.0,0.0,0.0,0.0,0.0,0.0,0.0,0.0,0.0,0.0,0.0,0.0,0.0,0.0,0.0,0.0,0.0,0.0,0.0,0.0,0.0,0.0,0.0,0.0,0.0,0.0,0.0,0.0,0.0,0.0,0.0,0.0,0.0,0.0,0.0,0.0,0.0,0.0,0.0,0.0,0.0,0.0,0.0,0.0,0.0,0.0,0.0,0.0,0.0,0.0,0.0,0.0,0.0,0.0,0.0,0.0,0.0,0.0,0.0,0.0,0.0,0.0,0.0,0.0,0.0,0.0,0.0,0.0,0.0,0.0,0.0,-3.1892,-3.1086,-3.0417,-3.0335,-2.9695,-2.9002,-2.8282,-2.7105,-2.718,-2.9042,0.0,0.0,0.0,0.0,0.0,0.0,0.0,0.0,0.0,0.0,0.0,0.0,0.0,0.0,0.0,0.0,0.0,0.0,0.0,0.0,0.0,0.0,0.0,0.0,0.0,0.0,0.0,0.0,0.0,0.0,0.0,0.0,0.0,0.0,0.0,0.0,0.0,0.0,0.0,0.0,0.0,0.0,0.0,0.0,0.0,0.0,0.0,0.0,0.0,0.0,0.0,0.0,0.0,0.0,0.0,0.0,0.0,0.0,0.0,0.0,-3.5545,0.0,0.0,0.0,0.0,0.0,0.0,0.0,0.0,0.0,0.0,0.0,0.0,0.0,0.0,0.0,0.0,0.0,0.0,0.0,0.0,0.0,0.0,0.0,0.0,0.0,0.0,0.0,0.0,0.0,0.0,0.0,0.0,0.0,0.0,0.0,0.0,0.0,0.0,0.0,0.0,0.0,-3.3665,-3.1508,-2.9735,-2.9639,-2.9002,-2.8111,-2.6946,-2.6106,-2.6413,-2.8176,-2.7589,0.0,0.0,0.0,0.0,0.0,0.0,0.0,0.0,0.0,0.0,0.0,0.0,0.0,0.0,0.0,0.0,0.0,0.0,0.0,0.0,0.0,0.0,0.0,0.0,0.0,0.0,0.0,0.0,0.0,0.0,0.0,0.0,0.0,0.0,0.0,0.0,0.0,0.0,0.0,0.0,0.0,0.0,0.0,0.0,0.0,0.0,0.0,0.0,0.0,0.0,0.0,0.0,0.0,0.0,0.0,0.0,0.0,0.0,0.0,0.0,-3.6817,0.0,0.0,0.0,0.0,0.0,0.0,0.0,0.0,0.0,0.0,0.0,0.0,0.0,0.0,0.0,0.0,0.0,0.0,0.0,0.0,0.0,0.0,0.0,0.0,0.0,0.0,0.0,0.0,0.0,0.0,0.0,0.0,0.0,0.0,0.0,0.0,0.0,0.0,0.0,0.0,-3.3274,-3.121,-2.9271,-2.8482,-2.8081,-2.7227,-2.5537,-2.507,-2.5265,-2.6209,-2.676,0.0,0.0,0.0,0.0,0.0,0.0,0.0,0.0,0.0,0.0,0.0,0.0,0.0,0.0,0.0,0.0,0.0,0.0,0.0,0.0,0.0,0.0,0.0,0.0,0.0,0.0,0.0,0.0,0.0,0.0,0.0,0.0,0.0,0.0,0.0,0.0,0.0,0.0,0.0,0.0,0.0,0.0,0.0,0.0,0.0,0.0,0.0,0.0,0.0,0.0,0.0,0.0,0.0,-4.1272,-4.1683,-4.2364,-4.2101,-4.2125,-4.2249,-3.9877,-3.8464,-3.781,0.0,0.0,0.0,0.0,0.0,0.0,0.0,0.0,0.0,0.0,0.0,0.0,0.0,0.0,0.0,0.0,0.0,0.0,0.0,0.0,0.0,0.0,0.0,0.0,0.0,-3.4988,-3.4385,0.0,0.0,0.0,0.0,0.0,0.0,0.0,0.0,0.0,0.0,0.0,0.0,-3.2467,-3.0761,-2.8923,-2.7651,-2.7421,-2.6514,-2.4471,-2.4423,-2.4466,-2.4368,-2.6262,-2.7035,0.0,0.0,0.0,0.0,0.0,0.0,0.0,0.0,0.0,0.0,0.0,0.0,0.0,0.0,0.0,0.0,0.0,0.0,0.0,0.0,0.0,0.0,0.0,0.0,0.0,0.0,0.0,0.0,0.0,0.0,0.0,0.0,-3.7,-3.708,0.0,0.0,0.0,0.0,0.0,0.0,0.0,0.0,0.0,0.0,0.0,0.0,0.0,-4.095,-4.2608,-4.3729,-4.3639,-4.2309,-4.3623,-4.3278,-4.1573,-4.1535,-4.1798,-4.2385,-4.2002,0.0,-4.0269,-3.847,0.0,0.0,0.0,0.0,0.0,0.0,0.0,0.0,0.0,0.0,0.0,0.0,0.0,0.0,0.0,0.0,0.0,0.0,0.0,0.0,0.0,0.0,-3.525,-3.4743,-3.4563,-3.4474,0.0,-3.4355,-3.4114,-3.3543,-3.3454,0.0,0.0,0.0,0.0,0.0,0.0,0.0,-3.3185,-3.0642,-2.8613,-2.8281,-2.7794,-2.661,-2.4476,-2.4908,-2.4966,-2.4346,-2.4722,-2.5356,-2.6325,-2.706,0.0,0.0,0.0,0.0,0.0,0.0,0.0,0.0,0.0,0.0,0.0,0.0,0.0,0.0,0.0,0.0,0.0,0.0,0.0,0.0,0.0,0.0,0.0,0.0,0.0,0.0,0.0,0.0,0.0,-3.8167,-3.9229,-3.8715,-3.9251,-3.9564,0.0,0.0,0.0,0.0,0.0,0.0,0.0,0.0,0.0,-4.2335,-4.1943,-4.2406,-4.3861,-4.4442,-4.4904,-4.5213,-4.586,-4.609,-4.5855,-4.5424,-4.5424,-4.5705,-4.5304,-4.4458,-4.3205,-4.0828,-3.9485,-3.8806,0.0,0.0,0.0,0.0,-3.8486,-3.8891,-3.9157,-3.8613,0.0,0.0,0.0,0.0,0.0,0.0,0.0,0.0,0.0,0.0,0.0,0.0,0.0,-3.5188,-3.534,-3.5432,-3.4683,-3.4771,-3.4709,0.0,-3.3629,-3.4046,-3.4545,0.0,0.0,0.0,0.0,0.0,-3.2796,-3.1031,-2.9498,-2.903,-2.8395,-2.7314,-2.5622,-2.5437,-2.5273,-2.4936,-2.497,-2.5246,-2.5799,-2.6749,-2.7964,0.0,0.0,0.0,0.0,0.0,0.0,0.0,0.0,0.0,0.0,0.0,0.0,0.0,0.0,0.0,0.0,0.0,0.0,0.0,0.0,0.0,0.0,0.0,0.0,0.0,0.0,0.0,0.0,-3.9935,-4.1032,-3.9959,-4.1151,-4.1686,0.0,0.0,0.0,0.0,0.0,0.0,-4.2385,-4.2464,-4.3179,-4.4686,-4.4137,-4.4348,-4.5574,-4.5574,-4.6322,-4.7818,-4.7818,-4.8327,-4.9299,-4.8745,-4.8446,-4.8267,-4.7758,-4.689,-4.5603,-4.297,-4.128,-4.0347,-3.9691,-3.938,-3.9313,-3.9546,-3.9667,-3.9859,-4.0323,-4.0034,-3.9349,-3.9384,0.0,-3.7214,-3.6406,0.0,0.0,0.0,0.0,-3.5921,-3.5726,-3.5974,-3.619,-3.5845,-3.6118,-3.6207,-3.5252,-3.525,-3.5068,0.0,-3.3687,-3.4074,-3.4188,0.0,0.0,0.0,0.0,-3.1573,-3.2168,-3.1091,-3.0117,-2.9725,-2.8939,-2.7964,-2.6778,-2.6244,-2.5877,-2.5687,-2.5878,-2.5877,-2.5687,-2.6891,-2.7938,-2.8767,0.0,0.0,0.0,0.0,0.0,0.0,0.0,0.0,0.0,0.0,0.0,0.0,0.0,0.0,0.0,0.0,0.0,0.0,0.0,0.0,0.0,0.0,0.0,0.0,0.0,0.0,0.0,0.0,0.0,-3.9897,-4.3103,0.0,0.0,0.0,0.0,-4.1133,-4.2638,-4.3457,-4.306,-4.4242,-4.5304,-4.6184,-4.6741,-4.7698,-4.906,-4.906,-4.912,-4.9209,-4.9209,-4.9239,-4.9299,-4.9269,-4.891,-4.8297,-4.8237,-4.7848,-4.701,-4.4306,-4.2821,-4.2239,-4.1731,-4.1783,-4.2119,-4.1701,-4.1423,-4.1093,-3.9925,-3.902,-3.8786,-4.0643,-4.0337,-3.902,-3.7704,-3.6794,0.0,0.0,-3.662,-3.6327,-3.6887,-3.6756,-3.6477,-3.6447,-3.6477,-3.6477,-3.6387,-3.5938,-3.51,0.0,-3.3514,-3.3692,-3.4129,0.0,-3.3453,-3.3299,-3.2229,-3.1482,-3.154,-3.0432,-2.9864,-3.0376,-2.9331,-2.829,-2.7501,-2.7453,-2.7203,-2.6469,-2.71,-2.7178,-2.6469,-2.7803,-2.8505,-2.8424,-3.0689,0.0,0.0,0.0,0.0,0.0,0.0,0.0,0.0,0.0,0.0,0.0,0.0,0.0,0.0,0.0,0.0,0.0,0.0,0.0,0.0,0.0,0.0,0.0,0.0,0.0,0.0,0.0,0.0,-4.4803,-4.6854,0.0,-4.5604,-4.5634,-4.5181,-4.3747,-4.5257,-4.6272,-4.6448,-4.7658,-4.8713,-4.9434,-4.9703,-5.0062,-5.0511,-5.0511,-5.0511,-5.0511,-5.0511,-5.0301,-4.9883,-4.9464,-4.894,-4.8267,-4.7848,-4.7519,-4.7249,-4.6292,-4.5244,-4.4237,-4.3618,-4.3189,-4.3,-4.3289,-4.3309,-4.321,-4.2731,-4.2132,-4.1324,-3.9918,-3.914,-3.8512,-3.7195,-3.6892,-3.7033,-3.7242,-3.6854,-3.6436,-3.6675,-3.629,-3.5848,-3.5848,-3.6178,-3.6357,-3.5938,-3.5998,-3.5878,-3.4951,-3.4442,-3.4203,-3.4379,-3.3543,-3.2975,-3.3333,-3.2318,-3.1511,-3.1511,-3.1092,-3.0913,-3.1122,-3.0372,-2.9545,-2.8912,-2.8476,-2.7935,-2.7258,-2.7458,-2.7484,-2.7229,-2.8088,-2.88,-2.9151,-3.0388,-3.1574,0.0,0.0,0.0,0.0,0.0,0.0,0.0,0.0,0.0,0.0,0.0,0.0,0.0,0.0,0.0,0.0,0.0,0.0,0.0,0.0,0.0,0.0,0.0,0.0,0.0,0.0,-4.7041,-4.7696,-4.9726,-5.0342,-4.8386,-4.8392,-4.7963,-4.6629,-4.8098,-4.9152,-4.9269,-5.0511,-5.1229,-5.1229,-5.1439,-5.1439,-5.1229,-5.1229,-5.1229,-5.1229,-5.0943,-5.0614,-5.0166,-4.9583,-4.894,-4.8267,-4.7818,-4.7519,-4.7309,-4.7309,-4.677,-4.5933,-4.5484,-4.4874,-4.4336,-4.4556,-4.4496,-4.4287,-4.4047,-4.3539,-4.2611,-4.0187,-3.911,-3.8542,-3.7464,-3.7105,-3.7135,-3.7345,-3.6806,-3.6207,-3.6417,-3.5998,-3.5519,-3.5519,-3.5848,-3.6028,-3.5609,-3.5848,-3.6028,-3.5579,-3.513,-3.4859,-3.4939,-3.4433,-3.4224,-3.4718,-3.4127,-3.3684,-3.3921,-3.3032,-3.2497,-3.2675,-3.1392,-3.0342,-2.9924,-2.9965,-2.9431,-2.8008,-2.8624,-2.8595,-2.7645,-2.8952,-2.9826,-3.0099,-3.1364,-3.2307,-3.282,0.0,0.0,0.0,0.0,0.0,0.0,0.0,0.0,0.0,0.0,0.0,0.0,0.0,0.0,0.0,0.0,0.0,0.0,0.0,0.0,0.0,0.0,0.0,-4.2827,-4.7002,-4.9525,-4.8339,-5.1655,-5.2689,-4.9192,-5.0653,-5.1185,-4.9524,-5.1169,-5.1977,-5.1349,-5.2516,-5.2606,-5.1319,-5.1887,-5.1887,-5.1229,-5.1199,-5.1199,-5.1169,-5.0465,-5.0136,-5.0106,-4.9523,-4.891,-4.8267,-4.8267,-4.7908,-4.7309,-4.7309,-4.7309,-4.7309,-4.7279,-4.689,-4.619,-4.5544,-4.4885,-4.4227,-4.3559,-4.294,-4.2321,-4.1632,-4.0516,-3.9349,-3.8601,-3.7524,-3.6656,-3.7255,-3.6507,-3.5669,-3.6327,-3.5998,-3.5519,-3.5519,-3.5519,-3.5519,-3.5519,-3.5519,-3.5519,-3.5519,-3.5519,-3.5568,-3.576,-3.6483,-3.7068,-3.7259,-3.7461,0.0,-3.8451,-3.5946,-3.4392,-3.507,-3.2407,-3.0612,-3.0612,-3.1929,-3.1574,-2.882,-3.0571,-3.0483,-2.7769,-3.0333,-3.1563,-3.1039,-3.362,-3.4148,-3.245,0.0,0.0,0.0,0.0,0.0,0.0,0.0,0.0,0.0,0.0,0.0,0.0,0.0,0.0,0.0,0.0,0.0,0.0,0.0,0.0,0.0,0.0,-4.5909,-4.6324,-4.9246,-5.2101,-5.411,-5.6295,-5.6774,-5.4688,-5.4971,-5.442,-5.2287,-5.3054,-5.3593,-5.3414,-5.3713,-5.3533,-5.2665,-5.2366,-5.1887,-5.1229,-5.0704,-5.0465,-5.0465,-4.9853,-4.9284,-4.8805,-4.8626,-4.8207,-4.7578,-4.7578,-4.7489,-4.7309,-4.7309,-4.7309,-4.7249,-4.677,-4.6429,-4.619,-4.5544,-4.4885,-4.4287,-4.4107,-4.3629,-4.288,-4.1743,-4.1145,-4.0546,-3.8901,-3.8153,-3.7793,-3.7494,-3.6836,-3.6267,-3.6447,-3.5998,-3.5519,-3.5519,-3.5519,-3.5519,-3.5519,-3.5519,-3.5519,-3.5519,-3.5519,-3.5517,-3.5565,-3.5359,-3.521,-3.5291,-3.4518,0.0,-3.4847,-3.3779,-3.3718,-3.5637,-3.3958,-3.2796,-3.3091,-3.2347,-3.1127,-2.9415,-2.9426,-2.9339,-2.9082,-2.9337,-2.9601,-2.9778,-3.1471,-3.2096,0.0,0.0,0.0,0.0,0.0,0.0,0.0,0.0,0.0,0.0,0.0,0.0,0.0,0.0,0.0,0.0,0.0,0.0,0.0,0.0,0.0,0.0,-4.6622,-4.9481,-5.129,-5.291,-5.469,-5.6713,-5.8284,-5.8551,-5.6969,-5.7255,-5.6612,-5.4209,-5.4612,-5.4843,-5.4522,-5.4067,-5.3567,-5.3064,-5.2502,-5.1887,-5.1229,-5.0524,-5.0196,-5.0196,-4.9284,-4.87,-4.8267,-4.7997,-4.7668,0.0,-4.7309,-4.7309,-4.7309,-4.7309,-4.713,0.0,0.0,0.0,0.0,0.0,-4.4227,-4.3898,-4.3898,-4.3479,-4.2761,-4.1713,-4.1205,-4.0636,-3.8901,-3.8392,-3.8212,-3.7285,-3.6776,-3.6417,-3.6148,-3.5789,-3.5519,-3.5519,-3.5519,-3.5519,-3.5519,-3.5519,-3.5519,-3.5519,0.0,0.0,-3.5519,-3.5783,-3.6131,-3.6492,-3.5963,-3.5759,-3.6446,-3.5056,-3.4669,-3.6319,-3.4465,-3.3184,-3.3419,-3.3059,0.0,0.0,0.0,-3.0833,-3.0922,-3.0394,0.0,0.0,0.0,-3.2288,-3.1522,0.0,0.0,0.0,-3.0519,-3.053,0.0,0.0,0.0,0.0,0.0,0.0,0.0,0.0,0.0,0.0,0.0,0.0,0.0,0.0,0.0,0.0,-4.9525,-5.2606,-5.629,-5.7103,-5.7379,-5.7622,-5.897,-5.9196,-5.7558,-5.836,-5.8039,-5.5769,-5.594,-5.5829,-5.527,0.0,0.0,0.0,0.0,-5.194,-5.1229,-5.0435,-5.0076,-5.0076,-4.8805,-4.8177,-4.8147,-4.7578,-4.7309,-4.7309,-4.7309,-4.7309,-4.7309,-4.7309,-4.686,-4.6202,-4.607,-4.5663,-4.4915,-4.3738,-4.329,-4.329,-4.329,0.0,0.0,-4.1632,-4.0935,-4.0127,-3.8721,-3.8332,-3.8123,-3.6836,-3.6537,-3.6447,-3.5878,-3.5729,-3.5699,-3.5639,-3.5609,-3.5579,-3.5519,-3.5519,-3.5519,-3.5519,-3.5519,-3.5519,-3.5519,-3.6756,-3.8056,-3.8839,-3.9068,-3.9386,-4.0035,-3.7671,-3.6264,-3.7089,0.0,0.0,-3.2885,-3.394,-3.3463,-3.0883,-3.264,-3.3424,-3.266,-3.2402,-3.3075,-3.4808,-3.4408,-3.3398,-3.1811,-3.1211,-3.0508,-2.9717,-3.0802,-3.0904,0.0,0.0,0.0,0.0,0.0,0.0,0.0,0.0,0.0,0.0,0.0,0.0,0.0,0.0,0.0,-4.9327,-5.2605,-5.5241,-5.663,-5.8896,-6.0444,-6.0521,-6.129,-6.1346,-6.0043,-6.0085,-5.9653,-5.8223,-5.7309,-5.6887,-5.7153,-5.5532,0.0,-5.3692,-5.311,-5.2276,-5.1229,-5.0032,-4.9464,-4.9434,0.0,0.0,-4.7489,-4.7369,-4.7309,-4.7309,-4.7309,-4.7309,-4.7309,-4.7309,-4.6591,-4.5454,-4.4915,-4.4287,-4.3648,-4.3379,-4.329,-4.329,-4.329,-4.291,-4.2291,-4.1632,-4.0935,-4.0038,-3.8153,-3.7973,0.0,-3.6836,-3.6836,-3.7195,-3.7075,-3.7045,-3.6926,-3.6417,-3.6297,-3.6148,-3.5609,-3.5519,-3.5519,-3.5519,-3.5519,-3.5519,-3.5519,-3.5786,-3.6048,-3.625,-3.5836,-3.5747,-3.6432,-3.5511,-3.5598,-3.7658,-3.6104,-3.5034,-3.5377,-3.4371,-3.3273,-3.2168,-3.3004,-3.3034,-3.1812,-3.2704,-3.3105,-3.2815,-3.1948,-3.1241,-3.0715,-2.9354,-2.8824,-2.9076,-2.8884,-2.8929,0.0,0.0,0.0,0.0,0.0,0.0,0.0,0.0,0.0,0.0,0.0,-4.1741,-4.3352,0.0,-4.9333,-5.1792,-5.4794,-5.7205,-5.8287,-5.9438,-6.0283,-6.0655,-6.1704,-6.1951,-6.0745,-6.082,-6.0183,-5.8357,-5.7948,-5.7655,-5.7459,-5.6046,-5.5233,-5.5059,-5.3671,-5.262,-5.2063,-5.0201,-4.9299,-4.9299,-4.7938,-4.7309,-4.7309,-4.7309,-4.7309,-4.7309,-4.7309,-4.7309,-4.7249,-4.6591,-4.5903,-4.5185,-4.4197,-4.3589,-4.329,-4.329,-4.329,-4.329,-4.329,-4.291,-4.2291,-4.1632,-4.0935,-4.0098,-3.8422,-3.8362,-3.8631,-3.7315,-3.7404,-3.7823,-3.7494,-3.7404,-3.7315,-3.7015,-3.6956,-3.6776,-3.6148,-3.5998,-3.5998,-3.5998,-3.5729,-3.5609,-3.5938,-3.5729,-3.5519,-3.5519,-3.522,-3.513,-3.5459,-3.522,-3.5457,-3.6671,-3.5723,-3.5098,-3.5267,-3.42,-3.3365,-3.3036,-3.3305,-3.3215,-3.2527,-3.3155,-3.33,-3.2866,-3.2262,-3.1876,-3.1737,-3.0824,-3.0491,-3.0745,-3.0491,-2.9684,0.0,0.0,0.0,0.0,0.0,0.0,0.0,0.0,-4.0798,-4.0784,-4.2182,-4.4096,-4.618,-4.9222,-5.2095,-5.4231,-5.6583,-5.8524,-5.9708,-5.9505,-5.9336,-5.9641,-6.1163,-6.1761,-6.0605,-6.0991,-6.0491,-5.8539,-5.8436,-5.8228,-5.7787,-5.6759,-5.6204,-5.6198,-5.4391,-5.3246,-5.29,-5.0516,-4.9389,-4.9583,-4.7995,-4.7495,-4.7892,-4.7495,-4.7409,-4.7581,-4.7366,-4.7309,-4.7219,-4.5992,-4.5424,-4.5185,-4.3988,-4.3409,-4.329,-4.329,-4.329,-4.329,-4.329,-4.2821,-4.2111,-4.1602,-4.0846,-3.9978,-3.8751,-3.8871,-3.917,-3.7943,-3.8093,-3.8482,-3.7943,-3.7793,-3.7764,-3.7644,-3.7584,-3.7434,-3.6806,-3.6656,-3.6626,-3.6507,-3.6058,-3.5818,-3.6237,-3.5848,-3.5519,-3.5519,-3.5519,-3.5519,-3.5519,-3.5519,-3.5519,-3.5519,-3.5011,-3.4653,-3.4503,-3.3993,-3.3634,-3.3514,-3.3754,-3.3814,-3.3694,-3.3814,-3.3873,-3.3873,-3.3488,-3.3259,-3.3259,-3.2828,-3.2593,-3.2593,-3.2593,-3.1317,-4.0393,-3.892,-3.8127,-3.8477,-3.8718,-3.9655,0.0,0.0,-4.3525,-4.4413,-4.5573,-4.6816,-4.7997,-5.0524,-5.3532,-5.6912,-5.8251,-5.893,-5.9099,-5.9641,-5.9505,-5.8287,-6.008,-6.1091,-6.0266,-6.0849,-6.1182,-6.0914,-5.9285,-5.8741,-5.9717,-5.8641,-5.746,-5.6237,-5.5698,-5.4589,-5.29,-5.0516,-4.9761,-5.0599,-4.8356,-4.8282,-4.997,-4.8115,-4.7807,-4.8594,-4.7679,-4.7309,-4.7249,-4.6501,-4.5843,-4.5214,-4.4496,-4.3798,-4.329,-4.329,-4.329,-4.329,-4.329,-4.2521,-4.1512,-4.1414,-4.0546,-3.9379,-3.8631,-3.8871,-3.926,-3.8512,-3.8781,-3.9254,-3.9194,-3.92,-3.905,-3.8422,-3.8272,-3.8093,-3.7434,-3.7315,-3.7135,-3.6596,-3.6417,-3.6207,-3.5699,-3.5549,-3.5519,-3.5519,-3.5519,-3.5519,-3.5519,-3.5519,-3.5519,-3.5519,-3.5429,-3.513,-3.4563,-3.4444,-3.4113,-3.3544,-3.4622,-3.5011,-3.4414,-3.4951,-3.528,-3.528,-3.4364,-3.3892,-3.3892,-3.3024,-3.2593,-3.2593,-3.2593,-3.2431,-4.1067,-3.9776,-3.9259,-4.0479,-4.1311,-4.2418,-4.4507,-4.5824,-4.6714,-4.7068,-4.8236,-4.9896,-5.207,-5.3549,-5.5304,0.0,-5.8795,-5.9167,-5.9573,-5.8795,-5.7949,-5.734,-5.8118,-5.8896,-5.9404,-6.0148,-6.0419,-6.0013,-5.9593,-5.9218,-5.8863,-5.8753,-5.8256,-5.7218,-5.5823,-5.4475,-5.3313,-5.0628,-4.9313,-4.93,-4.7946,-4.7764,-4.8584,-4.7709,-4.7538,-4.7904,-4.7495,-4.7309,-4.7249,-4.6591,-4.5903,-4.5214,-4.4556,-4.3858,-4.329,-4.329,-4.329,-4.329,-4.329,-4.2931,-4.2402,-4.1624,-4.0995,-4.0367,-3.932,-3.92,-3.9313,-3.908,-3.9469,-3.9888,-3.9529,-3.9709,-3.9828,-3.914,-3.899,-3.8811,-3.8123,-3.7973,-3.7913,-3.7644,-3.6985,-3.6507,-3.6596,-3.5998,-3.5519,-3.5519,-3.5519,-3.5519,-3.5519,-3.5519,-3.5519,-3.5519,-3.5519,-3.54,-3.51,-3.507,-3.4951,-3.4681,-3.519,-3.537,-3.507,-3.534,-3.5519,-3.5519,-3.51,-3.4872,-3.4872,-3.4476,-3.4308,-3.4308,-3.4308,-3.4308,-4.1027,-4.0315,0.0,-4.2265,-4.3597,-4.4871,-4.6726,-4.8297,-4.9489,-4.9664,-5.0639,-5.2116,-5.4268,-5.5154,-5.6205,-5.8328,-5.8693,-5.8896,-5.9404,-5.778,-5.6359,-5.5953,-5.5886,-5.6325,-5.7408,-5.8524,-5.9066,-5.8727,-5.8998,-5.8896,-5.822,-5.8727,-5.866,-5.7915,-5.5927,-5.4566,-5.3862,-5.0831,-4.9194,-4.8991,-4.7872,-4.7624,-4.8157,-4.7849,-4.7581,-4.7309,-4.7309,-4.7309,-4.7249,-4.6591,-4.6022,-4.5514,-4.4855,-4.4197,-4.3559,-4.3559,-4.3439,-4.329,-4.329,-4.317,-4.291,-4.1953,-4.1572,-4.1175,-4.0038,-3.9798,-3.9918,-3.9738,-4.0157,-4.0546,-4.0098,-4.0307,-4.0546,-4.0068,-3.9828,-3.9559,-3.905,-3.8811,-3.8631,-3.8422,-3.7644,-3.7045,-3.7135,-3.6387,-3.5699,-3.5519,-3.5519,-3.5519,-3.5519,-3.5519,-3.5519,-3.5519,-3.5519,-3.5519,-3.5519,-3.5519,-3.5519,-3.5519,-3.5519,-3.5519,-3.5519,-3.5519,-3.5519,-3.5519,-3.5519,-3.5519,-3.5519,-3.5519,-3.5519,-3.5519,-3.5519,-3.5519,-4.0122,-4.0266,-4.0934,-4.3256,-4.4774,-4.6587,-5.0238,-5.1051,-5.1463,-5.263,-5.2832,-5.286,-5.3041,-5.419,-5.5747,-5.7634,-5.7915,-5.7915,-5.7949,-5.6697,-5.5209,-5.3788,-5.3619,-5.3619,0.0,-5.5649,-5.7171,-5.7881,-5.7273,-5.7509,-5.8896,-5.8998,-5.866,-5.7915,-5.6457,-5.5303,-5.4557,-5.1076,-4.9775,-5.0696,-4.8399,-4.8366,-5.0281,-4.9215,-4.821,-4.7309,-4.7309,-4.7309,-4.7249,-4.6591,-4.6279,-4.619,-4.5544,-4.4855,-4.4287,-4.4287,-4.3858,-4.329,-4.329,-4.291,-4.241,-4.2381,-4.1931,-4.1265,-4.0576,-4.0816,-4.1175,-4.0546,-4.0846,-4.1354,-4.1324,-4.1324,-4.1354,-4.1324,-4.0816,-4.0367,-4.0337,-3.9828,-3.92,-3.8512,-3.8362,-3.7943,-3.6716,-3.6477,-3.6237,-3.5609,-3.5519,-3.5519,-3.5519,-3.5519,-3.5519,-3.5519,-3.5519,-3.5519,-3.5519,-3.5519,-3.5519,-3.5519,-3.5519,-3.5519,-3.5519,-3.5519,-3.5519,-3.5519,-3.5519,-3.5519,-3.5519,-3.5519,-3.5519,-3.5519,-3.5519,-3.5519,-4.1239,-4.2727,-4.4686,-4.6787,-4.8321,-4.9965,-5.2232,-5.3112,-5.3416,-5.3344,-5.2534,-5.1933,-5.2221,-5.1842,-5.2543,-5.5587,-5.6544,-5.7122,-5.7814,-5.7881,-5.663,-5.3112,-5.4059,0.0,0.0,0.0,0.0,-5.6427,-5.7103,-5.7543,-5.7543,-5.8017,-5.8152,-5.7881,-5.5959,-5.4994,-5.5044,-5.2397,-5.0759,-5.0184,-4.8231,-4.7666,-4.8324,-4.7946,-4.7593,-4.7309,-4.7309,-4.7309,-4.7279,-4.707,-4.6711,-4.6249,-4.6082,-4.5574,-4.4975,-4.4975,-4.4556,-4.3888,-4.3439,-4.314,-4.294,-4.253,-4.2261,-4.1961,-4.1302,-4.1205,-4.1324,-4.1115,-4.1572,-4.1961,-4.1542,-4.1752,-4.1961,-4.1512,-4.1205,-4.0935,-4.0487,-4.0576,-4.0397,-3.929,-3.908,-3.8781,-3.7913,-3.7045,-3.6267,-3.5609,-3.5519,-3.5519,-3.5519,-3.5519,-3.5519,-3.5519,-3.5519,-3.5519,-3.5519,-3.5519,-3.5519,-3.5519,-3.5519,-3.5519,-3.5519,-3.5519,-3.5519,-3.5519,-3.5519,-3.5519,-3.5519,-3.5519,-3.5519,-3.5519,-3.5519,-3.5519,-4.2835,-4.5001,-4.7443,-4.9331,-5.071,-5.1995,-5.3551,-5.3822,-5.3619,-5.3045,-5.1723,-5.0676,-5.056,-5.0012,-5.0492,-5.3203,-5.4518,-5.5568,-5.656,-5.69,-5.5953,-5.3078,-5.3788,-5.3721,0.0,0.0,0.0,-5.531,-5.6427,-5.7036,-5.6799,-5.7476,-5.7881,-5.7881,-5.6159,-5.5303,-5.5622,-5.3164,-5.1024,-4.9316,-4.8209,-4.7549,-4.7309,-4.7309,-4.7495,-4.7849,-4.7849,-4.803,-4.8407,-4.8407,-4.8131,-4.7773,-4.7773,-4.7129,-4.6183,-4.6183,-4.5514,-4.4556,-4.3858,-4.3499,-4.323,-4.2851,-4.2701,-4.2581,-4.1961,-4.1893,-4.2013,-4.1841,-4.2192,-4.2611,-4.2192,-4.2402,-4.2611,-4.2192,-4.1893,-4.1662,-4.1205,-4.1235,-4.1055,-3.9978,-3.9768,-3.9469,-3.8542,-3.7315,-3.6327,-3.5908,-3.5639,-3.5519,-3.5519,-3.5519,-3.5519,-3.5519,-3.5519,-3.5519,-3.5519,-3.5519,-3.5519,-3.5519,-3.5519,-3.5519,-3.5519,-3.5519,-3.5519,-3.5519,-3.5519,-3.5519,-3.5519,-3.5519,-3.5519,-3.5519,-3.5519,-3.5519,-4.4905,-4.7069,-4.9211,-5.0884,-5.186,-5.2739,-5.416,-5.3281,-5.2066,-5.1732,-5.0458,-4.9055,0.0,0.0,-4.9558,-5.0626,-5.2203,-5.3651,-5.4634,-5.4262,-5.3856,0.0,0.0,0.0,0.0,0.0,0.0,-5.46,0.0,-5.6021,-5.6765,-5.7476,-5.7881,-5.7881,-5.6778,-5.6243,-5.6282,-5.3428,-5.0782,-4.8415,-4.8341,-4.7938,-4.7309,-4.7309,-4.7849,-4.88,-4.88,-4.9416,-5.0397,-5.0397,-5.0397,-5.0397,-5.0397,-4.9402,-4.7929,-4.7849,-4.6834,-4.5327,-4.4646,-4.3917,-4.3349,-4.3349,-4.3319,-4.317,-4.265,-4.2851,-4.317,-4.262,-4.2851,-4.329,-4.329,-4.329,-4.329,-4.329,-4.2851,-4.244,-4.241,-4.1931,-4.1265,-4.0576,-4.0427,-3.9978,-3.8631,-3.7375,-3.66,-3.6507,-3.5968,-3.5549,-3.5519,-3.5519,-3.5519,-3.5519,-3.5519,-3.5519,-3.5519,-3.5519,-3.5519,-3.5519,-3.5519,-3.5519,-3.5549,-3.5519,-3.5519,-3.5549,-3.5519,-3.5519,-3.5519,-3.5519,-3.5519,-3.5519,-3.5519,-3.5519,-4.7582,-4.9668,-5.1593,-5.2639,-5.3044,-5.3145,-5.2942,-5.1627,-5.018,-4.8879,-4.722,-4.574,0.0,0.0,0.0,-5.0159,-5.2904,0.0,-5.6831,-5.8355,0.0,-5.6224,0.0,-5.6664,-5.5006,-5.5513,0.0,0.0,-5.5615,-5.6021,-5.6765,-5.7476,-5.7881,-5.7881,-5.6778,-5.6624,-5.7446,-5.4615,-5.2178,-5.0223,-4.8917,-4.7938,-4.7309,-4.7309,-4.7849,-4.88,-4.88,-4.9416,-5.0397,-5.0397,-5.0397,-5.0397,-5.0397,-5.0147,-4.9638,-4.8845,-4.7957,-4.7048,-4.6135,-4.4994,-4.4077,-4.4077,-4.3708,-4.326,-4.315,-4.317,-4.326,-4.312,-4.317,-4.329,-4.329,-4.329,-4.329,-4.329,-4.317,-4.294,-4.25,-4.2611,-4.2491,-4.1354,-4.0726,-3.9978,-3.8631,-3.8123,-3.7584,-3.6626,-3.6327,-3.6058,-3.5579,-3.5519,-3.5519,-3.5519,-3.5519,-3.5519,-3.5519,-3.5519,-3.5519,-3.5519,-3.5519,-3.5729,-3.6207,-3.5759,-3.5729,-3.6237,-3.5759,-3.5519,-3.5519,-3.5519,-3.5519,-3.5519,-3.5519,-3.5519,-5.0035,-5.186,-5.3484,-5.4262,-5.3991,-5.3281,-5.2469,-5.058,-4.8435,-4.6742,-4.503,-4.34,-4.2199,-4.3449,0.0,0.0,0.0,0.0,-5.6628,-5.8592,-5.9302,0.0,-5.8524,0.0,-5.6833,-5.7036,-5.7103,0.0,-5.6393,-5.6359,-5.6799,-5.7476,-5.7881,-5.7881,-5.7297,-5.6811,-5.6432,-5.4859,-5.2881,-5.0611,-5.0114,-4.9125,-4.7728,-4.7728,-4.8122,-4.8841,0.0,-5.0087,-5.108,-5.1557,-5.1773,-5.1773,-5.1773,-5.1484,-5.1005,-5.0365,-4.9638,-4.8812,-4.7783,-4.6559,-4.5333,-4.4569,-4.3828,-4.3349,-4.3648,-4.3529,-4.3349,-4.3648,-4.3529,-4.3349,-4.3648,-4.3499,-4.3349,-4.3648,-4.3499,-4.32,-4.288,-4.306,-4.2991,-4.2013,-4.1055,-4.0157,-3.9409,-3.8781,-3.8063,-3.7045,-3.6656,-3.6237,-3.5579,-3.5519,-3.5519,-3.5519,-3.5519,-3.5519,-3.5519,-3.5759,-3.5938,-3.5938,-3.5938,-3.6237,-3.6866,-3.6267,-3.6118,-3.6477,-3.6387,-3.6058,-3.5519,-3.5789,-3.5789,-3.5519,-3.5519,-3.5519,-5.2165,-5.3653,-5.4871,-5.5446,-5.4465,-5.3078,-5.2097,-4.9499,-4.6723,-4.495,-4.334,-4.1806,-4.0287,-4.2014,-4.4072,-4.5303,0.0,-5.3045,-5.5749,-5.7239,-5.8389,-5.9336,-5.937,-5.9066,-5.8389,-5.8355,-5.8287,-5.8186,-5.7509,-5.707,-5.6934,-5.7543,-5.7915,-5.8017,-5.7949,-5.6954,-5.4966,-5.4704,-5.3181,-5.0441,-5.125,-5.055,-4.8416,-4.8327,-4.8516,-4.9006,0.0,0.0,-5.1993,-5.3177,-5.3585,-5.3518,-5.3518,-5.2939,-5.2101,-5.1957,-5.134,-5.0435,-4.9215,-4.8004,-4.6739,-4.5102,-4.3977,-4.3409,-4.4107,-4.3888,-4.3529,-4.4167,-4.3917,-4.3678,-4.4287,-4.4018,-4.3678,-4.4197,-4.3868,-4.3409,-4.3319,-4.329,-4.315,-4.253,-4.1482,-4.0606,-4.0427,-3.9439,-3.8392,-3.7644,-3.7075,-3.6507,-3.5848,-3.5609,-3.5519,-3.5519,-3.5579,-3.5639,-3.5639,-3.6237,-3.6596,-3.6596,-3.6596,-3.6896,-3.7524,-3.6926,-3.6656,-3.6746,-3.7195,-3.6836,-3.5639,-3.6207,-3.6178,-3.5639,-3.5549,-3.5549,-5.3788,-5.4837,-5.5412,-5.4905,-5.3653,-5.1995,-5.0033,-4.714,0.0,0.0,-4.1649,-4.0646,-3.9694,-4.196,-4.4733,-4.6922,-5.0075,-5.372,-5.7881,-5.866,-5.9573,0.0,-6.1264,-6.0858,-6.0723,0.0,0.0,0.0,0.0,-5.8355,-5.7746,-5.7814,-5.8186,-5.8795,-5.822,-5.7561,-5.692,-5.5375,-5.3608,-5.1603,-5.0864,-5.0005,-4.912,-4.8536,-4.8802,-4.9688,-5.0795,0.0,-5.2026,-5.3714,-5.4059,-5.3518,-5.3518,-5.3382,-5.311,-5.2241,-5.1813,-5.1377,-4.9456,-4.8314,-4.7472,-4.6297,-4.4725,-4.3409,-4.4107,-4.4227,-4.4167,-4.4287,-4.4616,-4.4975,-4.5095,-4.5035,-4.4855,-4.4407,-4.4227,-4.3947,-4.3409,-4.329,-4.315,-4.253,-4.2201,-4.1722,-4.0576,-4.0217,-3.9649,-3.8392,-3.8123,-3.7823,-3.7165,-3.6148,-3.5519,-3.5519,-3.5998,-3.6327,-3.6327,-3.6896,-3.7255,-3.7255,-3.7255,-3.7554,-3.8182,-3.7584,-3.7494,-3.8033,-3.7644,-3.7045,-3.6327,-3.6417,-3.6417,-3.6297,-3.5759,-3.5789,-5.4466,-5.5753,-5.6765,-5.6393,-5.4296,-5.1826,-4.9999,0.0,0.0,-4.2579,-4.1531,-4.0475,-3.9707,-4.2088,-4.4471,-4.5322,-4.801,-5.1589,-5.6089,-5.7036,-5.8423,-6.1467,-6.1839,-6.1873,0.0,0.0,0.0,0.0,0.0,-5.9438,-5.9066,-5.9032,-5.9201,-5.9573,-5.8677,-5.7942,-5.7397,-5.591,-5.4231,-5.2405,-5.189,-5.0955,-4.9763,-4.9434,-4.9388,-4.9609,-5.1281,0.0,-5.1777,-5.3772,-5.416,-5.3518,-5.3518,-5.3518,-5.3416,-5.2904,-5.2697,-5.2522,-5.0935,-4.9649,-4.8522,-4.7804,-4.612,-4.4496,-4.5155,-4.5125,-4.4885,-4.5244,-4.5334,-4.5364,-4.5753,-4.5574,-4.5304,-4.5334,-4.5095,-4.4646,-4.3988,-4.3798,-4.3658,-4.3,-4.262,-4.2201,-4.1572,-4.0846,-4.0068,-3.908,-3.8631,-3.8153,-3.7494,-3.6866,-3.6507,-3.6507,-3.6776,-3.6956,-3.6956,-3.7554,-3.7913,-3.7913,-3.7913,-3.8212,-3.8901,-3.8272,-3.7913,-3.7883,-3.8242,-3.7793,-3.6477,-3.7165,-3.7315,-3.6956,-3.6656,-3.6656,-5.528,-5.677,-5.8051,-5.7746,-5.4837,-5.1657,-4.9999,-4.5645,0.0,-4.25,-4.1533,-4.0486,-3.9889,-4.2017,-4.3811,0.0,-4.5906,-4.9221,-5.3721,-5.5141,-5.7036,0.0,-6.1839,0.0,0.0,0.0,0.0,0.0,0.0,0.0,-6.0114,-5.9945,-6.0013,-6.0351,-5.9209,-5.8416,-5.7978,-5.6455,-5.4867,-5.3253,-5.2767,-5.1789,-5.0405,-5.0255,-4.9942,-4.9599,-5.1539,0.0,0.0,-5.3775,-5.4187,-5.338,-5.3653,-5.3585,-5.338,-5.3484,-5.3518,-5.3314,-5.2026,-5.0691,-4.9477,-4.8736,-4.7034,-4.5424,-4.6112,-4.5933,-4.5633,-4.613,-4.6022,-4.5843,-4.6381,-4.6142,-4.5813,-4.6232,-4.5813,-4.5125,-4.4466,-4.4317,-4.4107,-4.3409,-4.291,-4.256,-4.241,-4.1542,-4.0546,-3.9738,-3.917,-3.8571,-3.7913,-3.7823,-3.7823,-3.7823,-3.7704,-3.7614,-3.7614,-3.8242,-3.8601,-3.8601,-3.8601,-3.8841,-3.9409,-3.8901,-3.8362,-3.7853,-3.8871,-3.8601,-3.6896,-3.7913,-3.8123,-3.7614,-3.7464,-3.7494,-5.6938,-5.822,-5.8592,-5.7239,-5.4093,-5.0744,-4.8582,0.0,-4.1409,-4.1216,-4.0627,-4.013,-4.0062,-4.1276,-4.282,-4.4415,-4.5953,-4.8477,-5.2976,-5.4837,-5.6833,-5.9844,0.0,0.0,0.0,0.0,0.0,0.0,0.0,0.0,-6.0182,-5.9471,-5.9742,-6.1163,-5.973,-5.922,-5.9827,-5.7094,-5.5293,-5.4421,-5.235,-5.1263,-5.1109,-5.0465,-5.0166,-5.0198,-5.1423,0.0,0.0,-5.4049,-5.4204,-5.3056,-5.4085,-5.3841,-5.3026,-5.3345,-5.3518,-5.3246,-5.1225,-5.0442,-4.9992,-4.8042,-4.6466,-4.5424,-4.6112,-4.6249,-4.619,-4.6249,-4.6711,-4.713,-4.7189,-4.716,-4.698,-4.6441,-4.5813,-4.5125,-4.4466,-4.4317,-4.4107,-4.3409,-4.326,-4.306,-4.25,-4.2291,-4.1782,-4.0487,-4.0247,-3.9978,-3.932,-3.923,-3.923,-3.923,-3.8661,-3.8302,-3.8302,-3.8931,-3.932,-3.932,-3.932,-3.9349,-3.9373,-3.9313,-3.929,-3.923,-3.9313,-3.902,-3.8212,-3.8332,-3.8362,-3.8272,-3.7674,-3.7734,-5.4907,-5.7213,-5.8761,-5.7712,-5.3957,-5.0202,-4.8883,0.0,-4.157,-4.2193,-4.1922,-4.1537,-4.1433,-4.2313,-4.3335,-4.4136,-4.4688,0.0,-4.9172,-5.0464,-5.2703,-5.6934,0.0,0.0,0.0,0.0,0.0,0.0,0.0,0.0,-6.1535,-6.1197,-6.1332,-6.1941,-6.0926,-6.0283,-6.0114,-5.7168,-5.5335,-5.4589,-5.226,-5.1229,-5.1199,-5.0913,-5.0794,-5.0857,-5.1567,0.0,0.0,-5.2387,-5.256,-5.2003,-5.2072,-5.2429,-5.2873,-5.2613,-5.2557,-5.2418,-5.1594,-5.0512,-4.9296,-4.8501,-4.7443,-4.6561,-4.683,-4.692,-4.692,-4.692,-4.71,-4.7309,-4.7309,-4.7309,-4.7249,-4.698,-4.6711,-4.6202,-4.5125,-4.4915,-4.4586,-4.3499,-4.329,-4.32,-4.3,-4.2611,-4.2081,-4.1115,-4.0995,-4.0606,-3.9559,-3.9768,-3.9858,-3.9469,-3.917,-3.902,-3.902,-3.926,-3.9373,-3.9373,-3.9373,-3.9373,-3.9373,-3.9373,-3.923,-3.8811,-3.92,-3.908,-3.8392,-3.8811,-3.902,-3.902,-3.8751,-3.8751,-5.2765,-5.5552,-5.7681,-5.7306,-5.3653,-4.983,0.0,0.0,-4.2064,-4.3057,-4.2935,-4.267,-4.2777,-4.3306,-4.389,-4.4228,0.0,-4.5207,-4.714,-4.8205,-5.0354,0.0,0.0,0.0,0.0,0.0,0.0,0.0,0.0,0.0,0.0,-6.2719,-6.2618,-6.2381,-6.1467,-6.0502,-5.966,-5.7364,-5.5503,-5.4084,-5.2485,-5.1526,-5.1229,-5.1229,-5.1229,-5.1246,0.0,0.0,0.0,-5.1389,-5.1326,-5.0913,-5.0792,-5.143,-5.2389,-5.1675,-5.1634,-5.1813,-5.1192,-5.0016,-4.8759,-4.8429,-4.7861,-4.7309,-4.7309,-4.7309,-4.7309,-4.7309,-4.7309,-4.7309,-4.7309,-4.7309,-4.7249,-4.707,-4.701,-4.6651,-4.5304,-4.5005,-4.4676,-4.3499,-4.329,-4.329,-4.329,-4.294,-4.247,-4.1811,-4.1722,-4.1205,-3.9888,-4.0127,-4.0157,-3.9463,-3.9589,-3.9619,-3.9439,-3.9373,-3.9373,-3.9373,-3.9373,-3.9373,-3.9373,-3.9373,-3.92,-3.8691,-3.917,-3.917,-3.8691,-3.917,-3.9373,-3.9373,-3.9373,-3.9373,-5.128,-5.3618,-5.5009,-5.5582,-5.2875,-4.9729,0.0,-4.519,-4.2807,-4.3315,-4.3174,-4.316,-4.3776,-4.3894,-4.416,-4.5074,-4.5686,0.0,-4.8172,-4.9555,0.0,0.0,0.0,0.0,0.0,0.0,0.0,0.0,0.0,0.0,0.0,-6.3497,-6.3159,-6.2415,-6.0892,-5.9621,-5.8533,-5.776,-5.5877,-5.29,-5.29,-5.226,-5.1229,-5.1229,-5.1229,0.0,0.0,0.0,0.0,-5.1599,-5.1072,-4.9916,-5.1065,-5.146,-5.1318,-5.0653,-5.1043,-5.1598,-4.9575,-4.881,-4.8636,-4.7636,-4.7309,-4.7309,-4.7309,-4.7309,-4.7309,-4.7309,-4.7309,-4.7309,-4.7309,-4.7309,-4.713,-4.6501,-4.6279,-4.592,-4.4616,-4.4317,-4.4137,-4.3409,-4.329,-4.329,-4.329,-4.329,-4.312,-4.25,-4.2381,-4.1901,-4.0546,-4.0397,-4.0157,-3.9463,-4.0008,-4.0127,-3.9433,-3.9373,-3.9373,-3.9373,-3.9373,-3.9373,-3.9373,-3.9373,-3.9373,-3.9373,-3.9373,-3.9373,-3.9373,-3.9373,-3.9373,-3.9373,-3.9373,-3.9373,-4.7311,-4.9593,-5.1128,-5.1208,-4.9148,-4.6853,-4.5872,-4.4538,-4.3371,-4.2906,-4.3287,-4.3803,-4.4018,-4.4104,-4.4595,-4.5929,-4.681,0.0,0.0,0.0,0.0,0.0,0.0,0.0,0.0,0.0,0.0,0.0,0.0,0.0,0.0,-6.3024,-6.2618,-6.2381,-6.0892,-5.9928,-5.9588,-5.7586,-5.5758,-5.4041,-5.3265,-5.2305,-5.1229,-5.1229,0.0,0.0,0.0,0.0,0.0,-4.9532,-4.9169,-4.8745,-4.8687,-4.9336,-5.0235,-4.9546,-4.9536,-4.9663,-4.9013,-4.8335,-4.7722,-4.7409,-4.7309,-4.7309,-4.7309,-4.7309,-4.7309,-4.7309,-4.7309,-4.7309,-4.7309,-4.7309,-4.713,-4.6429,-4.6279,-4.592,-4.4616,-4.4317,-4.4107,-4.3409,-4.329,-4.329,-4.329,-4.329,-4.312,-4.25,-4.2731,-4.2551,-4.1235,-4.1474,-4.1542,-4.0816,-4.0935,-4.0816,-4.0157,-4.0487,-4.0756,-4.0756,-4.0337,-4.0098,-4.0098,-3.9649,-3.9373,-3.9373,-3.9373,-3.9373,-3.9373,-3.9373,-3.9373,-3.9403,-3.9888,-4.0098,-4.4156,-4.6237,-4.7972,-4.8647,-4.7034,-4.5219,-4.4716,-4.4225,-4.3731,-4.3148,-4.3844,-4.4516,-4.4569,-4.4647,-4.5036,-4.601,-4.7119,-4.7637,0.0,0.0,0.0,0.0,0.0,0.0,0.0,0.0,0.0,0.0,0.0,0.0,0.0,-6.3057,-6.255,-6.2009,-6.0757,-5.9755,-5.9108,-5.7601,-5.5889,-5.3956,-5.3656,-5.2754,-5.1229,-5.1229,0.0,0.0,0.0,0.0,0.0,-4.8566,-4.8147,-4.7878,-4.7459,-4.8177,-4.9347,-4.853,-4.847,-4.8759,-4.8377,-4.7849,-4.7309,-4.7309,-4.7309,-4.7309,-4.7309,-4.7309,-4.7309,-4.7309,-4.7309,-4.7309,-4.7309,-4.713,-4.677,-4.6082,-4.5753,-4.5274,-4.4157,-4.4137,-4.4107,-4.3409,-4.3499,-4.3589,-4.3319,-4.329,-4.314,-4.2791,-4.306,-4.294,-4.1931,-4.2141,-4.2141,-4.1444,-4.1632,-4.1632,-4.1175,-4.1332,-4.1265,-4.1025,-4.0636,-4.0277,-4.0038,-3.9649,-3.9373,-3.9373,-3.9679,-3.9798,-3.9798,-4.0038,-4.0157,-4.0157,-4.0576,-4.0756,0.0,-4.3594,-4.5404,-4.7146,-4.6039,-4.4489,-4.4338,-4.4089,0.0,-4.3799,-4.4548,-4.5264,-4.544,-4.5423,-4.545,-4.5535,-4.6877,0.0,0.0,0.0,0.0,0.0,0.0,0.0,0.0,0.0,0.0,0.0,0.0,0.0,0.0,-6.3429,-6.2685,-6.1264,-6.0452,-5.9185,-5.7549,-5.7775,-5.6315,-5.3165,-5.4211,-5.3526,-5.1293,-5.1293,0.0,0.0,0.0,0.0,0.0,-4.8536,-4.7908,-4.7309,-4.7309,-4.7861,-4.8594,-4.7636,-4.7861,-4.8553,-4.7593,-4.7309,-4.7309,-4.7309,-4.7309,-4.7309,-4.7309,-4.7309,-4.7309,-4.7309,-4.7309,-4.7309,-4.7309,-4.68,-4.6142,-4.5454,-4.4825,-4.4197,-4.3499,-4.3888,-4.4197,-4.3559,-4.3917,-4.4167,-4.3469,-4.3349,-4.3349,-4.329,-4.329,-4.312,-4.256,-4.247,-4.2231,-4.1594,-4.2111,-4.247,-4.247,-4.1901,-4.1265,-4.0636,-4.0516,-4.0187,-3.9589,-3.9433,-3.9403,-3.9463,-4.0127,-4.0457,-4.0457,-4.1085,-4.1422,-4.1422,-4.1482,-4.1444,-4.0178,0.0,-4.2702,-4.2356,-4.2644,-4.2675,0.0,-4.2513,-4.3571,-4.2985,-4.4092,-4.5375,-4.5986,-4.5803,-4.5909,-4.6975,-4.7603,-4.8045,0.0,0.0,0.0,0.0,0.0,0.0,0.0,0.0,0.0,0.0,0.0,0.0,0.0,-6.2448,-6.14,-6.0419,-5.9674,-5.9055,-5.8661,-5.8143,-5.7039,-5.5417,-5.5698,-5.4681,-5.2485,-5.2485,0.0,0.0,0.0,0.0,-4.8506,-4.8356,-4.7908,-4.7309,-4.7309,-4.7452,-4.7593,-4.7366,-4.7452,-4.7593,-4.7366,-4.7309,-4.7309,-4.7309,-4.7309,-4.7309,-4.7309,-4.7309,-4.7309,-4.7309,-4.7309,-4.7309,-4.7309,-4.68,-4.6142,-4.5454,-4.5185,-4.4885,-4.4227,-4.4586,-4.5005,-4.4855,-4.4975,-4.4855,-4.4197,-4.4077,-4.3858,-4.3379,-4.329,-4.323,-4.312,-4.312,-4.306,-4.288,-4.3,-4.312,-4.312,-4.297,-4.2781,-4.2602,-4.1713,-4.1085,-4.0935,-3.9948,-3.9649,-4.0157,-4.0816,-4.1145,-4.1145,-4.1294,-4.1422,-4.1384,-4.1931,-4.2171,-4.0441,-4.1146,-4.1759,-4.11,-4.1486,-4.1732,-4.0738,-4.1568,-4.2521,-4.2419,-4.3469,-4.4653,-4.5596,-4.5814,-4.6136,-4.7052,-4.7769,0.0,0.0,0.0,0.0,0.0,0.0,0.0,0.0,0.0,0.0,0.0,0.0,0.0,0.0,-6.1738,-6.0791,-5.9641,-5.9235,-5.8863,-5.849,-5.8084,-5.7335,-5.6204,-5.573,-5.4847,-5.3656,-5.3165,-5.2359,0.0,0.0,0.0,-4.8716,-4.8416,-4.7908,-4.7309,-4.7309,-4.7309,-4.7309,-4.7309,-4.7309,-4.7309,-4.7309,-4.7309,-4.7309,-4.7309,-4.7309,-4.7309,-4.7309,-4.7309,-4.7309,-4.7309,-4.7309,-4.7309,-4.7309,-4.68,-4.619,-4.5873,-4.5514,-4.5185,-4.4855,-4.5304,-4.5663,-4.5364,-4.5544,-4.5544,-4.4885,-4.4766,-4.4556,-4.3858,-4.3738,-4.3648,-4.3319,-4.329,-4.329,-4.329,-4.329,-4.329,-4.329,-4.329,-4.317,-4.291,-4.2222,-4.1722,-4.1384,-4.0696,-4.0636,-4.1294,-4.1692,-4.2021,-4.2282,-4.2282,-4.2282,-4.2282,-4.2641,-4.2791,-4.1383,-4.1731,-4.1859,-4.1597,-4.1648,-4.1664,-4.1242,-4.1336,-4.1677,-4.2293,-4.3031,-4.3878,-4.4966,-4.5548,0.0,0.0,0.0,0.0,0.0,0.0,0.0,0.0,0.0,0.0,0.0,0.0,0.0,0.0,0.0,0.0,0.0,-6.1095,-6.0351,-5.9066,-5.8896,-5.849,-5.7712,-5.7814,-5.7268,-5.6039,-5.5287,-5.4695,-5.4269,-5.3521,-5.2928,0.0,0.0,0.0,-4.897,-4.8356,-4.7818,-4.7309,-4.7309,-4.7309,-4.7309,-4.7309,-4.7309,-4.7309,-4.7309,-4.7309,-4.7309,-4.7309,-4.7309,-4.7309,-4.7309,-4.7309,-4.7309,-4.7309,-4.7309,-4.7309,-4.7309,-4.68,-4.6279,-4.6279,-4.5873,-4.5454,-4.5454,-4.5992,-4.6292,-4.5723,-4.6082,-4.6262,-4.5574,-4.5454,-4.5214,-4.4556,-4.4377,-4.4067,-4.3529,-4.3349,-4.329,-4.329,-4.329,-4.329,-4.329,-4.329,-4.309,-4.259,-4.244,-4.2111,-4.1452,-4.1512,-4.1841,-4.2381,-4.25,-4.2791,-4.329,-4.329,-4.329,-4.329,-4.329,-4.329,-4.1282,-4.1903,-4.2388,-4.2362,-4.2838,-4.3124,-4.2153,-4.2408,-4.2941,-4.3042,-4.3759,-4.4439,-4.4797,-4.4889,-4.515,0.0,0.0,0.0,0.0,0.0,0.0,0.0,0.0,0.0,0.0,0.0,0.0,0.0,0.0,0.0,0.0,-6.008,-5.9268,-5.9032,-5.8389,-5.7712,-5.6968,-5.7577,-5.707,-5.5463,-5.61,-5.517,-5.2869,-5.4168,-5.3102,0.0,0.0,-4.9733,-4.7608,-4.7489,-4.7399,-4.7309,-4.7309,-4.7309,-4.7309,-4.7309,-4.7309,-4.7309,-4.7309,-4.7309,-4.7309,-4.7309,-4.7309,-4.7309,-4.7309,-4.7309,-4.7309,-4.7309,-4.7309,-4.7309,-4.7309,-4.68,-4.6279,-4.6279,-4.619,-4.6172,-4.6172,-4.6681,-4.713,-4.701,-4.707,-4.695,-4.6249,-4.6172,-4.5933,-4.5244,-4.4676,-4.4287,-4.4167,-4.3648,-4.329,-4.329,-4.329,-4.329,-4.329,-4.329,-4.326,-4.314,-4.2671,-4.2111,-4.1452,-4.1961,-4.2291,-4.241,-4.291,-4.32,-4.329,-4.329,-4.329,-4.329,-4.329,-4.329,-4.1604,-4.2102,-4.2422,-4.2848,-4.3227,-4.3158,-4.1966,-4.2072,-4.2468,-4.2751,-4.3232,-4.3794,-4.4507,0.0,-4.6028,-4.7777,0.0,0.0,0.0,0.0,0.0,0.0,0.0,0.0,0.0,0.0,0.0,0.0,0.0,0.0,0.0,0.0,-5.8829,-5.8423,-5.7679,-5.7137,-5.6799,-5.6731,-5.6314,-5.5509,-5.5332,-5.4911,-5.4241,-5.3857,-5.2805,-5.1263,0.0,-4.9733,-4.7848,-4.7848,-4.7638,-4.7309,-4.7309,-4.7309,-4.7309,-4.7309,-4.7309,-4.7309,-4.7309,-4.7309,-4.7309,-4.7309,-4.7309,-4.7309,-4.7309,-4.7309,-4.7309,-4.7309,-4.7309,-4.7309,-4.7309,-4.707,-4.686,-4.686,-4.686,-4.686,-4.686,-4.71,-4.7309,-4.7309,-4.7309,-4.7219,-4.689,-4.686,-4.6621,-4.5963,-4.5274,-4.4855,-4.4855,-4.4257,-4.3988,-4.4347,-4.4077,-4.4018,-4.4377,-4.3708,-4.329,-4.329,-4.306,-4.2761,-4.2462,-4.2731,-4.288,-4.288,-4.314,-4.329,-4.329,-4.329,-4.329,-4.329,-4.329,-4.329,-4.1827,-4.2186,-4.2301,-4.3124,-4.3271,-4.2981,-4.2146,-4.2117,-4.2506,-4.3413,-4.3419,-4.3565,-4.4581,-4.5456,0.0,-4.9465,0.0,0.0,0.0,0.0,0.0,0.0,0.0,0.0,0.0,0.0,0.0,0.0,0.0,0.0,0.0,0.0,-5.8152,-5.7408,-5.6833,-5.6461,-5.6292,-5.5716,-5.5341,-5.506,-5.4456,-5.4389,-5.4755,-5.3546,-5.2786,-5.2313,-5.1683,-5.0277,-4.8421,-4.8421,-4.7989,-4.7309,-4.7309,-4.7309,-4.7309,-4.7309,-4.7309,-4.7309,-4.7309,-4.7309,-4.7309,-4.7309,-4.7309,-4.7309,-4.7309,-4.7309,-4.7309,-4.7309,-4.7309,-4.7309,-4.7309,-4.7309,-4.7309,-4.7309,-4.7309,-4.7309,-4.7309,-4.7309,-4.7309,-4.7309,-4.7309,-4.7309,-4.7309,-4.7309,-4.713,-4.6621,-4.5963,-4.5544,-4.5544,-4.4945,-4.4736,-4.5244,-4.4855,-4.4736,-4.5244,-4.4377,-4.3738,-4.3738,-4.3469,-4.329,-4.329,-4.329,-4.329,-4.329,-4.329,-4.329,-4.329,-4.3439,-4.3529,-4.3529,-4.3678,-4.3738,-4.1728,-4.2105,-4.2274,-4.3048,-4.3188,-4.3299,-4.3635,-4.3743,-4.4362,-4.6421,-4.5619,-4.4781,-4.5454,-4.5734,-4.6597,-4.889,0.0,0.0,0.0,0.0,0.0,0.0,0.0,0.0,0.0,0.0,0.0,0.0,0.0,0.0,0.0,0.0,0.0,-5.5886,-5.5818,-5.5446,-5.4769,-5.4702,-5.4183,-5.3221,-5.4112,-5.3708,-5.2227,-5.3742,-5.3534,-5.201,-5.2561,-5.1263,-4.8738,-4.8738,-4.8187,-4.7309,-4.7309,-4.7309,-4.7309,-4.7309,-4.7309,-4.7309,-4.7309,-4.7309,-4.7309,-4.7309,-4.7309,-4.7309,-4.7309,-4.7309,-4.7309,-4.7309,-4.7309,-4.7309,-4.7309,-4.7309,-4.7309,-4.7309,-4.7309,-4.7309,-4.7309,-4.7309,-4.7309,-4.7309,-4.7309,-4.7309,-4.7309,-4.7309,-4.7279,-4.7249,-4.6681,-4.6219,-4.6219,-4.5633,-4.5244,-4.5274,-4.5244,-4.5244,-4.5304,-4.5214,-4.5155,-4.5155,-4.4018,-4.329,-4.329,-4.329,-4.329,-4.329,-4.329,-4.329,-4.329,-4.3917,-4.4257,-4.4257,-4.4855,-4.5155,-4.1567,-4.1969,-4.2064,-4.2448,-4.2797,-4.3189,-4.3519,-4.3978,-4.4624,-4.5713,-4.5832,-4.5746,-4.5725,0.0,-4.7472,0.0,0.0,0.0,0.0,0.0,0.0,0.0,0.0,0.0,0.0,0.0,0.0,0.0,0.0,0.0,0.0,0.0,0.0,-5.5716,-5.5277,-5.4871,-5.46,-5.416,-5.3719,-5.3306,-5.3719,-5.3584,-5.287,-5.2894,-5.2542,-5.1885,-5.1522,-5.0775,-4.9734,-4.9054,-4.8553,-4.8168,-4.7538,-4.7309,-4.7309,-4.7309,-4.7309,-4.7309,-4.7309,-4.7309,-4.7309,-4.7309,-4.7309,-4.7309,-4.7309,-4.7309,-4.7309,-4.7309,-4.7309,-4.7309,-4.7309,-4.7309,-4.7309,-4.7309,-4.7309,-4.7309,-4.7309,-4.7309,-4.7309,-4.7309,-4.7309,-4.7309,-4.7309,-4.7309,-4.7309,-4.7309,-4.6741,-4.6429,-4.689,-4.6352,-4.6082,-4.6501,-4.6531,-4.6202,-4.5364,-4.5693,-4.5753,-4.5334,-4.4436,-4.4137,-4.4526,-4.4167,-4.4137,-4.4556,-4.4137,-4.4137,-4.4556,-4.4377,-4.4526,-4.4915,-4.5185,-4.5304,-4.1464,-4.1552,-4.1399,-4.1977,-4.2448,-4.2894,-4.3396,-4.4039,-4.4936,-4.6302,-4.6774,-4.678,-4.6297,0.0,0.0,0.0,0.0,0.0,0.0,0.0,0.0,0.0,0.0,0.0,0.0,0.0,0.0,0.0,0.0,0.0,0.0,0.0,0.0,0.0,-5.4532,-5.4262,-5.4262,-5.3754,-5.3518,-5.3518,-5.3518,-5.3518,-5.3484,-5.2765,-5.2416,-5.2348,-5.1667,-5.1187,-5.0817,-5.0055,-4.9416,-4.8759,-4.8418,-4.7892,-4.7352,-4.7636,-4.7581,-4.7309,-4.7309,-4.7309,-4.7309,-4.7309,-4.7309,-4.7309,-4.7309,-4.7309,-4.7309,-4.7309,-4.7309,-4.7309,-4.7309,-4.7309,-4.7309,-4.7309,-4.7309,-4.7309,-4.7309,-4.7309,-4.7309,-4.7309,-4.7309,-4.7309,-4.7309,-4.7309,-4.7309,-4.7309,-4.692,-4.68,-4.7249,-4.692,-4.68,-4.7249,-4.7309,-4.692,-4.5992,-4.6352,-4.6441,-4.5963,-4.5304,-4.5065,-4.5274,-4.4855,-4.4825,-4.5274,-4.4855,-4.4855,-4.5304,-4.5065,-4.5185,-4.5633,-4.5843,-4.5933,-4.1349,-4.0816,-4.0254,-4.1735,-4.2213,-4.2562,-4.352,-4.4159,-4.5479,-4.8881,-4.8821,-4.7909,-4.7313,-4.6883,0.0,0.0,0.0,0.0,0.0,0.0,0.0,0.0,0.0,0.0,0.0,0.0,0.0,0.0,0.0,0.0,0.0,0.0,0.0,0.0,-5.3518,-5.3518,-5.3518,-5.3518,-5.3518,-5.3518,-5.3518,-5.3518,-5.3518,-5.3518,-5.3518,-5.3518,-5.3518,-5.2904,-5.1921,-5.1921,-5.0671,-4.8891,-4.997,-4.9125,-4.7409,-4.8388,-4.8157,-4.7309,-4.7309,-4.7309,-4.7309,-4.7309,-4.7309,-4.7309,-4.7309,-4.7309,-4.7309,-4.7309,-4.7309,-4.7309,-4.7309,-4.7309,-4.7309,-4.7309,-4.7309,-4.7309,-4.7309,-4.7309,-4.7309,-4.7309,-4.7309,-4.7309,-4.7309,-4.7309,-4.7309,-4.7309,-4.7309,-4.7309,-4.7309,-4.7309,-4.7309,-4.7309,-4.7309,-4.7309,-4.7309,-4.7309,-4.7309,-4.7309,-4.6681,-4.6022,-4.5334,-4.5304,-4.5304,-4.5304,-4.5304,-4.5304,-4.5304,-4.5992,-4.6279,-4.6309,-4.701,-4.7309,-4.0721,-4.0414,-4.0389,-4.2408,-4.3311,-4.4145,-4.5882,-4.6192,-4.6542,-4.8036,-4.8266,-4.8048,-4.7314,0.0,0.0,0.0,0.0,0.0,0.0,0.0,0.0,0.0,0.0,0.0,0.0,0.0,0.0,0.0,0.0,0.0,0.0,0.0,0.0,0.0,-5.3518,-5.3518,-5.3518,-5.3518,-5.3518,-5.3518,-5.3518,-5.3518,-5.3518,-5.3518,-5.3518,-5.3518,-5.3518,-5.3314,-5.2973,-5.2205,-5.1117,-4.9891,-4.9456,-4.8922,-4.8293,-4.7934,-4.7581,-4.7309,-4.7309,-4.7309,-4.7309,-4.7309,-4.7309,-4.7309,-4.7309,-4.7309,-4.7309,-4.7309,-4.7309,-4.7309,-4.7309,-4.7309,-4.7309,-4.7309,-4.7309,-4.7309,-4.7309,-4.7309,-4.7309,-4.7309,-4.7309,-4.7309,-4.7309,-4.7309,-4.7309,-4.7309,-4.7309,-4.7309,-4.7309,-4.7309,-4.7309,-4.7309,-4.7309,-4.7309,-4.7309,-4.7309,-4.7309,-4.7309,-4.713,-4.692,-4.6711,-4.6262,-4.6232,-4.6711,-4.6262,-4.6262,-4.6711,-4.6441,-4.6561,-4.701,-4.7219,-4.7309,-4.0388,-4.0072,-4.0197,-4.2947,-4.4254,-4.5446,-4.7633,-4.8434,-4.8745,-4.8749,-4.8698,-4.8621,-4.8435,-4.8352,0.0,0.0,0.0,0.0,0.0,0.0,0.0,0.0,0.0,0.0,0.0,0.0,0.0,0.0,0.0,0.0,0.0,0.0,0.0,0.0,-5.3518,-5.3518,-5.3518,-5.3518,-5.3518,-5.3518,-5.3518,-5.3518,-5.3518,-5.3518,-5.3518,-5.3518,-5.3518,-5.3518,-5.345,-5.28,-5.1921,-5.093,-5.0288,-4.9536,-4.8718,-4.8115,-4.7636,-4.7309,-4.7309,-4.7309,-4.7309,-4.7309,-4.7309,-4.7309,-4.7309,-4.7309,-4.7309,-4.7309,-4.7309,-4.7309,-4.7309,-4.7309,-4.7309,-4.7309,-4.7309,-4.7309,-4.7309,-4.7309,-4.7309,-4.7309,-4.7309,-4.7309,-4.7309,-4.7309,-4.7309,-4.7309,-4.7309,-4.7309,-4.7309,-4.7309,-4.7309,-4.7309,-4.7309,-4.7309,-4.7309,-4.7309,-4.7309,-4.7309,-4.7309,-4.7309,-4.7309,-4.692,-4.689,-4.7309,-4.692,-4.692,-4.7309,-4.692,-4.692,-4.7309,-4.7309,-4.7309,-4.0214,-3.9856,-4.0037,-4.3541,-4.5419,-4.6962,-4.8938,-5.0621,-5.1382,-5.0156,0.0,-4.9449,-4.9928,0.0,0.0,0.0,0.0,0.0,0.0,0.0,0.0,0.0,0.0,0.0,0.0,0.0,0.0,0.0,0.0,0.0,0.0,0.0,0.0,0.0,-5.3382,-5.3382,-5.3382,-5.3382,-5.345,0.0,-5.3518,-5.3518,-5.3518,-5.3518,-5.3518,-5.3518,-5.3518,-5.3518,-5.3518,-5.3518,-5.2904,-5.2029,-5.1849,-5.0595,-4.8891,-4.8759,-4.8072,-4.7309,-4.7309,-4.7309,-4.7309,-4.7309,-4.7309,-4.7309,-4.7309,-4.7309,-4.7309,-4.7309,-4.7309,-4.7309,-4.7309,-4.7309,-4.7309,-4.7309,-4.7309,-4.7309,-4.7309,-4.7309,-4.7309,-4.7309,-4.7309,-4.7309,-4.7309,-4.7309,-4.7309,-4.7309,-4.7309,-4.7309,-4.7309,-4.7309,-4.7309,-4.7309,-4.7309,-4.7309,-4.7309,-4.7309,-4.7309,-4.7309,-4.7309,-4.7309,-4.7309,-4.7309,-4.7309,-4.7309,-4.7309,-4.7309,-4.7309,-4.7309,-4.7309,-4.7309,-4.7309,-4.7309,-3.9819,-4.0217,-4.1343,-4.4598,-4.8649,-5.1665,-5.1065,-5.1645,-5.1429,-4.819,-4.848,-4.9119,0.0,0.0,0.0,0.0,0.0,0.0,0.0,0.0,0.0,0.0,0.0,0.0,0.0,0.0,0.0,0.0,0.0,0.0,0.0,0.0,0.0,-5.257,-5.257,-5.257,-5.257,-5.257,-5.2875,0.0,-5.3518,-5.3518,-5.3518,-5.3518,-5.3518,-5.3518,-5.3518,-5.3518,-5.3518,-5.3518,-5.3348,-5.2973,-5.1373,-5.0435,-4.9852,-4.824,-4.7495,-4.7309,-4.7309,-4.7309,-4.7309,-4.7309,-4.7309,-4.7309,-4.7309,-4.7309,-4.7309,-4.7309,-4.7309,-4.7309,-4.7309,-4.7309,-4.7309,-4.7309,-4.7309,-4.7309,-4.7309,-4.7309,-4.7309,-4.7309,-4.7309,-4.7309,-4.7309,-4.7309,-4.7309,-4.7309,-4.7309,-4.7309,-4.7309,-4.7309,-4.7309,-4.7309,-4.7309,-4.7309,-4.7309,-4.7309,-4.7309,-4.7309,-4.7309,-4.7309,-4.7309,-4.7309,-4.7309,-4.7309,-4.7309,-4.7309,-4.7309,-4.7309,-4.7309,-4.7309,-4.7309,-4.7309,-3.968,-4.0422,-4.2105,-4.6249,-5.0135,-5.2706,-5.1839,-5.1579,-5.0794,-4.8258,-4.8596,0.0,0.0,0.0,0.0,0.0,0.0,0.0,0.0,0.0,0.0,0.0,0.0,0.0,0.0,0.0,0.0,0.0,0.0,0.0,0.0,-5.2604,-5.2232,-5.1792,-5.1792,-5.1961,-5.23,-5.23,-5.2706,-5.3518,-5.3518,-5.3518,-5.3518,-5.3518,-5.3518,-5.3518,-5.3518,-5.3518,-5.3518,-5.3518,-5.3518,-5.3348,-5.174,-5.0817,-5.0204,-4.8625,-4.7722,-4.7309,-4.7309,-4.7309,-4.7309,-4.7309,-4.7309,-4.7309,-4.7309,-4.7309,-4.7309,-4.7309,-4.7309,-4.7309,-4.7309,-4.7309,-4.7309,-4.7309,-4.7309,-4.7309,-4.7309,-4.7309,-4.7309,-4.7309,-4.7309,-4.7309,-4.7309,-4.7309,-4.7309,-4.7309,-4.7309,-4.7309,-4.7309,-4.7309,-4.7309,-4.7309,-4.7309,-4.7309,-4.7309,-4.7309,-4.7309,-4.7309,-4.7309,-4.7309,-4.7309,-4.7309,-4.7309,-4.7309,-4.7309,-4.7309,-4.7309,-4.7309,-4.7309,-4.7309,-4.7309,-4.7309,-3.9749,-4.083,-4.2929,-4.7631,-5.0371,-5.1866,-5.1572,-5.076,-4.9737,-4.8671,0.0,0.0,0.0,0.0,0.0,0.0,0.0,0.0,0.0,0.0,0.0,0.0,0.0,0.0,0.0,0.0,0.0,0.0,0.0,0.0,-5.2131,-5.1555,-5.115,-5.1014,-5.1014,-5.1319,-5.1894,-5.1928,-5.2334,-5.3112,-5.3247,-5.3382,-5.3518,-5.3518,-5.3518,-5.3518,-5.3518,-5.3518,-5.3518,-5.3518,-5.3518,-5.3382,-5.2312,-5.1377,-5.0512,-4.9256,-4.8252,-4.7538,-4.7352,-4.7309,-4.7309,-4.7309,-4.7309,-4.7309,-4.7309,-4.7309,-4.7309,-4.7309,-4.7309,-4.7309,-4.7309,-4.7309,-4.7309,-4.7309,-4.7309,-4.7309,-4.7309,-4.7309,-4.7309,-4.7309,-4.7309,-4.7309,-4.7309,-4.7309,-4.7309,-4.7309,-4.7309,-4.7309,-4.7309,-4.7309,-4.7309,-4.7309,-4.7309,-4.7309,-4.7309,-4.7309,-4.7309,-4.7309,-4.7309,-4.7309,-4.7309,-4.7309,-4.7369,-4.7489,-4.7369,-4.7369,-4.7489,-4.7369,-4.7369,-4.7489,-4.7369,-4.7309,-3.9858,-4.2004,-4.4756,-4.7394,-4.9221,-5.0316,0.0,0.0,-4.8274,0.0,0.0,0.0,0.0,0.0,0.0,0.0,0.0,0.0,0.0,0.0,0.0,0.0,0.0,0.0,0.0,0.0,0.0,0.0,0.0,0.0,-5.1352,-5.1219,-5.0913,-5.027,-5.0236,-5.027,-5.0371,-5.0371,-5.0777,-5.1489,-5.2164,-5.2841,-5.3518,-5.3518,-5.3518,-5.3518,-5.3518,-5.3518,-5.3518,-5.3518,-5.3518,-5.3382,-5.2312,-5.1813,-5.1451,-4.9536,-4.8718,-4.8501,-4.7624,-4.7309,-4.7309,-4.7309,-4.7309,-4.7309,-4.7309,-4.7309,-4.7309,-4.7309,-4.7309,-4.7309,-4.7309,-4.7309,-4.7309,-4.7309,-4.7309,-4.7309,-4.7309,-4.7309,-4.7309,-4.7309,-4.7309,-4.7309,-4.7309,-4.7309,-4.7309,-4.7309,-4.7309,-4.7309,-4.7309,-4.7309,-4.7309,-4.7309,-4.7309,-4.7309,-4.7309,-4.7309,-4.7309,-4.7309,-4.7309,-4.7309,-4.7309,-4.7309,-4.7578,-4.8147,-4.7608,-4.7578,-4.8147,-4.7578,-4.7608,-4.8147,-4.7578,-4.7309,-4.0492,-4.1929,-4.3842,-4.6109,-4.78,-4.9029,-4.9756,0.0,-4.8174,0.0,0.0,0.0,0.0,0.0,0.0,0.0,0.0,0.0,0.0,0.0,0.0,0.0,0.0,0.0,0.0,0.0,0.0,0.0,0.0,-5.0574,-5.0574,-5.0202,-4.983,-4.9492,-4.9492,-4.9661,-5.0101,-5.0101,-5.0473,-5.1217,-5.1961,-5.2503,-5.2841,-5.3281,-5.3518,-5.3518,-5.3518,-5.3518,-5.3518,-5.3518,-5.3518,-5.345,-5.2973,-5.2418,-5.1813,-5.086,-4.9781,-4.8759,-4.8293,-4.7764,-4.7309,-4.7309,-4.7309,-4.7309,-4.7309,-4.7309,-4.7309,-4.7309,-4.7309,-4.7309,-4.7309,-4.7309,-4.7309,-4.7309,-4.7309,-4.7309,-4.7309,-4.7309,-4.7309,-4.7309,-4.7309,-4.7309,-4.7309,-4.7309,-4.7309,-4.7309,-4.7309,-4.7309,-4.7309,-4.7309,-4.7309,-4.7309,-4.7309,-4.7309,-4.7309,-4.7309,-4.7309,-4.7309,-4.7309,-4.7309,-4.7309,-4.7668,-4.7997,-4.8267,-4.7997,-4.8177,-4.888,-4.8536,-4.8566,-4.8805,-4.8147,-4.8057,-4.0934,-4.168,-4.2765,-4.4236,-4.5862,-4.739,0.0,0.0,0.0,0.0,0.0,0.0,0.0,0.0,0.0,0.0,0.0,0.0,0.0,0.0,0.0,0.0,0.0,0.0,0.0,0.0,0.0,0.0,0.0,-4.983,-4.983,-4.9289,-4.9018,-4.9018,-4.9018,-4.9255,-4.9796,-4.983,-5.0202,-5.0947,-5.1488,-5.1826,-5.2063,-5.2638,-5.2942,-5.2942,-5.3112,-5.3213,-5.3213,-5.3213,-5.3315,-5.3518,-5.3518,-5.3008,-5.2277,-5.1993,-5.0898,-4.9575,-4.9296,-4.8718,-4.803,-4.7764,-4.7679,-4.7636,-4.7396,-4.7309,-4.7309,-4.7309,-4.7309,-4.7309,-4.7309,-4.7309,-4.7309,-4.7309,-4.7309,-4.7309,-4.7309,-4.7309,-4.7309,-4.7309,-4.7309,-4.7309,-4.7309,-4.7309,-4.7309,-4.7309,-4.7459,-4.7549,-4.7549,-4.7549,-4.7549,-4.7549,-4.7399,-4.7309,-4.7309,-4.7459,-4.7549,-4.7549,-4.7698,-4.7818,-4.7818,-4.8267,-4.8626,-4.8775,-4.8775,-4.9015,-4.9523,-4.9389,-4.9389,-4.9494,-4.8835,-4.8805,-4.0675,-4.1587,0.0,-4.181,-4.3314,-4.4952,0.0,0.0,0.0,0.0,0.0,0.0,0.0,0.0,0.0,0.0,0.0,0.0,0.0,0.0,0.0,0.0,0.0,0.0,0.0,0.0,0.0,0.0,0.0,-4.9052,-4.9052,-4.9018,-4.9018,-4.9018,-4.9018,-4.9018,-4.9052,-4.9052,-4.9424,-5.0135,-5.0202,-5.0574,-5.1285,-5.1286,-5.132,-5.1386,-5.2063,-5.2367,-5.2367,-5.2367,-5.2807,-5.3518,-5.3518,-5.3484,-5.3314,-5.2277,-5.1849,-5.1598,-5.0665,-5.0281,-5.0048,-4.9054,-4.8718,-4.8553,-4.7581,-4.7309,-4.7309,-4.7309,-4.7309,-4.7309,-4.7309,-4.7309,-4.7309,-4.7309,-4.7309,-4.7309,-4.7309,-4.7309,-4.7309,-4.7309,-4.7309,-4.7309,-4.7309,-4.7309,-4.7309,-4.7309,-4.7848,-4.8237,-4.8237,-4.8237,-4.8237,-4.8237,-4.7668,-4.7309,-4.7309,-4.7878,-4.8237,-4.8237,-4.8805,-4.9209,-4.9209,-4.9239,-4.9523,-5.0076,-5.0076,-5.0106,-5.0136,-4.9583,-4.9583,-5.0136,-4.9523,-4.9269,-4.1348,0.0,0.0,-4.1495,-4.2736,-4.3973,-4.3726,0.0,0.0,0.0,0.0,0.0,0.0,0.0,0.0,0.0,0.0,0.0,0.0,0.0,0.0,0.0,0.0,0.0,0.0,0.0,0.0,0.0,0.0,0.0,-4.9018,-4.9018,-4.9018,-4.9018,-4.9018,-4.8702,-4.8129,-4.8129,-4.8228,-4.8495,-4.9577,-5.0236,-5.0507,-5.098,-5.0947,-5.0507,-5.0777,-5.142,-5.23,-5.23,-5.2773,-5.3518,-5.3518,-5.3518,-5.345,-5.3076,-5.2487,-5.1849,-5.1488,-5.0512,-4.9296,-4.8891,-4.8377,-4.7764,-4.7409,-4.7309,-4.7309,-4.7309,-4.7309,-4.7309,-4.7309,-4.7309,-4.7309,-4.7309,-4.7309,-4.7309,-4.7309,-4.7309,-4.7309,-4.7309,-4.7309,-4.7309,-4.7309,-4.7309,-4.7309,-4.7309,-4.7878,-4.8147,-4.7698,-4.8027,-4.8117,-4.7698,-4.7429,-4.7489,-4.7908,-4.8147,-4.8476,-4.894,-4.9179,-4.9299,-4.9299,-4.9673,-5.0002,-5.0196,-5.0614,-5.0823,-5.0823,-5.0631,-5.0631,-5.0794,-5.0182,-5.0122,-4.2185,0.0,0.0,0.0,-4.2083,-4.2856,-4.2354,0.0,0.0,0.0,0.0,0.0,0.0,0.0,0.0,0.0,0.0,0.0,0.0,0.0,0.0,0.0,0.0,0.0,0.0,0.0,0.0,0.0,0.0,0.0,-4.8274,-4.8274,-4.8376,-4.8612,-4.857,-4.8225,-4.7638,-4.7273,-4.7273,-4.7638,-4.8758,-4.9443,-4.9729,-5.0236,-5.0202,-4.9729,-4.9729,-5.0574,-5.1928,-5.1928,-5.257,-5.3518,-5.3518,-5.3518,-5.3518,-5.3518,-5.3076,-5.2418,-5.2418,-5.1525,-5.0281,-4.9575,-4.8882,-4.8198,-4.7495,-4.7309,-4.7309,-4.7309,-4.7538,-4.7722,-4.7366,-4.7459,-4.7638,-4.7638,-4.7818,-4.7967,-4.7967,-4.7788,-4.7578,-4.7339,-4.7668,-4.7908,-4.7668,-4.7818,-4.7967,-4.7967,-4.8506,-4.8775,-4.8356,-4.8656,-4.8775,-4.8327,-4.8087,-4.8147,-4.8566,-4.8805,-4.9134,-4.9553,-4.9793,-4.9912,-4.9912,-5.0331,-5.0524,-5.0524,-5.0943,-5.1229,-5.1229,-5.1229,-5.1229,-5.1199,-5.0734,-5.0764,0.0,0.0,0.0,0.0,0.0,0.0,-4.0508,0.0,0.0,0.0,0.0,0.0,0.0,0.0,0.0,0.0,0.0,0.0,0.0,0.0,0.0,0.0,0.0,0.0,0.0,0.0,0.0,0.0,0.0,-4.6756,-4.6786,-4.6786,-4.7124,-4.7838,-4.7632,-4.7539,-4.7539,-4.6627,-4.6592,-4.7506,-4.7572,-4.8096,-4.8954,-4.9018,-4.9018,-4.9018,-4.9018,-4.983,-5.1183,-5.1217,-5.2131,-5.3518,-5.3518,-5.3518,-5.3518,-5.3518,-5.3518,-5.3518,-5.3518,-5.3484,-5.311,-5.1075,-5.0358,-4.997,-4.7934,-4.7309,-4.7309,-4.7352,-4.8072,-4.8594,-4.7666,-4.7875,-4.8341,-4.8385,-4.885,-4.9299,-4.9299,-4.8775,-4.8147,-4.7489,-4.8386,-4.912,-4.8416,-4.888,-4.9299,-4.9299,-4.9823,-5.0196,-5.0166,-5.0196,-5.0196,-5.0166,-4.9643,-4.9329,-4.9329,-4.9883,-5.0196,-5.0226,-5.0823,-5.1229,-5.1229,-5.1229,-5.1229,-5.1229,-5.1229,-5.1229,-5.1259,-5.1229,-5.1229,-5.1229,-5.1229,-5.1229,-4.3791,0.0,0.0,0.0,0.0,0.0,-3.984,-4.0671,0.0,0.0,0.0,0.0,0.0,0.0,0.0,0.0,0.0,0.0,0.0,0.0,0.0,0.0,0.0,0.0,0.0,0.0,0.0,0.0,-4.5713,-4.6115,-4.6756,-4.6786,-4.6887,-4.709,-4.6225,-4.5782,-4.5782,-4.5381,-4.5337,-4.5561,-4.6968,-4.7737,-4.7998,-4.8671,-4.9018,-4.9018,-4.9018,-4.9526,-5.0439,-5.098,-5.2131,-5.3518,-5.3518,-5.3518,-5.3518,-5.3518,-5.3518,-5.3518,-5.3518,-5.2973,-5.2134,-5.0817,-4.9891,-4.9004,-4.7679,-4.7309,-4.7452,-4.8168,-4.8594,-4.9015,-5.0084,-4.9874,-4.9524,-5.0058,-4.9711,-4.9299,-4.9299,-4.9494,-4.9494,-4.8865,-4.906,-4.9239,-4.906,-4.9179,-4.9299,-4.9299,-4.9823,-5.0016,-4.9613,-4.9942,-5.0016,-4.9583,-4.9419,-4.9464,-4.9912,-5.0076,-5.0405,-5.0853,-5.1109,-5.1229,-5.1229,-5.1229,-5.1229,-5.1229,-5.1229,-5.1439,-5.1917,-5.1439,-5.1229,-5.1229,-5.1229,-5.1468,0.0,0.0,0.0,0.0,0.0,0.0,-4.034,-4.0688,-4.0905,0.0,0.0,0.0,0.0,0.0,0.0,0.0,0.0,0.0,0.0,0.0,0.0,0.0,0.0,0.0,0.0,0.0,0.0,-4.3009,-4.4033,-4.4973,-4.5843,-4.6177,-4.6346,-4.6346,-4.5277,-4.4699,-4.4699,-4.3831,-4.3721,-4.4415,-4.5897,-4.6945,-4.7605,-4.8576,-4.9018,-4.9018,-4.9018,-4.9424,-5.0135,-5.0574,-5.1623,-5.3044,-5.3382,-5.3518,-5.3518,-5.3518,-5.3518,-5.3518,-5.3518,-5.311,-5.2312,-5.0855,-5.0281,-4.9742,-4.7892,-4.7624,-4.7946,-4.8157,-4.847,-4.9331,-5.154,-5.1526,-5.1099,-5.1832,-5.1376,-5.0772,-5.0772,-5.0698,-5.0361,-4.9479,-4.9748,-5.0002,-4.9703,-4.9912,-5.0092,-5.0092,-5.0391,-5.0511,-5.0122,-5.0421,-5.0511,-5.0122,-5.0092,-5.0242,-5.0554,-5.0614,-5.0764,-5.1199,-5.1229,-5.1229,-5.1229,-5.1229,-5.1349,-5.1618,-5.1618,-5.1947,-5.2606,-5.1678,-5.1349,-5.1618,-5.1618,-5.1977,0.0,0.0,0.0,0.0,0.0,0.0,-4.1342,-4.0849,-4.0011,0.0,0.0,0.0,0.0,0.0,0.0,0.0,0.0,0.0,0.0,0.0,0.0,0.0,0.0,0.0,0.0,-3.8635,-3.9508,-3.9577,-4.175,-4.3448,-4.4288,-4.4941,-4.5346,-4.5466,-4.4398,-4.3896,-4.3997,-4.2266,-4.2145,-4.3648,-4.4626,-4.5846,-4.7306,-4.8257,-4.8767,-4.8829,-4.8829,-4.9263,-4.9965,-5.0067,-5.0913,-5.2266,-5.3078,-5.3382,-5.3382,-5.3484,-5.3518,-5.3518,-5.3518,-5.3518,-5.3144,-5.1075,-5.1005,-5.1192,-4.8198,-4.7988,-4.8677,-4.8079,-4.8552,-4.9939,-5.2679,-5.3101,-5.2966,-5.3713,-5.3471,-5.3077,-5.2945,-5.2109,-5.1009,-4.9748,-5.0421,-5.0973,-5.0405,-5.084,-5.1229,-5.1229,-5.1229,-5.1276,-5.1386,-5.1246,-5.1246,-5.1386,-5.1246,-5.1229,-5.1229,-5.1229,-5.1229,-5.1229,-5.1229,-5.1259,-5.1319,-5.1319,-5.1648,-5.2306,-5.2366,-5.2665,-5.3174,-5.2007,-5.1738,-5.2306,-5.2306,-5.2665,0.0,0.0,0.0,0.0,0.0,0.0,-4.073,-4.0935,-4.095,0.0,0.0,0.0,0.0,0.0,0.0,0.0,0.0,0.0,0.0,0.0,0.0,0.0,0.0,0.0,0.0,-3.7665,-3.8132,-3.8862,-4.0557,-4.1948,-4.2699,-4.2846,-4.3189,-4.3849,-4.2751,-4.2488,-4.3228,-4.1985,-4.1828,-4.2658,-4.3611,-4.4538,-4.5374,-4.6346,-4.7172,-4.7868,-4.7868,-4.8356,-4.9255,-4.9864,-5.0608,-5.1488,-5.2232,-5.2536,-5.2604,-5.3281,-5.3518,-5.3518,-5.3518,-5.3518,-5.3144,-5.1075,-5.0512,-5.0281,-4.8019,-4.7988,-4.9259,-5.1308,-5.2005,-5.2782,-5.5384,-5.5339,-5.4776,-5.5536,-5.4955,-5.4041,-5.3121,-5.2754,-5.2244,-5.1056,-5.105,-5.1169,-5.105,-5.1139,-5.1229,-5.1229,-5.1229,-5.1496,-5.244,-5.1773,-5.1542,-5.2485,-5.1773,-5.1229,-5.1229,-5.1229,-5.1229,-5.1229,-5.1229,-5.1439,-5.1977,-5.2007,-5.2306,-5.2965,-5.3533,-5.3593,-5.3174,-5.2935,-5.2875,-5.2995,-5.2995,-5.3354,0.0,0.0,0.0,-4.3662,0.0,0.0,0.0,-4.0843,-4.0248,0.0,0.0,0.0,0.0,0.0,0.0,0.0,0.0,0.0,0.0,0.0,0.0,0.0,0.0,0.0,0.0,-3.6746,-3.7449,-3.8613,-3.9871,-4.0881,-4.171,-4.2078,-4.2278,-4.2306,-4.1659,-4.1329,-4.133,-4.0731,-4.0905,-4.1901,-4.2861,-4.3826,-4.4849,-4.5778,-4.6454,-4.6934,-4.7406,-4.7868,-4.8354,-4.9234,-4.9763,-5.027,-5.1725,-5.23,-5.2401,-5.3213,-5.3518,-5.3518,-5.3518,-5.3144,-5.2522,-5.1484,-5.1155,-5.0855,-4.9327,-4.8841,-4.9259,-5.1617,-5.2232,-5.2969,-5.6001,-5.6404,-5.6137,-5.6872,-5.6204,-5.5215,-5.4681,-5.4126,-5.3396,-5.226,-5.2063,-5.1865,-5.1293,-5.1229,-5.1229,-5.1229,-5.1681,-5.226,-5.2812,-5.2395,-5.226,-5.2812,-5.188,-5.1229,-5.1229,-5.1229,-5.1349,-5.1678,-5.1708,-5.2007,-5.2665,-5.2695,-5.2995,-5.3683,-5.4371,-5.4521,-5.4192,-5.4192,-5.4012,-5.3683,-5.3683,-5.4042,0.0,0.0,0.0,0.0,0.0,-4.2172,0.0,0.0,0.0,0.0,0.0,0.0,0.0,0.0,0.0,0.0,0.0,0.0,0.0,0.0,0.0,0.0,0.0,0.0,0.0,-3.6157,-3.6874,-3.821,-3.8904,-3.9636,-4.0488,-4.1072,-4.1194,-4.0775,-4.054,-4.0193,-3.9701,-3.9511,-4.0068,-4.1422,-4.2151,-4.3223,-4.4548,-4.5306,-4.5746,-4.5961,-4.6902,-4.734,-4.7406,-4.8321,-4.8709,-4.8884,-5.1189,-5.2097,-5.2198,-5.3145,-5.3518,-5.3518,-5.3518,-5.2939,-5.2137,-5.1957,-5.1634,-5.1229,-5.0817,-4.9749,-4.9182,-5.1342,-5.1788,-5.2363,-5.5799,-5.6679,-5.692,-5.771,-5.7222,-5.6437,-5.6243,-5.5498,-5.4557,-5.3439,-5.3033,-5.253,-5.1386,-5.1229,-5.1246,-5.1496,-5.2305,-5.3077,-5.3483,-5.3352,-5.3253,-5.3253,-5.2291,-5.1613,-5.1409,-5.1528,-5.1828,-5.2366,-5.2396,-5.2695,-5.3354,-5.3503,-5.3832,-5.4371,-5.491,-5.5179,-5.5179,-5.5179,-5.491,-5.4401,-5.4401,-5.467,0.0,0.0,0.0,0.0,-4.3525,0.0,0.0,0.0,0.0,0.0,0.0,0.0,0.0,0.0,0.0,0.0,0.0,0.0,0.0,0.0,0.0,0.0,0.0,0.0,0.0,0.0,-3.5965,-3.6786,-3.694,-3.7304,-3.8133,-3.8174,-3.846,-3.9151,-3.8853,-3.899,-3.9701,-3.9511,-4.0068,-4.1422,-4.1535,-4.2234,-4.3488,-4.3576,-4.4128,-4.5005,-4.5925,-4.6349,-4.6419,-4.7373,-4.7632,-4.7658,-5.0293,-5.132,-5.1522,-5.2976,-5.3518,-5.3518,-5.3518,-5.3416,-5.3144,-5.2205,-5.0633,-4.9464,-5.1229,-5.0144,-4.9108,-5.2708,-5.2837,-5.2513,-5.549,-5.6299,-5.6563,-5.7665,-5.7808,-5.7409,-5.6398,-5.6126,-5.573,-5.463,-5.3569,-5.253,-5.1386,-5.1229,-5.1542,-5.2575,-5.2812,-5.3613,-5.5578,-5.497,-5.4421,-5.4421,-5.3915,-5.3147,-5.2162,-5.2606,-5.2995,-5.3054,-5.3084,-5.3384,-5.4072,-5.464,-5.4999,-5.5089,-5.5149,-5.5179,-5.5179,-5.5179,-5.5149,-5.5089,-5.5089,-5.5119,0.0,0.0,0.0,0.0,0.0,0.0,-4.2274,0.0,-4.1138,0.0,0.0,0.0,0.0,0.0,0.0,0.0,0.0,0.0,0.0,0.0,0.0,0.0,0.0,0.0,0.0,0.0,0.0,0.0,0.0,-3.8173,-3.9033,-3.8229,-3.7864,-3.812,-3.8388,-3.8659,-3.8922,-3.9655,-4.0457,-4.1422,-4.1811,-4.2432,-4.329,-4.329,-4.3527,-4.4004,-4.4968,-4.5379,-4.5452,-4.6384,-4.6974,-4.7325,-4.8893,-5.0114,-5.116,-5.2876,-5.3518,-5.3518,-5.3518,-5.311,-5.2522,-5.2029,-5.1303,-5.0633,-5.093,-5.0168,-4.9597,-5.1647,-5.2083,-5.2422,-5.4686,-5.5256,-5.5571,-5.6663,-5.6925,-5.6963,-5.7151,-5.7185,-5.6887,-5.577,-5.5134,-5.4473,-5.3352,-5.262,-5.235,-5.2812,-5.3967,-5.5336,-5.6718,-5.6505,-5.6385,-5.6817,-5.5455,-5.4329,-5.3881,-5.3429,-5.3354,-5.3743,-5.4491,-5.5059,-5.5329,-5.5598,-5.5598,-5.5209,-5.5179,-5.5179,-5.5179,-5.5568,-5.5748,-5.5748,-5.5359,-5.5179,-4.3456,0.0,0.0,0.0,0.0,0.0,0.0,0.0,0.0,0.0,0.0,0.0,0.0,0.0,0.0,0.0,0.0,0.0,0.0,0.0,0.0,0.0,0.0,0.0,0.0,0.0,0.0,0.0,0.0,0.0,-3.9308,-3.8485,-3.7776,-3.7304,-3.7947,-3.8318,-3.8392,-3.9738,-4.0726,-4.1384,-4.2081,-4.2701,-4.329,-4.329,-4.329,-4.3369,-4.4542,-4.4901,-4.4749,-4.585,-4.6576,-4.7045,-4.7858,-4.9026,-5.0477,-5.2042,-5.2835,-5.3076,-5.3076,-5.2732,-5.2241,-5.1667,-5.1704,-5.1773,-5.0928,-5.0371,-5.0224,-5.0917,-5.1413,-5.2061,-5.3701,-5.4126,-5.4421,-5.5498,-5.6008,-5.6398,-5.726,-5.7665,-5.7665,-5.6849,-5.6398,-5.6034,-5.5466,-5.4412,-5.3765,-5.4069,-5.5668,-5.7146,-5.8024,-5.8163,-5.821,-5.85,-5.6861,-5.5638,-5.5317,-5.4339,-5.4012,-5.47,-5.5658,-5.6256,-5.6406,-5.6308,-5.5957,-5.5478,-5.5269,-5.5269,-5.5478,-5.5927,-5.6308,-5.6406,-5.5927,-5.5628,0.0,0.0,0.0,-4.1591,0.0,0.0,0.0,0.0,-4.1802,0.0,0.0,0.0,0.0,0.0,0.0,0.0,0.0,0.0,0.0,0.0,0.0,0.0,0.0,0.0,0.0,0.0,0.0,0.0,0.0,0.0,-3.7683,-3.8209,-3.7945,-3.6573,-3.7109,-3.7768,-3.8392,-3.9738,-4.0726,-4.1384,-4.2081,-4.2701,-4.329,-4.329,-4.329,-4.3399,-4.4964,-4.5153,-4.4438,-4.6023,-4.6528,-4.6401,-4.7425,-4.823,-4.8982,-5.0087,-5.1117,-5.1957,-5.1957,-5.2592,-5.311,-5.1112,-5.1117,-5.1802,-5.1469,-5.1096,-5.0894,-5.1605,-5.1515,-5.1496,-5.2634,-5.2945,-5.3253,-5.4379,-5.5417,-5.6204,-5.6243,-5.7114,-5.7881,-5.7845,-5.6963,-5.6435,-5.7192,-5.6358,-5.595,-5.7084,-5.7917,-5.882,-5.9895,-6.0009,-5.9626,-5.8613,-5.7957,-5.719,-5.6078,-5.5493,-5.5418,-5.6128,-5.6188,-5.6436,-5.7034,-5.6496,-5.6218,-5.6188,-5.5508,-5.5508,-5.6188,-5.6218,-5.6466,-5.7064,-5.7034,-5.6705,0.0,0.0,-4.2402,-4.1655,0.0,0.0,0.0,0.0,0.0,0.0,0.0,0.0,0.0,0.0,0.0,0.0,0.0,0.0,0.0,0.0,0.0,0.0,0.0,0.0,0.0,0.0,0.0,0.0,0.0,0.0,0.0,-3.9026,-3.8091,-3.7139,-3.8153,-3.905,-3.9709,-4.1025,-4.1841,-4.2081,-4.2701,-4.312,-4.329,-4.329,-4.329,-4.3359,-4.4348,-4.4609,-4.4377,-4.5343,-4.5955,-4.6322,-4.6641,-4.7201,-4.8115,-5.0512,-5.1631,-5.1993,-5.2697,-5.3179,-5.3382,-5.2696,-5.2536,-5.2462,-5.163,-5.1442,-5.1426,-5.0893,-5.0968,-5.1293,-5.1681,-5.1773,-5.2063,-5.3209,-5.3742,-5.4221,-5.497,-5.6008,-5.6778,-5.6778,-5.7076,-5.757,-5.8341,-5.8536,-5.8488,-5.8203,-5.8952,-5.9866,-6.0786,-6.0892,-6.0946,-6.1065,-6.0216,-5.9166,-5.7965,-5.6225,-5.5658,-5.6705,-5.7163,-5.7294,-5.7116,-5.7304,-5.6807,-5.5589,-5.5718,-5.5957,-5.6218,-5.7034,-5.7573,-5.7782,-5.8231,-5.7842,-4.0817,-4.1255,0.0,-4.0878,-4.2062,0.0,-4.2656,0.0,0.0,0.0,0.0,0.0,0.0,0.0,0.0,0.0,0.0,0.0,0.0,-3.6516,0.0,0.0,0.0,0.0,0.0,0.0,0.0,0.0,0.0,0.0,0.0,0.0,-3.9005,-3.7469,-3.8686,-3.9738,-4.0397,-4.1752,-4.241,-4.241,-4.303,-4.329,-4.329,-4.329,-4.3409,-4.3678,-4.4377,-4.4796,-4.5065,-4.5723,-4.6262,-4.6681,-4.6681,-4.692,-4.7538,-4.9536,-5.0741,-5.1484,-5.217,-5.287,-5.3382,-5.2661,-5.2666,-5.2749,-5.1542,-5.1487,-5.1647,-5.0532,-5.0674,-5.1169,-5.0883,-5.1003,-5.1446,-5.2414,-5.2959,-5.3512,-5.4478,-5.5577,-5.6409,-5.6843,-5.7537,-5.8413,-5.9599,-6.0216,-6.029,-5.9598,-6.0337,-6.1095,-6.1603,-6.167,-6.1873,-6.2347,-6.1317,-6.0118,-5.8902,-5.659,-5.6093,-5.8296,-5.8437,-5.8423,-5.8477,-5.8681,-5.8051,-5.6637,-5.6526,-5.6735,-5.7214,-5.7812,-5.8231,-5.8471,-5.8919,-5.865]},{"header":{"parameterUnit":"m.s-1","parameterCategory":1,"la1":30.6,"la2":29.2853,"lo1":-89.7004,"lo2":-87.6739,"dy":0.0162,"dx":0.0183,"nx":112,"ny":82,"refTime":"2024-03-14T06:00:00:Z","depth":0,"parameterNumber":3,"parameterNumberName":"V-component_of_WINDS"},"data":[0.0,0.0,0.0,0.0,0.0,0.0,0.0,0.0,0.0,0.0,0.0,0.0,0.0,0.0,0.0,0.0,0.0,0.0,0.0,0.0,0.0,0.0,0.0,0.0,0.0,0.0,0.0,0.0,0.0,0.0,0.0,0.0,0.0,0.0,0.0,0.0,0.0,0.0,0.0,0.0,0.0,0.0,0.0,0.0,0.0,0.0,0.0,0.0,0.0,0.0,0.0,0.0,0.0,0.0,0.0,0.0,0.0,0.0,0.0,0.0,0.0,0.0,0.0,0.0,0.0,0.0,0.0,0.0,0.0,0.0,0.0,0.0,0.0,0.0,0.0,0.0,0.0,0.0,0.0,0.0,0.0,0.0,0.0,0.0,0.0,0.0,0.0,0.0,0.0,0.0,0.0,2.6724,2.8623,2.9829,2.9905,2.9189,2.8369,2.754,0.0,0.0,0.0,0.0,0.0,0.0,0.0,0.0,0.0,0.0,0.0,0.0,0.0,0.0,0.0,0.0,0.0,0.0,0.0,0.0,0.0,0.0,0.0,0.0,0.0,0.0,0.0,0.0,0.0,0.0,0.0,0.0,0.0,0.0,0.0,0.0,0.0,0.0,0.0,0.0,0.0,0.0,0.0,0.0,0.0,0.0,0.0,0.0,0.0,0.0,0.0,0.0,0.0,0.0,0.0,0.0,0.0,0.0,0.0,0.0,0.0,0.0,0.0,0.0,0.0,0.0,0.0,0.0,0.0,0.0,0.0,0.0,0.0,0.0,0.0,0.0,0.0,0.0,0.0,0.0,0.0,0.0,0.0,0.0,0.0,0.0,0.0,0.0,0.0,0.0,0.0,0.0,0.0,0.0,0.0,0.0,0.0,0.0,0.0,0.0,0.0,0.0,0.0,0.0,2.6651,2.9036,2.959,2.998,3.0457,2.8815,2.792,2.82,0.0,0.0,0.0,0.0,0.0,0.0,0.0,0.0,0.0,0.0,0.0,0.0,0.0,0.0,0.0,0.0,0.0,0.0,0.0,0.0,0.0,0.0,0.0,0.0,0.0,0.0,0.0,0.0,0.0,0.0,0.0,0.0,0.0,0.0,0.0,0.0,0.0,0.0,0.0,0.0,0.0,0.0,0.0,0.0,0.0,0.0,0.0,0.0,0.0,0.0,0.0,0.0,0.0,0.0,0.0,0.0,0.0,0.0,0.0,0.0,0.0,0.0,0.0,0.0,0.0,0.0,0.0,0.0,0.0,0.0,0.0,0.0,0.0,0.0,0.0,0.0,0.0,0.0,0.0,0.0,0.0,0.0,0.0,0.0,0.0,0.0,0.0,0.0,0.0,0.0,0.0,0.0,0.0,0.0,0.0,0.0,0.0,0.0,0.0,0.0,0.0,0.0,0.0,2.6347,2.7299,2.9565,2.9804,2.9779,2.9704,2.8053,2.7378,2.8312,2.6618,0.0,0.0,0.0,0.0,0.0,0.0,0.0,0.0,0.0,0.0,0.0,0.0,0.0,0.0,0.0,0.0,0.0,0.0,0.0,0.0,0.0,0.0,0.0,0.0,0.0,0.0,0.0,0.0,0.0,0.0,0.0,0.0,0.0,0.0,0.0,0.0,0.0,0.0,0.0,0.0,0.0,0.0,0.0,0.0,0.0,0.0,0.0,0.0,0.0,0.0,0.0,0.0,0.0,0.0,0.0,0.0,0.0,0.0,0.0,0.0,0.0,0.0,0.0,0.0,0.0,0.0,0.0,0.0,0.0,0.0,0.0,0.0,0.0,0.0,0.0,0.0,0.0,0.0,0.0,0.0,0.0,0.0,0.0,0.0,0.0,0.0,0.0,0.0,0.0,0.0,0.0,0.0,0.0,0.0,0.0,0.0,0.0,0.0,0.0,0.0,0.0,0.0,2.7373,2.7742,2.959,2.9679,2.9402,2.8938,2.7555,2.7208,2.8239,2.6526,0.0,0.0,0.0,0.0,0.0,0.0,0.0,0.0,0.0,0.0,0.0,0.0,0.0,0.0,0.0,0.0,0.0,0.0,0.0,0.0,0.0,0.0,0.0,0.0,0.0,0.0,0.0,0.0,0.0,0.0,0.0,0.0,0.0,0.0,0.0,0.0,0.0,0.0,0.0,0.0,0.0,0.0,0.0,0.0,0.0,0.0,0.0,0.0,0.0,0.0,0.0,0.0,0.0,0.0,0.0,0.0,0.0,0.0,0.0,0.0,0.0,0.0,0.0,0.0,0.0,0.0,0.0,0.0,0.0,0.0,0.0,0.0,0.0,0.0,0.0,0.0,0.0,0.0,0.0,0.0,0.0,0.0,0.0,0.0,0.0,0.0,0.0,0.0,0.0,0.0,0.0,0.0,0.0,0.0,0.0,0.0,0.0,0.0,0.0,0.0,0.0,0.0,2.7815,2.8461,2.9654,2.9302,2.8938,2.8888,2.8052,2.7683,2.8108,2.7683,0.0,0.0,0.0,0.0,0.0,0.0,0.0,0.0,0.0,0.0,0.0,0.0,0.0,0.0,0.0,0.0,0.0,0.0,0.0,0.0,0.0,0.0,0.0,0.0,0.0,0.0,0.0,0.0,0.0,0.0,0.0,0.0,0.0,0.0,0.0,0.0,0.0,0.0,0.0,0.0,0.0,0.0,0.0,0.0,0.0,0.0,0.0,0.0,0.0,0.0,0.0,0.0,0.0,0.0,0.0,0.0,0.0,0.0,0.0,0.0,0.0,0.0,0.0,0.0,0.0,0.0,0.0,0.0,0.0,0.0,0.0,0.0,0.0,0.0,0.0,0.0,0.0,0.0,0.0,0.0,0.0,0.0,0.0,0.0,0.0,0.0,0.0,0.0,0.0,0.0,0.0,0.0,0.0,0.0,0.0,0.0,0.0,0.0,0.0,0.0,0.0,0.0,2.7631,2.8263,0.0,2.9277,2.8612,2.7971,2.6634,2.6468,2.7875,0.0,0.0,0.0,0.0,0.0,0.0,0.0,0.0,0.0,0.0,0.0,0.0,0.0,0.0,0.0,0.0,0.0,0.0,0.0,0.0,0.0,0.0,0.0,0.0,0.0,0.0,0.0,0.0,0.0,0.0,0.0,0.0,0.0,0.0,0.0,0.0,0.0,0.0,0.0,0.0,0.0,0.0,0.0,0.0,0.0,0.0,0.0,0.0,0.0,0.0,0.0,0.0,0.0,0.0,0.0,0.0,0.0,0.0,0.0,0.0,0.0,0.0,0.0,0.0,0.0,0.0,0.0,0.0,0.0,0.0,0.0,0.0,0.0,0.0,0.0,0.0,0.0,0.0,0.0,0.0,0.0,0.0,0.0,0.0,0.0,0.0,0.0,0.0,0.0,0.0,0.0,0.0,0.0,0.0,0.0,0.0,0.0,0.0,0.0,0.0,0.0,0.0,2.7115,2.7384,2.7953,0.0,2.885,2.8097,2.7344,2.6005,2.5987,2.794,0.0,0.0,0.0,0.0,0.0,0.0,0.0,0.0,0.0,0.0,0.0,0.0,0.0,0.0,0.0,0.0,0.0,0.0,0.0,0.0,0.0,0.0,0.0,0.0,0.0,0.0,0.0,0.0,0.0,0.0,0.0,0.0,0.0,0.0,0.0,0.0,0.0,0.0,0.0,0.0,0.0,0.0,0.0,0.0,0.0,0.0,0.0,0.0,0.0,0.0,0.0,0.0,0.0,0.0,0.0,0.0,0.0,0.0,0.0,0.0,0.0,0.0,0.0,0.0,0.0,0.0,0.0,0.0,0.0,0.0,0.0,0.0,0.0,0.0,0.0,0.0,0.0,0.0,0.0,0.0,0.0,0.0,0.0,0.0,0.0,0.0,0.0,0.0,0.0,0.0,0.0,0.0,0.0,0.0,0.0,0.0,0.0,0.0,0.0,0.0,0.0,0.0,2.6648,2.7055,2.7695,2.8762,2.7921,2.7268,2.7268,2.6409,2.6561,0.0,0.0,0.0,0.0,0.0,0.0,0.0,0.0,0.0,0.0,0.0,0.0,0.0,0.0,0.0,0.0,0.0,0.0,0.0,0.0,0.0,0.0,0.0,0.0,0.0,0.0,0.0,0.0,0.0,0.0,0.0,0.0,0.0,0.0,0.0,0.0,0.0,0.0,0.0,0.0,0.0,0.0,0.0,0.0,0.0,0.0,0.0,0.0,0.0,0.0,0.0,0.0,0.0,0.0,0.0,0.0,0.0,0.0,0.0,0.0,0.0,0.0,0.0,0.0,0.0,0.0,0.0,0.0,0.0,0.0,0.0,0.0,0.0,0.0,0.0,0.0,0.0,0.0,0.0,0.0,0.0,0.0,0.0,0.0,0.0,0.0,0.0,0.0,0.0,0.0,0.0,0.0,0.0,0.0,0.0,0.0,0.0,0.0,0.0,0.0,0.0,0.0,0.0,2.7358,2.7026,2.7153,2.8222,2.7369,2.6575,2.6138,2.4764,2.5102,2.7864,0.0,0.0,0.0,0.0,0.0,0.0,0.0,0.0,0.0,0.0,0.0,0.0,0.0,0.0,0.0,0.0,0.0,0.0,0.0,0.0,0.0,0.0,0.0,0.0,0.0,0.0,0.0,0.0,0.0,0.0,0.0,0.0,0.0,0.0,0.0,0.0,0.0,0.0,0.0,0.0,0.0,0.0,0.0,0.0,0.0,0.0,0.0,0.0,0.0,0.0,0.0,0.0,0.0,0.0,0.0,0.0,0.0,0.0,0.0,0.0,0.0,0.0,0.0,0.0,0.0,0.0,0.0,0.0,0.0,0.0,0.0,0.0,0.0,0.0,0.0,0.0,0.0,0.0,0.0,0.0,0.0,0.0,0.0,0.0,0.0,0.0,0.0,0.0,0.0,0.0,0.0,0.0,0.0,0.0,0.0,0.0,0.0,0.0,0.0,0.0,0.0,0.0,2.7069,2.6561,2.6577,2.7777,2.7097,2.6363,2.5774,2.4392,2.4494,2.6637,0.0,0.0,0.0,0.0,0.0,0.0,0.0,0.0,0.0,0.0,0.0,0.0,0.0,0.0,0.0,0.0,0.0,0.0,0.0,0.0,0.0,0.0,0.0,0.0,0.0,0.0,0.0,0.0,0.0,0.0,0.0,0.0,0.0,0.0,0.0,0.0,0.0,0.0,0.0,0.0,0.0,0.0,0.0,0.0,0.0,0.0,0.0,0.0,0.0,0.0,0.0,0.0,0.0,0.0,0.0,0.0,0.0,0.0,0.0,0.0,0.0,0.0,0.0,0.0,0.0,0.0,0.0,0.0,0.0,0.0,0.0,0.0,0.0,0.0,0.0,0.0,0.0,0.0,0.0,0.0,0.0,0.0,0.0,0.0,0.0,0.0,0.0,0.0,0.0,0.0,0.0,0.0,0.0,0.0,0.0,0.0,0.0,0.0,0.0,0.0,0.0,0.0,2.6407,2.5911,2.6036,2.7373,2.6973,2.6459,2.5972,2.5001,2.4688,2.5358,0.0,0.0,0.0,0.0,0.0,0.0,0.0,0.0,0.0,0.0,0.0,0.0,0.0,0.0,0.0,0.0,0.0,0.0,0.0,0.0,0.0,0.0,0.0,0.0,0.0,0.0,0.0,0.0,0.0,0.0,0.0,0.0,0.0,0.0,0.0,0.0,0.0,0.0,0.0,0.0,0.0,0.0,0.0,0.0,0.0,0.0,0.0,0.0,0.0,0.0,0.0,0.0,0.0,0.0,0.0,0.0,0.0,0.0,0.0,0.0,2.4831,0.0,0.0,0.0,0.0,0.0,0.0,0.0,0.0,0.0,0.0,0.0,0.0,0.0,0.0,0.0,0.0,0.0,0.0,0.0,0.0,0.0,0.0,0.0,0.0,0.0,0.0,0.0,0.0,0.0,0.0,0.0,0.0,0.0,0.0,0.0,0.0,0.0,0.0,0.0,0.0,0.0,2.8186,2.638,2.5452,2.6745,2.6401,2.61,2.6136,2.5543,2.5843,2.7448,2.6876,0.0,0.0,0.0,0.0,0.0,0.0,0.0,0.0,0.0,0.0,0.0,0.0,0.0,0.0,0.0,0.0,0.0,0.0,0.0,0.0,0.0,0.0,0.0,0.0,0.0,0.0,0.0,0.0,0.0,0.0,0.0,0.0,0.0,0.0,0.0,0.0,0.0,0.0,0.0,0.0,0.0,0.0,0.0,0.0,0.0,0.0,0.0,0.0,0.0,0.0,0.0,0.0,0.0,0.0,0.0,0.0,0.0,0.0,0.0,0.0,2.6749,0.0,0.0,0.0,0.0,0.0,0.0,0.0,0.0,0.0,0.0,0.0,0.0,0.0,0.0,0.0,0.0,0.0,0.0,0.0,0.0,0.0,0.0,0.0,0.0,0.0,0.0,0.0,0.0,0.0,0.0,0.0,0.0,0.0,0.0,0.0,0.0,0.0,0.0,0.0,0.0,2.7982,2.6189,2.5333,2.6676,2.6589,2.6408,2.6329,2.6075,2.6049,2.6381,2.6936,0.0,0.0,0.0,0.0,0.0,0.0,0.0,0.0,0.0,0.0,0.0,0.0,0.0,0.0,0.0,0.0,0.0,0.0,0.0,0.0,0.0,0.0,0.0,0.0,0.0,0.0,0.0,0.0,0.0,0.0,0.0,0.0,0.0,0.0,0.0,0.0,0.0,0.0,0.0,0.0,0.0,0.0,0.0,0.0,0.0,0.0,0.0,0.0,0.0,0.0,0.0,0.0,0.0,3.1812,3.2493,3.3397,3.379,3.3885,3.3606,3.0806,2.9117,2.8363,0.0,0.0,0.0,0.0,0.0,0.0,0.0,0.0,0.0,0.0,0.0,0.0,0.0,0.0,0.0,0.0,0.0,0.0,0.0,0.0,0.0,0.0,0.0,0.0,0.0,2.9099,2.8725,0.0,0.0,0.0,0.0,0.0,0.0,0.0,0.0,0.0,0.0,0.0,0.0,2.7364,2.5812,2.5198,2.6644,2.6712,2.663,2.6531,2.6363,2.5895,2.4905,2.655,2.7213,0.0,0.0,0.0,0.0,0.0,0.0,0.0,0.0,0.0,0.0,0.0,0.0,0.0,0.0,0.0,0.0,0.0,0.0,0.0,0.0,0.0,0.0,0.0,0.0,0.0,0.0,0.0,0.0,0.0,0.0,0.0,0.0,2.051,2.0607,0.0,0.0,0.0,0.0,0.0,0.0,0.0,0.0,0.0,0.0,0.0,0.0,0.0,3.1139,3.16,3.258,3.2959,3.2833,3.3625,3.4194,3.4499,3.4545,3.484,3.5173,3.4778,0.0,3.2391,3.1013,0.0,0.0,0.0,0.0,0.0,0.0,0.0,0.0,0.0,0.0,0.0,0.0,0.0,0.0,0.0,0.0,0.0,0.0,0.0,0.0,0.0,0.0,2.9578,2.9088,2.8938,2.8863,0.0,2.87,2.8562,2.8209,2.8133,0.0,0.0,0.0,0.0,0.0,0.0,0.0,2.7846,2.5711,2.46,2.5915,2.5637,2.5641,2.642,2.5906,2.5741,2.6222,2.5378,2.5301,2.621,2.5848,0.0,0.0,0.0,0.0,0.0,0.0,0.0,0.0,0.0,0.0,0.0,0.0,0.0,0.0,0.0,0.0,0.0,0.0,0.0,0.0,0.0,0.0,0.0,0.0,0.0,0.0,0.0,0.0,0.0,2.1704,2.2364,2.224,2.2719,2.3189,0.0,0.0,0.0,0.0,0.0,0.0,0.0,0.0,0.0,3.2927,3.3363,3.4035,3.4967,3.543,3.6039,3.6776,3.7219,3.7741,3.8392,3.8115,3.8115,3.8266,3.8015,3.7139,3.5774,3.3806,3.2549,3.1776,0.0,0.0,0.0,0.0,2.9732,2.991,3.0524,3.0646,0.0,0.0,0.0,0.0,0.0,0.0,0.0,0.0,0.0,0.0,0.0,0.0,0.0,2.9591,2.9654,2.9665,2.9038,2.9176,2.9189,0.0,2.8532,2.8886,2.9504,0.0,0.0,0.0,0.0,0.0,2.758,2.6038,2.5249,2.6254,2.5849,2.5751,2.6302,2.5772,2.555,2.5878,2.5299,2.5191,2.5743,2.6115,2.6712,0.0,0.0,0.0,0.0,0.0,0.0,0.0,0.0,0.0,0.0,0.0,0.0,0.0,0.0,0.0,0.0,0.0,0.0,0.0,0.0,0.0,0.0,0.0,0.0,0.0,0.0,0.0,0.0,2.3406,2.3929,2.3596,2.4421,2.5048,0.0,0.0,0.0,0.0,0.0,0.0,3.2157,3.2953,3.4193,3.6186,3.6303,3.6966,3.8241,3.8241,3.8868,4.0124,4.0124,4.0551,4.1275,4.0902,4.0651,4.0501,4.0074,3.9346,3.8266,3.6056,3.4485,3.3408,3.2791,3.2247,3.1835,3.2167,3.2265,3.2277,3.2945,3.2928,3.2653,3.261,0.0,3.0882,3.0144,0.0,0.0,0.0,0.0,3.102,3.0648,3.0657,3.0705,3.0145,3.0306,3.0382,2.9515,2.9578,2.9491,0.0,2.8644,2.8973,2.92,0.0,0.0,0.0,0.0,2.6788,2.7052,2.6088,2.5666,2.6356,2.5829,2.5568,2.5916,2.5233,2.4881,2.5133,2.4936,2.4881,2.5133,2.5912,2.657,2.6943,0.0,0.0,0.0,0.0,0.0,0.0,0.0,0.0,0.0,0.0,0.0,0.0,0.0,0.0,0.0,0.0,0.0,0.0,0.0,0.0,0.0,0.0,0.0,0.0,0.0,0.0,0.0,0.0,0.0,2.3854,2.5263,0.0,0.0,0.0,0.0,3.0506,3.2276,3.3648,3.4405,3.5429,3.685,3.8667,3.922,4.0023,4.1075,4.1075,4.1125,4.12,4.12,4.1225,4.1275,4.125,4.0949,4.0526,4.0475,4.0149,3.9446,3.726,3.5931,3.5286,3.4554,3.4674,3.5186,3.4529,3.4375,3.4405,3.3427,3.2742,3.2474,3.4028,3.3847,3.2742,3.1637,3.108,0.0,0.0,3.1345,3.1026,3.1574,3.1185,3.0608,3.0583,3.0608,3.0608,3.0532,3.0156,2.9453,0.0,2.8122,2.8396,2.9149,0.0,2.8195,2.8377,2.7344,2.6533,2.6524,2.5536,2.5059,2.5602,2.4721,2.4376,2.509,2.397,2.3543,2.4308,2.3662,2.3573,2.4308,2.4222,2.4725,2.5932,2.7271,0.0,0.0,0.0,0.0,0.0,0.0,0.0,0.0,0.0,0.0,0.0,0.0,0.0,0.0,0.0,0.0,0.0,0.0,0.0,0.0,0.0,0.0,0.0,0.0,0.0,0.0,0.0,0.0,2.6457,2.7668,0.0,2.997,3.042,3.1636,3.4102,3.5279,3.6642,3.8289,3.9461,4.0514,4.148,4.1706,4.2007,4.2384,4.2384,4.2384,4.2384,4.2384,4.2208,4.1856,4.1505,4.0974,4.0501,4.0149,3.9873,3.9647,3.8843,3.7965,3.7038,3.6438,3.616,3.6081,3.6163,3.626,3.6257,3.5855,3.5353,3.4675,3.3495,3.2842,3.2315,3.121,3.1025,3.1281,3.1458,3.113,3.0777,3.0979,3.0586,3.008,3.008,3.0357,3.0507,3.0156,3.0206,3.0105,2.9327,2.89,2.8699,2.8975,2.8209,2.7731,2.8156,2.7238,2.6499,2.6499,2.6147,2.5996,2.6172,2.5485,2.5012,2.4912,2.416,2.3649,2.3539,2.3245,2.3215,2.3514,2.3831,2.4381,2.5173,2.6011,2.7447,0.0,0.0,0.0,0.0,0.0,0.0,0.0,0.0,0.0,0.0,0.0,0.0,0.0,0.0,0.0,0.0,0.0,0.0,0.0,0.0,0.0,0.0,0.0,0.0,0.0,0.0,2.8195,2.93,3.0547,3.1994,3.3802,3.42,3.5329,3.7759,3.8862,3.9981,4.125,4.2384,4.2986,4.2986,4.3162,4.3162,4.2986,4.2986,4.2986,4.2986,4.2841,4.2564,4.2187,4.1605,4.0974,4.0501,4.0124,3.9873,3.9697,3.9697,3.9245,3.8542,3.8165,3.7737,3.7285,3.7387,3.7337,3.7161,3.696,3.6533,3.5755,3.3721,3.2817,3.234,3.1436,3.1135,3.116,3.1336,3.0884,3.0382,3.0557,3.0206,2.9804,2.9804,3.008,3.0231,2.988,3.008,3.0231,2.9854,2.9478,2.9315,2.9644,2.9214,2.9037,2.9783,2.9212,2.8768,2.8971,2.8088,2.7511,2.7723,2.6458,2.546,2.5109,2.5423,2.5026,2.3502,2.4286,2.4261,2.3145,2.4564,2.5586,2.6107,2.7627,2.9153,3.0672,0.0,0.0,0.0,0.0,0.0,0.0,0.0,0.0,0.0,0.0,0.0,0.0,0.0,0.0,0.0,0.0,0.0,0.0,0.0,0.0,0.0,0.0,0.0,2.618,2.8033,3.0052,3.1995,3.3706,3.5539,3.7661,3.922,4.0442,4.1372,4.2936,4.3614,4.3087,4.4066,4.4141,4.3062,4.3539,4.3539,4.2986,4.2961,4.2961,4.2936,4.2439,4.2162,4.2137,4.1555,4.0949,4.0501,4.0501,4.0199,3.9697,3.9697,3.9697,3.9697,3.9672,3.9346,3.8844,3.8216,3.7663,3.7111,3.6631,3.6031,3.5433,3.4856,3.3997,3.3018,3.239,3.1486,3.0758,3.126,3.0633,2.993,3.0482,3.0206,2.9804,2.9804,2.9804,2.9804,2.9804,2.9804,2.9804,2.9804,2.9804,3.011,3.1086,3.1505,3.2081,3.3109,3.2998,0.0,3.3646,3.111,2.9503,3.0152,2.7496,2.5686,2.5686,2.7633,2.7447,2.4236,2.6516,2.6499,2.3301,2.6194,2.8109,2.863,3.2044,3.2905,3.1064,0.0,0.0,0.0,0.0,0.0,0.0,0.0,0.0,0.0,0.0,0.0,0.0,0.0,0.0,0.0,0.0,0.0,0.0,0.0,0.0,0.0,0.0,2.7653,2.7491,2.9226,3.0997,3.2433,3.3575,3.5562,3.8829,3.9574,4.0916,4.3487,4.4518,4.497,4.4819,4.507,4.492,4.4192,4.394,4.3539,4.2986,4.264,4.2439,4.2439,4.1831,4.1354,4.0953,4.0802,4.045,3.9923,3.9923,3.9848,3.9697,3.9697,3.9697,3.9647,3.9245,3.9045,3.8844,3.8216,3.7663,3.7161,3.701,3.6609,3.5981,3.5027,3.4525,3.4022,3.2641,3.2014,3.1712,3.1461,3.0909,3.0432,3.0583,3.0206,2.9804,2.9804,2.9804,2.9804,2.9804,2.9804,2.9804,2.9804,2.9804,2.9868,3.0174,2.9934,2.9807,3.0075,2.9416,0.0,2.9631,2.8596,2.8608,3.0571,2.8747,2.7641,2.82,2.7566,2.6409,2.4682,2.4911,2.4893,2.4349,2.4835,2.5846,2.7346,2.9996,3.1541,0.0,0.0,0.0,0.0,0.0,0.0,0.0,0.0,0.0,0.0,0.0,0.0,0.0,0.0,0.0,0.0,0.0,0.0,0.0,0.0,0.0,0.0,2.836,2.9365,2.9912,3.1011,3.2376,3.4245,3.5194,3.7211,4.1011,4.0745,4.17,4.5085,4.472,4.4312,4.4151,4.4768,4.4452,4.2971,4.3472,4.3539,4.2986,4.2489,4.2213,4.2213,4.1354,4.0774,4.0501,4.0275,3.9998,0.0,3.9697,3.9697,3.9697,3.9697,3.9546,0.0,0.0,0.0,0.0,0.0,3.7111,3.6835,3.6835,3.6483,3.5881,3.5002,3.4575,3.4098,3.2641,3.2215,3.2064,3.1286,3.0859,3.0557,3.0331,3.003,2.9804,2.9804,2.9804,2.9804,2.9804,2.9804,2.9804,2.9804,0.0,0.0,2.9804,3.0159,3.0655,3.1374,3.0851,3.0609,3.1128,2.9808,2.9479,3.1156,2.9176,2.7968,2.8417,2.8297,0.0,0.0,0.0,2.6392,2.6468,2.6363,0.0,0.0,0.0,3.2785,3.2714,0.0,0.0,0.0,3.3016,3.2525,0.0,0.0,0.0,0.0,0.0,0.0,0.0,0.0,0.0,0.0,0.0,0.0,0.0,0.0,0.0,0.0,3.0127,3.1065,3.2581,3.2969,3.3968,3.6269,3.7207,3.9088,4.2786,4.182,4.2264,4.5464,4.4001,4.2743,4.2123,0.0,0.0,0.0,0.0,4.3294,4.2986,4.2414,4.2112,4.2112,4.0953,4.0425,4.04,3.9923,3.9697,3.9697,3.9697,3.9697,3.9697,3.9697,3.932,3.8768,3.8743,3.8316,3.7688,3.6782,3.6405,3.6405,3.6405,0.0,0.0,3.4856,3.4349,3.3671,3.2491,3.2164,3.1989,3.0909,3.0658,3.0583,3.0105,2.998,2.9955,2.9905,2.988,2.9854,2.9804,2.9804,2.9804,2.9804,2.9804,2.9804,2.9804,3.1185,3.2791,3.4211,3.4187,3.4238,3.4802,3.2459,3.1041,3.1818,0.0,0.0,2.7717,2.9309,2.9025,2.5971,2.8125,2.9248,2.8579,2.9047,3.0109,3.1686,3.4258,3.4812,3.3303,3.4816,3.5485,3.5337,3.4134,3.2924,0.0,0.0,0.0,0.0,0.0,0.0,0.0,0.0,0.0,0.0,0.0,0.0,0.0,0.0,0.0,3.0302,3.1219,3.2054,3.2695,3.4004,3.5073,3.5561,3.6103,3.7226,3.9366,3.93,3.9953,4.2011,4.2989,4.277,4.0955,4.2037,0.0,4.1293,4.1215,4.1769,4.2986,4.1982,4.1505,4.148,0.0,0.0,3.9848,3.9747,3.9697,3.9697,3.9697,3.9697,3.9697,3.9697,3.9094,3.814,3.7688,3.7161,3.6707,3.648,3.6405,3.6405,3.6405,3.6006,3.5408,3.4856,3.4349,3.3596,3.2014,3.1863,0.0,3.0909,3.0909,3.121,3.111,3.1085,3.0984,3.0557,3.0457,3.0331,2.988,2.9804,2.9804,2.9804,2.9804,2.9804,2.9804,3.0094,3.045,3.0756,3.0337,3.0262,3.0842,2.9996,3.0136,3.2234,3.0565,2.9593,3.0214,2.9226,2.8105,2.7052,2.7879,2.7965,2.699,2.787,2.8841,2.9872,3.119,3.228,3.3154,3.3694,3.42,3.4651,3.3893,3.3648,0.0,0.0,0.0,0.0,0.0,0.0,0.0,0.0,0.0,0.0,0.0,3.1454,3.0638,0.0,3.219,3.1661,3.2276,3.3027,3.3652,3.4316,3.4805,3.5019,3.5625,3.6674,3.842,3.7637,3.8065,4.0673,4.0576,3.9904,3.8666,3.9885,3.9945,3.8642,3.9896,4.1019,4.1785,4.1474,4.1275,4.1275,4.0224,3.9697,3.9697,3.9697,3.9697,3.9697,3.9697,3.9697,3.9647,3.9094,3.8517,3.7914,3.7086,3.6656,3.6405,3.6405,3.6405,3.6405,3.6405,3.6006,3.5408,3.4856,3.4349,3.3646,3.224,3.219,3.2416,3.1311,3.1386,3.1738,3.1461,3.1386,3.1311,3.106,3.1009,3.0859,3.0331,3.0206,3.0206,3.0206,2.998,2.988,3.0156,2.998,2.9804,2.9804,2.9553,2.9478,2.9754,2.9553,2.9818,3.1044,3.0108,2.9516,2.9922,2.8824,2.7996,2.772,2.7946,2.7871,2.7293,2.7821,2.8315,2.8759,2.9954,3.0984,3.1737,3.2624,3.3202,3.3552,3.3202,3.3404,0.0,0.0,0.0,0.0,0.0,0.0,0.0,0.0,2.8567,3.0386,3.2294,3.3456,3.2864,3.3829,3.4318,3.2989,3.3164,3.3789,3.4473,3.4355,3.4258,3.4434,3.5312,3.638,3.7687,3.6376,3.6527,3.93,3.8039,3.6917,3.6373,3.7746,3.7732,3.5888,3.8707,4.0397,4.0592,4.109,4.1168,4.0873,4.0095,3.9413,3.8868,3.9413,3.9517,3.931,3.9569,3.9697,3.9622,3.8592,3.8115,3.7914,3.691,3.6505,3.6405,3.6405,3.6405,3.6405,3.6405,3.5931,3.5257,3.4831,3.4274,3.3545,3.2516,3.2616,3.2867,3.1838,3.1964,3.229,3.1838,3.1712,3.1687,3.1587,3.1537,3.1411,3.0884,3.0758,3.0733,3.0633,3.0256,3.0055,3.0407,3.008,2.9804,2.9804,2.9804,2.9804,2.9804,2.9804,2.9804,2.9804,2.9377,2.9013,2.8888,2.8524,2.8222,2.8122,2.8323,2.8373,2.8273,2.8373,2.8423,2.8423,2.9824,3.0543,3.0543,3.191,3.2593,3.2593,3.2593,3.2857,2.5363,2.4914,2.4701,2.5167,2.5083,2.5141,0.0,0.0,2.9496,3.1099,3.3568,3.5039,3.3608,3.4968,3.5685,3.3607,3.3716,3.4023,3.4121,3.4434,3.4355,3.3652,3.4687,3.536,3.5146,3.5309,3.5591,3.5971,3.6776,3.6616,3.5001,3.6554,3.6959,3.5827,3.7923,3.957,4.0592,4.109,4.0656,3.9354,3.9597,3.8319,3.589,3.853,3.8973,3.7796,3.9129,3.9697,3.9647,3.9019,3.8467,3.7939,3.7337,3.6832,3.6405,3.6405,3.6405,3.6405,3.6405,3.568,3.4756,3.4751,3.4022,3.3043,3.2416,3.2616,3.2943,3.2315,3.2541,3.3011,3.296,3.2893,3.2767,3.224,3.2114,3.1964,3.1411,3.1311,3.116,3.0708,3.0557,3.0382,2.9955,2.9829,2.9804,2.9804,2.9804,2.9804,2.9804,2.9804,2.9804,2.9804,2.9729,2.9478,2.8938,2.8838,2.8624,2.8147,2.9051,2.9377,2.8813,2.9327,2.9603,2.9603,3.0603,3.1125,3.1125,3.21,3.2593,3.2593,3.2593,3.2644,2.5166,2.5096,2.5252,2.4927,2.5439,2.6249,2.7475,2.9053,3.07,3.2274,3.5287,3.6921,3.471,3.629,3.704,0.0,3.3945,3.416,3.4394,3.3945,3.3457,3.3105,3.3555,3.4004,3.4297,3.4726,3.4883,3.4648,3.5366,3.5231,3.3984,3.4868,3.509,3.4465,3.7036,3.8588,3.8734,4.0452,4.0832,3.9922,3.9788,3.9025,3.7873,3.9154,3.9362,3.8792,3.9413,3.9697,3.9647,3.9094,3.8517,3.7939,3.7387,3.6883,3.6405,3.6405,3.6405,3.6405,3.6405,3.6103,3.5579,3.4926,3.4399,3.3872,3.2993,3.2893,3.3061,3.2792,3.3119,3.347,3.3169,3.3319,3.342,3.2842,3.2717,3.2566,3.1989,3.1863,3.1813,3.1587,3.1035,3.0633,3.0708,3.0206,2.9804,2.9804,2.9804,2.9804,2.9804,2.9804,2.9804,2.9804,2.9804,2.9704,2.9453,2.9428,2.9327,2.9101,2.9528,2.9679,2.9428,2.9654,2.9804,2.9804,3.0177,3.0381,3.0381,3.0771,3.0959,3.0959,3.0959,3.0959,2.508,2.5192,0.0,2.5145,2.5809,2.7028,2.8564,2.9814,3.115,3.3106,3.5623,3.6917,3.499,3.6419,3.7025,3.4358,3.3887,3.4004,3.4297,3.3359,3.2539,3.2305,3.2266,3.2519,3.3144,3.3789,3.4101,3.3906,3.4062,3.4004,3.3613,3.3906,3.3867,3.3437,3.6667,3.8119,3.7627,4.0072,4.0914,4.0116,3.9815,3.9258,3.8477,3.8921,3.931,3.9697,3.9697,3.9697,3.9647,3.9094,3.8617,3.8191,3.7638,3.7086,3.6631,3.6631,3.6531,3.6405,3.6405,3.6304,3.6006,3.5203,3.4806,3.455,3.3596,3.3395,3.3495,3.3345,3.3696,3.4022,3.3646,3.3822,3.4022,3.3621,3.342,3.3194,3.2767,3.2566,3.2416,3.224,3.1587,3.1085,3.116,3.0532,2.9955,2.9804,2.9804,2.9804,2.9804,2.9804,2.9804,2.9804,2.9804,2.9804,2.9804,2.9804,2.9804,2.9804,2.9804,2.9804,2.9804,2.9804,2.9804,2.9804,2.9804,2.9804,2.9804,2.9804,2.9804,2.9804,2.9804,2.9804,2.5499,2.5344,2.5454,2.6378,2.6506,2.6965,2.9078,2.9623,3.0389,3.3127,3.3901,3.4001,3.3791,3.4606,3.492,3.3611,3.3437,3.3437,3.3457,3.2734,3.1875,3.1055,3.0957,3.0957,0.0,3.2129,3.3008,3.3418,3.3066,3.3203,3.4004,3.4062,3.3867,3.3437,3.6927,3.8634,3.8201,4.0265,4.0577,3.9165,3.9544,3.8214,3.5453,3.6918,3.8348,3.9697,3.9697,3.9697,3.9647,3.9094,3.8919,3.8844,3.8216,3.7638,3.7161,3.7161,3.6883,3.6405,3.6405,3.6006,3.5508,3.5483,3.5107,3.4625,3.4048,3.4248,3.455,3.4022,3.4274,3.47,3.4675,3.4675,3.47,3.4675,3.4248,3.3872,3.3847,3.342,3.2893,3.2315,3.219,3.1838,3.0809,3.0608,3.0407,2.988,2.9804,2.9804,2.9804,2.9804,2.9804,2.9804,2.9804,2.9804,2.9804,2.9804,2.9804,2.9804,2.9804,2.9804,2.9804,2.9804,2.9804,2.9804,2.9804,2.9804,2.9804,2.9804,2.9804,2.9804,2.9804,2.9804,2.5333,2.6119,2.7183,2.7629,2.818,2.8848,3.0156,3.0664,3.1073,3.1736,3.2986,3.3565,3.2158,3.3346,3.4204,3.3235,3.3307,3.348,3.3379,3.3418,3.2695,3.0664,3.1211,0.0,0.0,0.0,0.0,3.2578,3.2969,3.3223,3.3223,3.3496,3.3574,3.3418,3.6688,3.7708,3.6089,3.886,3.9657,3.8421,3.9318,3.9206,3.8267,3.8739,3.9233,3.9697,3.9697,3.9697,3.9672,3.9496,3.9195,3.8894,3.8668,3.8241,3.7739,3.7739,3.7387,3.6908,3.6531,3.6279,3.6031,3.5608,3.5382,3.5132,3.458,3.4575,3.4675,3.45,3.4806,3.5132,3.4781,3.4956,3.5132,3.4756,3.4575,3.4349,3.3972,3.4048,3.3897,3.2968,3.2792,3.2541,3.1813,3.1085,3.0432,2.988,2.9804,2.9804,2.9804,2.9804,2.9804,2.9804,2.9804,2.9804,2.9804,2.9804,2.9804,2.9804,2.9804,2.9804,2.9804,2.9804,2.9804,2.9804,2.9804,2.9804,2.9804,2.9804,2.9804,2.9804,2.9804,2.9804,2.5865,2.7039,2.8436,2.8697,2.9277,3.0019,3.0918,3.1074,3.1035,3.0935,3.1774,3.2051,3.0831,3.1785,3.2556,3.2047,3.2435,3.2732,3.2737,3.2851,3.2305,3.0644,3.1055,3.1016,0.0,0.0,0.0,3.1934,3.2578,3.293,3.2793,3.3184,3.3418,3.3418,3.5949,3.6691,3.5265,3.8273,3.9507,3.8965,3.9653,3.9898,3.9697,3.9697,3.9413,3.8921,3.8921,3.8635,3.8161,3.8161,3.7944,3.7577,3.7577,3.7572,3.7565,3.7565,3.7519,3.7387,3.6883,3.6581,3.6355,3.5956,3.583,3.573,3.5132,3.5152,3.5253,3.5031,3.5403,3.5755,3.5403,3.5579,3.5755,3.5403,3.5152,3.4881,3.4575,3.46,3.4449,3.3545,3.337,3.3119,3.234,3.1311,3.0482,3.0131,2.9905,2.9804,2.9804,2.9804,2.9804,2.9804,2.9804,2.9804,2.9804,2.9804,2.9804,2.9804,2.9804,2.9804,2.9804,2.9804,2.9804,2.9804,2.9804,2.9804,2.9804,2.9804,2.9804,2.9804,2.9804,2.9804,2.7048,2.8073,2.9132,2.96,2.9941,3.0449,3.1269,3.0762,3.0288,3.0777,3.0169,2.9621,0.0,0.0,3.0073,3.0269,3.0903,3.1445,3.1543,3.1328,3.1094,0.0,0.0,0.0,0.0,0.0,0.0,3.1523,0.0,3.2344,3.2773,3.3184,3.3418,3.3418,3.4964,3.5745,3.5683,3.8374,3.9944,4.0445,4.0473,4.0224,3.9697,3.9697,3.8921,3.753,3.753,3.6649,3.5288,3.5288,3.5288,3.5288,3.5288,3.581,3.6611,3.6716,3.7254,3.7866,3.7462,3.6933,3.6455,3.6455,3.643,3.6304,3.5708,3.5956,3.6304,3.5683,3.5956,3.6405,3.6405,3.6405,3.6405,3.6405,3.5956,3.5533,3.5508,3.5107,3.4625,3.4048,3.3922,3.3545,3.2416,3.1361,3.0643,3.0633,3.0181,2.9829,2.9804,2.9804,2.9804,2.9804,2.9804,2.9804,2.9804,2.9804,2.9804,2.9804,2.9804,2.9804,2.9829,2.9804,2.9804,2.9829,2.9804,2.9804,2.9804,2.9804,2.9804,2.9804,2.9804,2.9804,2.7818,2.8893,3.0013,3.0468,3.0625,3.0684,3.0566,3.0032,2.9411,2.908,2.8654,2.8304,0.0,0.0,0.0,3.0437,3.171,0.0,3.2894,3.3691,0.0,3.2461,0.0,3.2715,3.1758,3.2051,0.0,0.0,3.2109,3.2344,3.2773,3.3184,3.3418,3.3418,3.4964,3.5211,3.4007,3.6665,3.8433,3.9327,4.0145,4.0224,3.9697,3.9697,3.8921,3.753,3.753,3.6649,3.5288,3.5288,3.5288,3.5288,3.5288,3.544,3.5817,3.6891,3.7216,3.7173,3.8116,3.7838,3.6985,3.6985,3.6757,3.638,3.6207,3.6304,3.638,3.6182,3.6304,3.6405,3.6405,3.6405,3.6405,3.6405,3.6304,3.6031,3.5583,3.5755,3.5655,3.47,3.4173,3.3545,3.2416,3.1989,3.1537,3.0733,3.0482,3.0256,2.9854,2.9804,2.9804,2.9804,2.9804,2.9804,2.9804,2.9804,2.9804,2.9804,2.9804,2.998,3.0382,3.0005,2.998,3.0407,3.0005,2.9804,2.9804,2.9804,2.9804,2.9804,2.9804,2.9804,2.8961,2.9941,3.0879,3.1328,3.1172,3.0762,3.0293,2.9423,2.8602,2.8086,2.7594,2.7185,2.6819,2.7547,0.0,0.0,0.0,0.0,3.2777,3.3828,3.4238,0.0,3.3789,0.0,3.2812,3.293,3.2969,0.0,3.2559,3.2539,3.2793,3.3184,3.3418,3.3418,3.4258,3.4984,3.552,3.7003,3.8597,4.0348,4.022,4.0137,4.0049,4.0049,3.9143,3.7477,0.0,3.5727,3.4292,3.3642,3.3381,3.3381,3.3381,3.3754,3.4403,3.5266,3.5817,3.6284,3.7754,3.7535,3.6628,3.7067,3.6857,3.6455,3.6707,3.6606,3.6455,3.6707,3.6606,3.6455,3.6707,3.6581,3.6455,3.6707,3.6581,3.6329,3.5981,3.6132,3.6153,3.5253,3.4449,3.3696,3.3068,3.2541,3.1938,3.1085,3.0758,3.0407,2.9854,2.9804,2.9804,2.9804,2.9804,2.9804,2.9804,3.0005,3.0156,3.0156,3.0156,3.0407,3.0934,3.0432,3.0306,3.0608,3.0532,3.0256,2.9804,3.003,3.003,2.9804,2.9804,2.9804,3.0194,3.0976,3.168,3.2012,3.1445,3.0644,3.0078,2.8795,2.766,2.7276,2.6689,2.6123,2.5604,2.6381,2.714,2.7221,0.0,3.1012,3.2268,3.3047,3.3711,3.4258,3.4277,3.4101,3.3711,3.3691,3.3652,3.3594,3.3203,3.2949,3.2871,3.3223,3.3437,3.3496,3.3457,3.4901,3.7954,3.8127,3.9442,4.1858,4.0675,4.03,4.0626,4.0551,3.9463,3.7518,0.0,0.0,3.2964,3.1558,3.0937,3.0898,3.0898,3.1652,3.2794,3.3021,3.3901,3.5233,3.6918,3.6835,3.6108,3.7097,3.6983,3.6505,3.701,3.6908,3.6606,3.7061,3.6933,3.6732,3.7161,3.6935,3.6732,3.7086,3.681,3.6505,3.643,3.6405,3.6207,3.5608,3.4731,3.4073,3.3922,3.3093,3.2215,3.1587,3.111,3.0633,3.008,2.988,2.9804,2.9804,2.9854,2.9905,2.9905,3.0407,3.0708,3.0708,3.0708,3.0959,3.1486,3.0984,3.0758,3.0834,3.121,3.0909,2.9905,3.0382,3.0357,2.9905,2.9829,2.9829,3.1055,3.166,3.1992,3.1699,3.0976,3.0019,2.8887,2.7491,0.0,0.0,2.5336,2.503,2.4563,2.5651,2.6878,2.7708,2.9203,3.1094,3.3418,3.3867,3.4394,0.0,3.5371,3.5137,3.5059,0.0,0.0,0.0,0.0,3.3691,3.334,3.3379,3.3594,3.3945,3.3613,3.4501,3.6788,3.7703,3.8859,4.0226,4.1281,4.1588,4.1125,4.0727,3.9607,3.8041,3.6483,0.0,3.2985,3.1877,3.1211,3.0898,3.0898,3.1054,3.1441,3.2644,3.3247,3.3845,3.6595,3.7073,3.6757,3.8165,3.7612,3.6505,3.701,3.7111,3.7061,3.7161,3.7437,3.7739,3.7839,3.7789,3.7638,3.7262,3.7111,3.6958,3.6505,3.6405,3.6207,3.5608,3.5332,3.4931,3.4048,3.3746,3.3269,3.2215,3.1989,3.1738,3.1185,3.0331,2.9804,2.9804,3.0206,3.0482,3.0482,3.0959,3.126,3.126,3.126,3.1512,3.2039,3.1537,3.1461,3.1913,3.1587,3.1085,3.0482,3.0557,3.0557,3.0457,3.0005,3.003,3.1209,3.2027,3.2773,3.2559,3.1348,2.9922,2.8867,0.0,0.0,2.5458,2.5078,2.4561,2.4095,2.5289,2.6326,2.6498,2.7859,2.9785,3.2383,3.293,3.373,3.5488,3.5703,3.5723,0.0,0.0,0.0,0.0,0.0,3.4316,3.4101,3.4082,3.418,3.4394,3.4996,3.5681,3.6478,3.7889,3.9131,4.0211,4.0999,4.154,4.1756,4.148,4.0803,3.9726,3.7344,0.0,3.4515,3.2389,3.1269,3.0898,3.0898,3.0898,3.0995,3.171,3.1977,3.2264,3.4437,3.5332,3.5822,3.7601,3.7765,3.7337,3.7889,3.7864,3.7663,3.7965,3.804,3.8065,3.8391,3.8241,3.8015,3.804,3.7839,3.7462,3.691,3.6832,3.6634,3.6081,3.5683,3.5332,3.4806,3.4274,3.3621,3.2792,3.2416,3.2014,3.1461,3.0934,3.0633,3.0633,3.0859,3.1009,3.1009,3.1512,3.1813,3.1813,3.1813,3.2064,3.2641,3.2114,3.1813,3.1788,3.2089,3.1712,3.0608,3.1185,3.1311,3.1009,3.0758,3.0758,3.1515,3.2529,3.3516,3.334,3.166,2.9824,2.8867,2.6486,0.0,2.5285,2.4771,2.4087,2.3791,2.4874,2.5678,0.0,2.6504,2.8418,3.1016,3.1836,3.293,0.0,3.5703,0.0,0.0,0.0,0.0,0.0,0.0,0.0,3.4707,3.4609,3.4648,3.4844,3.5929,3.6325,3.6141,3.799,3.9317,4.0129,4.0765,4.1565,4.2389,4.2263,4.1907,4.1343,3.8573,0.0,0.0,3.3358,3.1998,3.1522,3.1133,3.125,3.1522,3.1035,3.0898,3.117,3.2985,3.4031,3.4967,3.7228,3.8003,3.8115,3.8693,3.8542,3.8291,3.8793,3.8617,3.8467,3.8919,3.8718,3.8442,3.8793,3.8442,3.7864,3.7312,3.7186,3.701,3.6505,3.6006,3.5633,3.5508,3.4781,3.4022,3.3345,3.2867,3.2365,3.1813,3.1738,3.1738,3.1738,3.1637,3.1562,3.1562,3.2089,3.239,3.239,3.239,3.2591,3.3068,3.2641,3.219,3.1763,3.2616,3.239,3.0959,3.1813,3.1989,3.1562,3.1436,3.1461,3.2708,3.3613,3.3828,3.3047,3.123,2.9297,2.8119,0.0,2.3667,2.4157,2.3693,2.3227,2.3188,2.4132,2.4972,2.5257,2.6265,2.7988,3.0586,3.166,3.2812,3.4551,0.0,0.0,0.0,0.0,0.0,0.0,0.0,0.0,3.4746,3.4336,3.4492,3.5312,3.4746,3.4536,3.489,3.7522,3.8716,3.8461,4.1362,4.2824,4.2886,4.2439,4.2187,4.2028,4.0266,0.0,0.0,3.5184,3.4365,3.3476,3.2018,3.2351,3.3376,3.158,3.0898,3.1286,3.4146,3.5156,3.5659,3.8558,3.8817,3.8115,3.8693,3.8894,3.8844,3.8894,3.9195,3.9546,3.9597,3.9572,3.9421,3.8969,3.8442,3.7864,3.7312,3.7186,3.701,3.6505,3.638,3.6132,3.5583,3.5408,3.4981,3.3972,3.3771,3.3545,3.2993,3.2918,3.2918,3.2918,3.2441,3.2139,3.2139,3.2667,3.2993,3.2993,3.2993,3.3018,3.3111,3.3061,3.2968,3.2918,3.3061,3.2742,3.2064,3.2164,3.219,3.2114,3.1612,3.1662,3.1144,3.27,3.3926,3.332,3.1152,2.8984,2.8223,0.0,2.3699,2.473,2.4264,2.368,2.3861,2.4368,2.4705,2.4717,2.5091,0.0,2.8033,2.8843,3.0199,3.2871,0.0,0.0,0.0,0.0,0.0,0.0,0.0,0.0,3.5527,3.5332,3.541,3.5762,3.5176,3.4805,3.4707,3.7481,3.8656,3.8223,4.1476,4.2986,4.2961,4.2816,4.2715,4.2579,4.0652,0.0,0.0,3.6258,3.5452,3.5159,3.414,3.3805,3.3765,3.2637,3.2207,3.2358,3.3586,3.5123,3.6811,3.7979,3.8677,3.9069,3.9295,3.9371,3.9371,3.9371,3.9521,3.9697,3.9697,3.9697,3.9647,3.9421,3.9195,3.8768,3.7864,3.7688,3.7412,3.6581,3.6405,3.6329,3.6081,3.5755,3.5232,3.45,3.4399,3.4073,3.3194,3.337,3.3445,3.3119,3.2867,3.2742,3.2742,3.2943,3.3111,3.3111,3.3111,3.3111,3.3111,3.3111,3.2918,3.2566,3.2893,3.2792,3.2215,3.2566,3.2742,3.2742,3.2516,3.2516,2.9853,3.167,3.3218,3.3086,3.0976,2.8769,0.0,0.0,2.3859,2.511,2.4539,2.3897,2.4264,2.4439,2.4517,2.439,0.0,2.5123,2.6467,2.7204,2.8562,0.0,0.0,0.0,0.0,0.0,0.0,0.0,0.0,0.0,0.0,3.6211,3.6152,3.6016,3.5488,3.5284,3.5406,3.7252,3.8414,3.8935,4.1191,4.2569,4.2986,4.2986,4.2986,4.2905,0.0,0.0,0.0,3.7594,3.6949,3.6652,3.5813,3.5099,3.4511,3.3961,3.3452,3.3247,3.4125,3.5759,3.7583,3.8007,3.8844,3.9697,3.9697,3.9697,3.9697,3.9697,3.9697,3.9697,3.9697,3.9697,3.9647,3.9496,3.9446,3.9145,3.8015,3.7764,3.7487,3.6581,3.6405,3.6405,3.6405,3.6031,3.5558,3.5006,3.4931,3.4575,3.347,3.3671,3.3696,3.3187,3.3219,3.3244,3.3093,3.3111,3.3111,3.3111,3.3111,3.3111,3.3111,3.3111,3.2893,3.2466,3.2867,3.2867,3.2466,3.2867,3.3111,3.3111,3.3111,3.3111,2.9383,3.0645,3.1281,3.201,3.0527,2.8711,0.0,2.5632,2.3973,2.4819,2.4117,2.3495,2.4078,2.4268,2.4352,2.4473,2.5064,0.0,2.6702,2.7752,0.0,0.0,0.0,0.0,0.0,0.0,0.0,0.0,0.0,0.0,0.0,3.666,3.6465,3.6035,3.5156,3.5471,3.7021,3.6708,3.7867,4.0592,4.0592,4.1476,4.2986,4.2986,4.2986,0.0,0.0,0.0,0.0,3.9593,3.9189,3.8129,3.6508,3.5949,3.6016,3.5468,3.4348,3.3508,3.6433,3.7453,3.7743,3.9181,3.9697,3.9697,3.9697,3.9697,3.9697,3.9697,3.9697,3.9697,3.9697,3.9697,3.9546,3.9019,3.8919,3.8617,3.7437,3.7186,3.7036,3.6505,3.6405,3.6405,3.6405,3.6405,3.6182,3.5583,3.5483,3.5082,3.4022,3.3897,3.3696,3.3187,3.3571,3.3671,3.3162,3.3111,3.3111,3.3111,3.3111,3.3111,3.3111,3.3111,3.3111,3.3111,3.3111,3.3111,3.3111,3.3111,3.3111,3.3111,3.3111,3.3111,2.6563,2.7844,2.878,2.9194,2.8233,2.7051,2.6484,2.5198,2.4165,2.4275,2.3994,2.3783,2.3962,2.3884,2.3962,2.4614,2.4955,0.0,0.0,0.0,0.0,0.0,0.0,0.0,0.0,0.0,0.0,0.0,0.0,0.0,0.0,3.6387,3.6152,3.6016,3.5156,3.4949,3.5451,3.581,3.6993,3.8994,4.0047,4.1419,4.2986,4.2986,0.0,0.0,0.0,0.0,0.0,4.038,4.0084,3.9738,3.8814,3.8114,3.7512,3.6998,3.6487,3.6248,3.7186,3.819,3.9077,3.9517,3.9697,3.9697,3.9697,3.9697,3.9697,3.9697,3.9697,3.9697,3.9697,3.9697,3.9546,3.9045,3.8919,3.8617,3.7437,3.7186,3.701,3.6505,3.6405,3.6405,3.6405,3.6405,3.6182,3.5583,3.5855,3.5705,3.46,3.4801,3.4781,3.4248,3.4349,3.4248,3.3696,3.3972,3.4198,3.4198,3.3847,3.3646,3.3646,3.3269,3.3111,3.3111,3.3111,3.3111,3.3111,3.3111,3.3111,3.3136,3.347,3.3646,2.4602,2.5762,2.666,2.7453,2.6814,2.5976,2.5752,2.4958,2.424,2.4164,2.4116,2.4108,2.401,2.3864,2.3883,2.4464,2.479,2.5063,0.0,0.0,0.0,0.0,0.0,0.0,0.0,0.0,0.0,0.0,0.0,0.0,0.0,3.6406,3.6113,3.5801,3.5078,3.4936,3.534,3.5039,3.6295,3.9111,3.9522,4.0846,4.2986,4.2986,0.0,0.0,0.0,0.0,0.0,4.0752,4.04,4.0174,3.9823,3.9013,3.8036,3.8258,3.7954,3.7583,3.8137,3.8921,3.9697,3.9697,3.9697,3.9697,3.9697,3.9697,3.9697,3.9697,3.9697,3.9697,3.9697,3.9546,3.9245,3.8668,3.8391,3.799,3.7134,3.7036,3.701,3.6505,3.6581,3.6656,3.643,3.6405,3.6279,3.5906,3.6132,3.6031,3.5107,3.5282,3.5282,3.4776,3.4856,3.4856,3.455,3.4605,3.4625,3.4424,3.4098,3.3796,3.3596,3.3269,3.3111,3.3111,3.3294,3.3395,3.3395,3.3596,3.3696,3.3696,3.4048,3.4198,0.0,2.4165,2.4845,2.6538,2.6114,2.5363,2.547,2.4881,0.0,2.4278,2.4377,2.4449,2.4288,2.4152,2.4102,2.4275,2.4663,0.0,0.0,0.0,0.0,0.0,0.0,0.0,0.0,0.0,0.0,0.0,0.0,0.0,0.0,3.6621,3.6191,3.5371,3.4902,3.5211,3.6311,3.4372,3.5704,4.0245,3.8757,3.9698,4.2849,4.2849,0.0,0.0,0.0,0.0,0.0,4.0727,4.0199,3.9697,3.9697,3.8844,3.7796,3.9181,3.8844,3.7849,3.9233,3.9697,3.9697,3.9697,3.9697,3.9697,3.9697,3.9697,3.9697,3.9697,3.9697,3.9697,3.9697,3.927,3.8718,3.814,3.7613,3.7086,3.6581,3.6908,3.7086,3.6631,3.6933,3.7061,3.6556,3.6455,3.6455,3.6405,3.6405,3.6182,3.5633,3.5558,3.5357,3.4901,3.5257,3.5558,3.5558,3.5082,3.4625,3.4098,3.3997,3.3721,3.3219,3.3162,3.3136,3.3187,3.3671,3.3947,3.3947,3.4474,3.468,3.468,3.4731,3.4776,2.2271,0.0,2.2945,2.3418,2.3943,2.4206,0.0,2.4175,2.4526,2.4134,2.4315,2.4573,2.4839,2.4354,2.4154,2.4977,2.5045,2.5211,0.0,0.0,0.0,0.0,0.0,0.0,0.0,0.0,0.0,0.0,0.0,0.0,0.0,3.6055,3.5449,3.4883,3.4453,3.4354,3.464,3.3823,3.4612,3.6941,3.6517,3.8022,4.1191,4.1191,0.0,0.0,0.0,0.0,4.0701,4.0576,4.0199,3.9697,3.9697,3.9465,3.9233,3.9569,3.9465,3.9233,3.9569,3.9697,3.9697,3.9697,3.9697,3.9697,3.9697,3.9697,3.9697,3.9697,3.9697,3.9697,3.9697,3.927,3.8718,3.814,3.7914,3.7663,3.7111,3.7412,3.7764,3.7638,3.7739,3.7638,3.7086,3.6985,3.6883,3.648,3.6405,3.6355,3.6182,3.6182,3.6132,3.5981,3.6081,3.6182,3.6182,3.6056,3.5977,3.5827,3.5002,3.4474,3.4349,3.352,3.3269,3.3696,3.4248,3.4525,3.4525,3.465,3.468,3.4726,3.5107,3.5307,2.2359,2.2457,2.2555,2.2782,2.3293,2.3731,2.358,2.3939,2.4241,2.4183,2.4469,2.4752,2.4821,2.4746,2.4725,2.5084,2.5399,0.0,0.0,0.0,0.0,0.0,0.0,0.0,0.0,0.0,0.0,0.0,0.0,0.0,0.0,3.5644,3.5098,3.4434,3.4199,3.3984,3.3769,3.3535,3.4195,3.5806,3.6539,3.7783,3.9522,4.0245,4.0908,0.0,0.0,0.0,4.0877,4.0626,4.0199,3.9697,3.9697,3.9697,3.9697,3.9697,3.9697,3.9697,3.9697,3.9697,3.9697,3.9697,3.9697,3.9697,3.9697,3.9697,3.9697,3.9697,3.9697,3.9697,3.9697,3.927,3.8844,3.8492,3.8191,3.7914,3.7638,3.8015,3.8316,3.8065,3.8216,3.8216,3.7663,3.7563,3.7387,3.6883,3.6782,3.6707,3.643,3.6405,3.6405,3.6405,3.6405,3.6405,3.6405,3.6405,3.6304,3.6006,3.5429,3.4931,3.4726,3.4148,3.4098,3.465,3.4906,3.5182,3.5479,3.5479,3.5479,3.5479,3.578,3.5906,2.2998,2.3013,2.3024,2.3415,2.3563,2.3693,2.4112,2.4106,2.4062,2.448,2.4844,2.5015,2.4669,2.5313,0.0,0.0,0.0,0.0,0.0,0.0,0.0,0.0,0.0,0.0,0.0,0.0,0.0,0.0,0.0,0.0,0.0,3.5273,3.4844,3.4101,3.4004,3.3769,3.332,3.3379,3.4155,3.5701,3.6855,3.7591,3.7999,3.9243,3.9975,0.0,0.0,0.0,4.1,4.0576,4.0124,3.9697,3.9697,3.9697,3.9697,3.9697,3.9697,3.9697,3.9697,3.9697,3.9697,3.9697,3.9697,3.9697,3.9697,3.9697,3.9697,3.9697,3.9697,3.9697,3.9697,3.927,3.8919,3.8919,3.8492,3.814,3.814,3.8592,3.8843,3.8366,3.8668,3.8818,3.8241,3.814,3.7939,3.7387,3.7236,3.7059,3.6606,3.6455,3.6405,3.6405,3.6405,3.6405,3.6405,3.6405,3.6157,3.5658,3.5533,3.5257,3.4705,3.4756,3.5031,3.5483,3.5583,3.5906,3.6405,3.6405,3.6405,3.6405,3.6405,3.6405,2.3178,2.3587,2.3921,2.3967,2.4236,2.4523,2.4644,2.498,2.5231,2.529,2.5456,2.5528,2.5216,2.631,2.7398,0.0,0.0,0.0,0.0,0.0,0.0,0.0,0.0,0.0,0.0,0.0,0.0,0.0,0.0,0.0,0.0,3.4687,3.4219,3.4082,3.3711,3.332,3.2891,3.3242,3.3953,3.5079,3.4126,3.481,3.6933,3.628,3.701,0.0,0.0,3.9382,3.9948,3.9848,3.9772,3.9697,3.9697,3.9697,3.9697,3.9697,3.9697,3.9697,3.9697,3.9697,3.9697,3.9697,3.9697,3.9697,3.9697,3.9697,3.9697,3.9697,3.9697,3.9697,3.9697,3.927,3.8919,3.8919,3.8844,3.8743,3.8743,3.917,3.9546,3.9446,3.9496,3.9396,3.8894,3.8743,3.8542,3.7965,3.7487,3.7161,3.7061,3.6707,3.6405,3.6405,3.6405,3.6405,3.6405,3.6405,3.638,3.6279,3.5805,3.5257,3.4705,3.5132,3.5408,3.5508,3.6006,3.6329,3.6405,3.6405,3.6405,3.6405,3.6405,3.6405,2.3719,2.4185,2.4492,2.4614,2.4894,2.5169,2.534,2.5467,2.5643,2.6006,2.604,2.5861,2.5567,0.0,2.9748,3.1924,0.0,0.0,0.0,0.0,0.0,0.0,0.0,0.0,0.0,0.0,0.0,0.0,0.0,0.0,0.0,0.0,3.3965,3.373,3.3301,3.2988,3.2793,3.2754,3.3006,3.3518,3.3659,3.3897,3.4306,3.5478,3.6547,3.7501,0.0,3.9382,4.0149,4.0149,3.9973,3.9697,3.9697,3.9697,3.9697,3.9697,3.9697,3.9697,3.9697,3.9697,3.9697,3.9697,3.9697,3.9697,3.9697,3.9697,3.9697,3.9697,3.9697,3.9697,3.9697,3.9496,3.932,3.932,3.932,3.932,3.932,3.9521,3.9697,3.9697,3.9697,3.9622,3.9346,3.932,3.912,3.8567,3.799,3.7638,3.7638,3.7136,3.691,3.7211,3.6985,3.6935,3.7236,3.6757,3.6405,3.6405,3.6132,3.5881,3.5629,3.5855,3.5981,3.5981,3.6279,3.6405,3.6405,3.6405,3.6405,3.6405,3.6405,3.6405,2.4271,2.4664,2.4855,2.5149,2.5362,2.5698,2.6464,2.651,2.6625,2.7458,2.7594,2.7289,2.6064,2.8611,0.0,3.5856,0.0,0.0,0.0,0.0,0.0,0.0,0.0,0.0,0.0,0.0,0.0,0.0,0.0,0.0,0.0,0.0,3.3574,3.3144,3.2812,3.2598,3.25,3.2168,3.2193,3.2595,3.337,3.333,3.2495,3.4524,3.5605,3.5953,3.7121,3.8492,3.9826,3.9826,3.9735,3.9697,3.9697,3.9697,3.9697,3.9697,3.9697,3.9697,3.9697,3.9697,3.9697,3.9697,3.9697,3.9697,3.9697,3.9697,3.9697,3.9697,3.9697,3.9697,3.9697,3.9697,3.9697,3.9697,3.9697,3.9697,3.9697,3.9697,3.9697,3.9697,3.9697,3.9697,3.9697,3.9697,3.9546,3.912,3.8567,3.8216,3.8216,3.7713,3.7538,3.7965,3.7638,3.7538,3.7965,3.7236,3.6782,3.6782,3.6556,3.6405,3.6405,3.6405,3.6405,3.6405,3.6405,3.6405,3.6405,3.6531,3.6606,3.6606,3.6732,3.6782,2.4519,2.4802,2.4901,2.5357,2.5503,2.6081,2.8269,2.8747,2.9085,3.0362,3.128,3.0705,2.7043,2.9842,3.4088,3.8369,0.0,0.0,0.0,0.0,0.0,0.0,0.0,0.0,0.0,0.0,0.0,0.0,0.0,0.0,0.0,0.0,0.0,3.2266,3.2226,3.2012,3.1621,3.1582,3.2235,3.358,3.2353,3.2192,3.3033,3.2212,3.2405,3.3374,3.3889,3.548,3.7737,3.7737,3.8502,3.9697,3.9697,3.9697,3.9697,3.9697,3.9697,3.9697,3.9697,3.9697,3.9697,3.9697,3.9697,3.9697,3.9697,3.9697,3.9697,3.9697,3.9697,3.9697,3.9697,3.9697,3.9697,3.9697,3.9697,3.9697,3.9697,3.9697,3.9697,3.9697,3.9697,3.9697,3.9697,3.9697,3.9672,3.9647,3.917,3.8869,3.8869,3.8291,3.7965,3.799,3.7965,3.7965,3.8015,3.7939,3.7889,3.7889,3.6935,3.6405,3.6405,3.6405,3.6405,3.6405,3.6405,3.6405,3.6405,3.6933,3.7136,3.7136,3.7638,3.7889,2.4791,2.5031,2.5025,2.5066,2.5398,2.6337,2.8873,2.9594,3.0312,3.2307,3.3147,3.2932,3.0915,0.0,3.618,0.0,0.0,0.0,0.0,0.0,0.0,0.0,0.0,0.0,0.0,0.0,0.0,0.0,0.0,0.0,0.0,0.0,0.0,3.2168,3.1914,3.168,3.1523,3.1269,3.1407,3.1951,3.1407,3.1328,3.1767,3.2255,3.2752,3.3134,3.4264,3.5224,3.6217,3.7133,3.7849,3.84,3.9362,3.9697,3.9697,3.9697,3.9697,3.9697,3.9697,3.9697,3.9697,3.9697,3.9697,3.9697,3.9697,3.9697,3.9697,3.9697,3.9697,3.9697,3.9697,3.9697,3.9697,3.9697,3.9697,3.9697,3.9697,3.9697,3.9697,3.9697,3.9697,3.9697,3.9697,3.9697,3.9697,3.9697,3.922,3.9045,3.9346,3.8894,3.8668,3.9019,3.9044,3.8768,3.8065,3.8341,3.8391,3.804,3.7287,3.7036,3.7362,3.7061,3.7036,3.7387,3.7036,3.7036,3.7387,3.7236,3.7362,3.7688,3.7914,3.8015,2.5038,2.4967,2.4691,2.4788,2.5066,2.6221,2.9478,3.0267,3.11,3.4028,3.4375,3.43,3.4493,0.0,0.0,0.0,0.0,0.0,0.0,0.0,0.0,0.0,0.0,0.0,0.0,0.0,0.0,0.0,0.0,0.0,0.0,0.0,0.0,0.0,3.1484,3.1328,3.1328,3.1035,3.0898,3.0898,3.0898,3.0898,3.0957,3.194,3.2436,3.2473,3.3473,3.4202,3.4681,3.5704,3.6649,3.7583,3.8084,3.8868,3.9645,3.9181,3.931,3.9697,3.9697,3.9697,3.9697,3.9697,3.9697,3.9697,3.9697,3.9697,3.9697,3.9697,3.9697,3.9697,3.9697,3.9697,3.9697,3.9697,3.9697,3.9697,3.9697,3.9697,3.9697,3.9697,3.9697,3.9697,3.9697,3.9697,3.9697,3.9697,3.9371,3.927,3.9647,3.9371,3.927,3.9647,3.9697,3.9371,3.8592,3.8894,3.8969,3.8567,3.8015,3.7814,3.799,3.7638,3.7613,3.799,3.7638,3.7638,3.8015,3.7814,3.7914,3.8291,3.8467,3.8542,2.5153,2.4525,2.3712,2.4584,2.4618,2.5637,3.0331,3.0849,3.155,3.5596,3.5146,3.4808,3.7215,3.6877,0.0,0.0,0.0,0.0,0.0,0.0,0.0,0.0,0.0,0.0,0.0,0.0,0.0,0.0,0.0,0.0,0.0,0.0,0.0,0.0,3.0898,3.0898,3.0898,3.0898,3.0898,3.0898,3.0898,3.0898,3.0898,3.0898,3.0898,3.0898,3.0898,3.171,3.3077,3.3077,3.4825,3.7346,3.589,3.7103,3.9517,3.806,3.8477,3.9697,3.9697,3.9697,3.9697,3.9697,3.9697,3.9697,3.9697,3.9697,3.9697,3.9697,3.9697,3.9697,3.9697,3.9697,3.9697,3.9697,3.9697,3.9697,3.9697,3.9697,3.9697,3.9697,3.9697,3.9697,3.9697,3.9697,3.9697,3.9697,3.9697,3.9697,3.9697,3.9697,3.9697,3.9697,3.9697,3.9697,3.9697,3.9697,3.9697,3.9697,3.917,3.8617,3.804,3.8015,3.8015,3.8015,3.8015,3.8015,3.8015,3.8592,3.8919,3.8944,3.9446,3.9697,2.4832,2.4283,2.3791,2.498,2.5449,2.6264,2.874,3.0285,3.2212,3.5952,3.7709,3.8049,3.6387,0.0,0.0,0.0,0.0,0.0,0.0,0.0,0.0,0.0,0.0,0.0,0.0,0.0,0.0,0.0,0.0,0.0,0.0,0.0,0.0,0.0,3.0898,3.0898,3.0898,3.0898,3.0898,3.0898,3.0898,3.0898,3.0898,3.0898,3.0898,3.0898,3.0898,3.117,3.1594,3.2701,3.4236,3.5999,3.6595,3.737,3.8243,3.8816,3.931,3.9697,3.9697,3.9697,3.9697,3.9697,3.9697,3.9697,3.9697,3.9697,3.9697,3.9697,3.9697,3.9697,3.9697,3.9697,3.9697,3.9697,3.9697,3.9697,3.9697,3.9697,3.9697,3.9697,3.9697,3.9697,3.9697,3.9697,3.9697,3.9697,3.9697,3.9697,3.9697,3.9697,3.9697,3.9697,3.9697,3.9697,3.9697,3.9697,3.9697,3.9697,3.9546,3.9371,3.9195,3.8818,3.8793,3.9195,3.8818,3.8818,3.9195,3.8969,3.9069,3.9446,3.9622,3.9697,2.4629,2.4018,2.3501,2.5298,2.6003,2.6904,2.9476,3.2134,3.485,3.766,3.9611,4.0259,3.8441,3.9417,0.0,0.0,0.0,0.0,0.0,0.0,0.0,0.0,0.0,0.0,0.0,0.0,0.0,0.0,0.0,0.0,0.0,0.0,0.0,0.0,3.0898,3.0898,3.0898,3.0898,3.0898,3.0898,3.0898,3.0898,3.0898,3.0898,3.0898,3.0898,3.0898,3.0898,3.0937,3.1883,3.3077,3.4515,3.5376,3.6487,3.7636,3.853,3.9181,3.9697,3.9697,3.9697,3.9697,3.9697,3.9697,3.9697,3.9697,3.9697,3.9697,3.9697,3.9697,3.9697,3.9697,3.9697,3.9697,3.9697,3.9697,3.9697,3.9697,3.9697,3.9697,3.9697,3.9697,3.9697,3.9697,3.9697,3.9697,3.9697,3.9697,3.9697,3.9697,3.9697,3.9697,3.9697,3.9697,3.9697,3.9697,3.9697,3.9697,3.9697,3.9697,3.9697,3.9697,3.9371,3.9346,3.9697,3.9371,3.9371,3.9697,3.9371,3.9371,3.9697,3.9697,3.9697,2.4463,2.3771,2.3232,2.552,2.6487,2.787,3.2009,3.5445,3.8195,3.954,0.0,4.1401,4.1802,0.0,0.0,0.0,0.0,0.0,0.0,0.0,0.0,0.0,0.0,0.0,0.0,0.0,0.0,0.0,0.0,0.0,0.0,0.0,0.0,0.0,3.082,3.082,3.082,3.082,3.0859,0.0,3.0898,3.0898,3.0898,3.0898,3.0898,3.0898,3.0898,3.0898,3.0898,3.0898,3.171,3.2907,3.3191,3.4936,3.7346,3.7583,3.8582,3.9697,3.9697,3.9697,3.9697,3.9697,3.9697,3.9697,3.9697,3.9697,3.9697,3.9697,3.9697,3.9697,3.9697,3.9697,3.9697,3.9697,3.9697,3.9697,3.9697,3.9697,3.9697,3.9697,3.9697,3.9697,3.9697,3.9697,3.9697,3.9697,3.9697,3.9697,3.9697,3.9697,3.9697,3.9697,3.9697,3.9697,3.9697,3.9697,3.9697,3.9697,3.9697,3.9697,3.9697,3.9697,3.9697,3.9697,3.9697,3.9697,3.9697,3.9697,3.9697,3.9697,3.9697,3.9697,2.3985,2.3927,2.4171,2.5879,2.8158,3.089,3.4525,3.6162,3.6939,3.6977,3.9259,4.0943,0.0,0.0,0.0,0.0,0.0,0.0,0.0,0.0,0.0,0.0,0.0,0.0,0.0,0.0,0.0,0.0,0.0,0.0,0.0,0.0,0.0,3.0351,3.0351,3.0351,3.0351,3.0351,3.0527,0.0,3.0898,3.0898,3.0898,3.0898,3.0898,3.0898,3.0898,3.0898,3.0898,3.0898,3.1112,3.1594,3.3923,3.5233,3.6054,3.8372,3.9413,3.9697,3.9697,3.9697,3.9697,3.9697,3.9697,3.9697,3.9697,3.9697,3.9697,3.9697,3.9697,3.9697,3.9697,3.9697,3.9697,3.9697,3.9697,3.9697,3.9697,3.9697,3.9697,3.9697,3.9697,3.9697,3.9697,3.9697,3.9697,3.9697,3.9697,3.9697,3.9697,3.9697,3.9697,3.9697,3.9697,3.9697,3.9697,3.9697,3.9697,3.9697,3.9697,3.9697,3.9697,3.9697,3.9697,3.9697,3.9697,3.9697,3.9697,3.9697,3.9697,3.9697,3.9697,3.9697,2.3607,2.3811,2.4493,2.6769,2.8945,3.1279,3.4068,3.5366,3.6148,3.6696,3.9177,0.0,0.0,0.0,0.0,0.0,0.0,0.0,0.0,0.0,0.0,0.0,0.0,0.0,0.0,0.0,0.0,0.0,0.0,0.0,0.0,3.0371,3.0156,2.9902,2.9902,3.0,3.0195,3.0195,3.043,3.0898,3.0898,3.0898,3.0898,3.0898,3.0898,3.0898,3.0898,3.0898,3.0898,3.0898,3.0898,3.1112,3.336,3.4681,3.5563,3.782,3.9077,3.9697,3.9697,3.9697,3.9697,3.9697,3.9697,3.9697,3.9697,3.9697,3.9697,3.9697,3.9697,3.9697,3.9697,3.9697,3.9697,3.9697,3.9697,3.9697,3.9697,3.9697,3.9697,3.9697,3.9697,3.9697,3.9697,3.9697,3.9697,3.9697,3.9697,3.9697,3.9697,3.9697,3.9697,3.9697,3.9697,3.9697,3.9697,3.9697,3.9697,3.9697,3.9697,3.9697,3.9697,3.9697,3.9697,3.9697,3.9697,3.9697,3.9697,3.9697,3.9697,3.9697,3.9697,3.9697,2.3414,2.3811,2.4785,2.75,2.9082,3.0475,3.2461,3.3997,3.5477,3.6927,0.0,0.0,0.0,0.0,0.0,0.0,0.0,0.0,0.0,0.0,0.0,0.0,0.0,0.0,0.0,0.0,0.0,0.0,0.0,0.0,3.0098,2.9766,2.9531,2.9453,2.9453,2.9629,2.9961,2.998,3.0215,3.0664,3.0742,3.082,3.0898,3.0898,3.0898,3.0898,3.0898,3.0898,3.0898,3.0898,3.0898,3.1054,3.253,3.3845,3.5123,3.6865,3.8295,3.9362,3.9645,3.9697,3.9697,3.9697,3.9697,3.9697,3.9697,3.9697,3.9697,3.9697,3.9697,3.9697,3.9697,3.9697,3.9697,3.9697,3.9697,3.9697,3.9697,3.9697,3.9697,3.9697,3.9697,3.9697,3.9697,3.9697,3.9697,3.9697,3.9697,3.9697,3.9697,3.9697,3.9697,3.9697,3.9697,3.9697,3.9697,3.9697,3.9697,3.9697,3.9697,3.9697,3.9697,3.9697,3.9747,3.9848,3.9747,3.9747,3.9848,3.9747,3.9747,3.9848,3.9747,3.9697,2.3537,2.4434,2.584,2.7363,2.8418,2.9565,0.0,0.0,3.4434,0.0,0.0,0.0,0.0,0.0,0.0,0.0,0.0,0.0,0.0,0.0,0.0,0.0,0.0,0.0,0.0,0.0,0.0,0.0,0.0,0.0,2.9648,2.9646,2.9394,2.9023,2.9004,2.9023,2.9082,2.9082,2.9316,2.9802,3.0117,3.0508,3.0898,3.0898,3.0898,3.0898,3.0898,3.0898,3.0898,3.0898,3.0898,3.1054,3.253,3.3247,3.3733,3.6487,3.7636,3.7979,3.9258,3.9697,3.9697,3.9697,3.9697,3.9697,3.9697,3.9697,3.9697,3.9697,3.9697,3.9697,3.9697,3.9697,3.9697,3.9697,3.9697,3.9697,3.9697,3.9697,3.9697,3.9697,3.9697,3.9697,3.9697,3.9697,3.9697,3.9697,3.9697,3.9697,3.9697,3.9697,3.9697,3.9697,3.9697,3.9697,3.9697,3.9697,3.9697,3.9697,3.9697,3.9697,3.9697,3.9697,3.9923,4.04,3.9948,3.9923,4.04,3.9923,3.9948,4.04,3.9923,3.9697,2.3614,2.433,2.5312,2.6621,2.7598,2.8593,2.9896,0.0,3.3967,0.0,0.0,0.0,0.0,0.0,0.0,0.0,0.0,0.0,0.0,0.0,0.0,0.0,0.0,0.0,0.0,0.0,0.0,0.0,0.0,2.9199,2.9199,2.8984,2.8769,2.8574,2.8574,2.8672,2.8926,2.8926,2.9141,2.957,3.0,3.0312,3.0508,3.0762,3.0898,3.0898,3.0898,3.0898,3.0898,3.0898,3.0898,3.0937,3.1594,3.2358,3.3247,3.4548,3.6085,3.7583,3.8243,3.9025,3.9697,3.9697,3.9697,3.9697,3.9697,3.9697,3.9697,3.9697,3.9697,3.9697,3.9697,3.9697,3.9697,3.9697,3.9697,3.9697,3.9697,3.9697,3.9697,3.9697,3.9697,3.9697,3.9697,3.9697,3.9697,3.9697,3.9697,3.9697,3.9697,3.9697,3.9697,3.9697,3.9697,3.9697,3.9697,3.9697,3.9697,3.9697,3.9697,3.9697,3.9697,3.9998,4.0275,4.0501,4.0275,4.0425,4.0924,4.0727,4.0752,4.0953,4.04,4.0325,2.3396,2.3822,2.4442,2.5411,2.6345,2.7292,0.0,0.0,0.0,0.0,0.0,0.0,0.0,0.0,0.0,0.0,0.0,0.0,0.0,0.0,0.0,0.0,0.0,0.0,0.0,0.0,0.0,0.0,0.0,2.8769,2.8769,2.8457,2.8301,2.8301,2.8301,2.8437,2.875,2.8769,2.8984,2.9414,2.9726,2.9922,3.0059,3.0391,3.0566,3.0566,3.0664,3.0723,3.0723,3.0723,3.0781,3.0898,3.0898,3.1536,3.2587,3.2964,3.4493,3.6433,3.6811,3.7636,3.8635,3.9025,3.9129,3.9181,3.9594,3.9697,3.9697,3.9697,3.9697,3.9697,3.9697,3.9697,3.9697,3.9697,3.9697,3.9697,3.9697,3.9697,3.9697,3.9697,3.9697,3.9697,3.9697,3.9697,3.9697,3.9697,3.9823,3.9898,3.9898,3.9898,3.9898,3.9898,3.9772,3.9697,3.9697,3.9823,3.9898,3.9898,4.0023,4.0124,4.0124,4.0501,4.0802,4.0927,4.0927,4.1128,4.1555,4.1351,4.1351,4.153,4.0978,4.0953,2.2663,2.3112,0.0,2.3595,2.4506,2.5497,0.0,0.0,0.0,0.0,0.0,0.0,0.0,0.0,0.0,0.0,0.0,0.0,0.0,0.0,0.0,0.0,0.0,0.0,0.0,0.0,0.0,0.0,0.0,2.832,2.832,2.8301,2.8301,2.8301,2.8301,2.8301,2.832,2.832,2.8535,2.8945,2.8984,2.9199,2.9609,2.9685,2.9704,2.9668,3.0059,3.0234,3.0234,3.0234,3.0488,3.0898,3.0898,3.0957,3.117,3.2587,3.3191,3.3508,3.4902,3.5453,3.5781,3.7133,3.7636,3.7849,3.931,3.9697,3.9697,3.9697,3.9697,3.9697,3.9697,3.9697,3.9697,3.9697,3.9697,3.9697,3.9697,3.9697,3.9697,3.9697,3.9697,3.9697,3.9697,3.9697,3.9697,3.9697,4.0149,4.0475,4.0475,4.0475,4.0475,4.0475,3.9998,3.9697,3.9697,4.0174,4.0475,4.0475,4.0953,4.12,4.12,4.1225,4.1555,4.2112,4.2112,4.2137,4.2162,4.1605,4.1605,4.2162,4.1555,4.125,2.2979,0.0,0.0,2.3357,2.4179,2.5006,2.5436,0.0,0.0,0.0,0.0,0.0,0.0,0.0,0.0,0.0,0.0,0.0,0.0,0.0,0.0,0.0,0.0,0.0,0.0,0.0,0.0,0.0,0.0,0.0,2.8301,2.8301,2.8301,2.8301,2.8301,2.8688,2.9565,2.9565,2.9627,2.979,2.9203,2.9004,2.916,2.9434,2.9414,2.916,2.9316,2.9687,3.0195,3.0195,3.0469,3.0898,3.0898,3.0898,3.0937,3.1498,3.2322,3.3191,3.3677,3.5123,3.6811,3.7346,3.8137,3.9025,3.9517,3.9697,3.9697,3.9697,3.9697,3.9697,3.9697,3.9697,3.9697,3.9697,3.9697,3.9697,3.9697,3.9697,3.9697,3.9697,3.9697,3.9697,3.9697,3.9697,3.9697,3.9697,4.0174,4.04,4.0023,4.03,4.0375,4.0023,3.9798,3.9848,4.0199,4.04,4.0676,4.0974,4.1175,4.1275,4.1275,4.1681,4.1957,4.2213,4.2564,4.274,4.274,4.2484,4.2484,4.2715,4.2108,4.2057,2.3323,0.0,0.0,0.0,2.3507,2.4124,2.4453,0.0,0.0,0.0,0.0,0.0,0.0,0.0,0.0,0.0,0.0,0.0,0.0,0.0,0.0,0.0,0.0,0.0,0.0,0.0,0.0,0.0,0.0,0.0,2.7871,2.7871,2.793,2.8066,2.8681,2.9408,3.0276,3.0773,3.0773,3.0276,2.966,2.9124,2.8711,2.9004,2.8984,2.8711,2.8711,2.9199,2.998,2.998,3.0351,3.0898,3.0898,3.0898,3.0898,3.0898,3.1498,3.2358,3.2358,3.362,3.5453,3.6433,3.7423,3.8425,3.9413,3.9697,3.9697,3.9697,3.9362,3.9077,3.9569,3.9823,3.9973,3.9973,4.0124,4.0249,4.0249,4.0099,3.9923,3.9722,3.9998,4.0199,3.9998,4.0124,4.0249,4.0249,4.0701,4.0927,4.0576,4.0827,4.0927,4.0551,4.035,4.04,4.0752,4.0953,4.1229,4.158,4.1781,4.1882,4.1882,4.2233,4.2489,4.2489,4.2841,4.2986,4.2986,4.2986,4.2986,4.2961,4.2665,4.269,0.0,0.0,0.0,0.0,0.0,0.0,2.2802,0.0,0.0,0.0,0.0,0.0,0.0,0.0,0.0,0.0,0.0,0.0,0.0,0.0,0.0,0.0,0.0,0.0,0.0,0.0,0.0,0.0,0.0,2.7063,2.7012,2.7012,2.7207,2.7689,2.9404,3.0359,3.0359,3.1673,3.1724,3.0411,3.0307,2.9618,2.8335,2.8301,2.8301,2.8301,2.8301,2.8769,2.9551,2.957,3.0098,3.0898,3.0898,3.0898,3.0898,3.0898,3.0898,3.0898,3.0898,3.0957,3.1441,3.437,3.5343,3.589,3.8816,3.9697,3.9697,3.9645,3.8582,3.7796,3.9206,3.9994,4.0473,4.042,4.0899,4.1275,4.1275,4.0927,4.04,3.9848,4.0601,4.1125,4.0626,4.0924,4.1275,4.1275,4.1806,4.2213,4.2187,4.2213,4.2213,4.2187,4.1656,4.13,4.13,4.1856,4.2213,4.2238,4.274,4.2986,4.2986,4.2986,4.2986,4.2986,4.2986,4.2986,4.3011,4.2986,4.2986,4.2986,4.2986,4.2986,2.4212,0.0,0.0,0.0,0.0,0.0,2.2713,2.354,0.0,0.0,0.0,0.0,0.0,0.0,0.0,0.0,0.0,0.0,0.0,0.0,0.0,0.0,0.0,0.0,0.0,0.0,0.0,0.0,2.8495,2.7915,2.7063,2.7012,2.707,2.7187,2.9876,3.1318,3.1318,3.2971,3.3624,3.3254,3.1235,3.012,2.9702,2.8741,2.8301,2.8301,2.8301,2.8594,2.9121,2.9434,3.0098,3.0898,3.0898,3.0898,3.0898,3.0898,3.0898,3.0898,3.0898,3.1594,3.2815,3.4681,3.5999,3.7263,3.9129,3.9697,3.9465,3.84,3.7796,3.7441,3.706,3.7925,3.8954,3.9285,4.0345,4.1275,4.1275,4.153,4.153,4.1003,4.1075,4.1225,4.1075,4.1175,4.1275,4.1275,4.1806,4.2062,4.163,4.1907,4.2062,4.1605,4.1376,4.1505,4.1882,4.2112,4.2389,4.2766,4.2886,4.2986,4.2986,4.2986,4.2986,4.2986,4.2986,4.3162,4.3564,4.3162,4.2986,4.2986,4.2986,4.3187,0.0,0.0,0.0,0.0,0.0,0.0,2.294,2.3432,2.3915,0.0,0.0,0.0,0.0,0.0,0.0,0.0,0.0,0.0,0.0,0.0,0.0,0.0,0.0,0.0,0.0,0.0,0.0,2.9559,2.8732,2.7762,2.6534,2.666,2.6758,2.6758,2.9756,3.1371,3.1371,3.3481,3.4389,3.4004,3.184,3.0632,3.0255,2.89,2.8301,2.8301,2.8301,2.8535,2.8945,2.9199,2.9805,3.0625,3.082,3.0898,3.0898,3.0898,3.0898,3.0898,3.0898,3.1441,3.253,3.4626,3.5453,3.614,3.8868,3.9258,3.8739,3.8477,3.7954,3.7089,3.5422,3.6331,3.7725,3.8179,3.969,4.1022,4.1022,4.1792,4.2258,4.1426,4.1652,4.1957,4.1706,4.1882,4.2032,4.2032,4.2283,4.2384,4.2057,4.2308,4.2384,4.2057,4.2032,4.2158,4.2514,4.2564,4.269,4.2961,4.2986,4.2986,4.2986,4.2986,4.3087,4.3313,4.3313,4.3589,4.4141,4.3363,4.3087,4.3313,4.3313,4.3614,0.0,0.0,0.0,0.0,0.0,0.0,2.339,2.3229,2.3276,0.0,0.0,0.0,0.0,0.0,0.0,0.0,0.0,0.0,0.0,0.0,0.0,0.0,0.0,0.0,0.0,3.087,3.0453,3.03,2.8494,2.6886,2.5634,2.6143,2.6379,2.625,2.9386,3.0951,3.0807,3.3395,3.4357,3.372,3.2348,3.1362,3.0721,2.9355,2.8654,2.8548,2.8548,2.8657,2.8848,2.8906,2.9394,3.0176,3.0644,3.082,3.082,3.0879,3.0898,3.0898,3.0898,3.0898,3.1383,3.437,3.4403,3.4125,3.8425,3.8687,3.769,3.8761,3.8104,3.6533,3.421,3.5063,3.6658,3.7088,3.8849,4.0361,4.0534,4.1728,4.2518,4.1652,4.2308,4.2866,4.2389,4.266,4.2986,4.2986,4.2986,4.293,4.2737,4.2905,4.2905,4.2737,4.2905,4.2986,4.2986,4.2986,4.2986,4.2986,4.2986,4.3011,4.3062,4.3062,4.3338,4.389,4.394,4.4192,4.4618,4.3639,4.3413,4.389,4.389,4.4192,0.0,0.0,0.0,0.0,0.0,0.0,2.3516,2.4173,2.4605,0.0,0.0,0.0,0.0,0.0,0.0,0.0,0.0,0.0,0.0,0.0,0.0,0.0,0.0,0.0,0.0,3.1256,3.081,2.982,2.7679,2.5895,2.4715,2.5999,2.6337,2.538,2.9589,3.1368,3.0339,3.3247,3.4865,3.5087,3.3768,3.3258,3.3575,3.2151,3.0927,2.9911,2.9911,2.9343,2.8437,2.8789,2.9219,2.9726,3.0156,3.0332,3.0371,3.0762,3.0898,3.0898,3.0898,3.0898,3.1383,3.437,3.5123,3.5453,3.8712,3.8687,3.712,3.5346,3.4666,3.4195,3.3196,3.4245,3.5572,3.5979,3.7418,3.8994,4.0303,4.0846,4.1371,4.2463,4.2836,4.2936,4.2836,4.2911,4.2986,4.2986,4.2986,4.2544,4.1248,4.2206,4.2488,4.1191,4.2206,4.2986,4.2986,4.2986,4.2986,4.2986,4.2986,4.3162,4.3614,4.3639,4.389,4.4443,4.492,4.497,4.4618,4.4418,4.4367,4.4468,4.4468,4.4769,0.0,0.0,0.0,2.6235,0.0,0.0,0.0,2.448,2.4483,0.0,0.0,0.0,0.0,0.0,0.0,0.0,0.0,0.0,0.0,0.0,0.0,0.0,0.0,0.0,0.0,3.0834,3.0597,2.9695,2.7983,2.6485,2.531,2.5533,2.5655,2.5609,2.8765,3.0373,3.0305,3.269,3.4324,3.5082,3.3713,3.3553,3.4337,3.2955,3.1927,3.1286,3.0566,2.9911,2.927,2.8785,2.873,2.9023,2.9863,3.0195,3.0254,3.0723,3.0898,3.0898,3.0898,3.1383,3.2264,3.3754,3.4181,3.4626,3.6834,3.7477,3.712,3.531,3.4818,3.4481,3.3152,3.3391,3.4065,3.4511,3.5806,3.7243,3.8022,3.8876,3.9873,4.1476,4.1785,4.2093,4.2849,4.2986,4.2986,4.2986,4.2319,4.1476,4.0707,4.1305,4.1476,4.0707,4.2012,4.2986,4.2986,4.2986,4.3087,4.3363,4.3388,4.3639,4.4192,4.4217,4.4468,4.5045,4.5623,4.5748,4.5472,4.5472,4.5321,4.5045,4.5045,4.5347,0.0,0.0,0.0,0.0,0.0,2.5528,0.0,0.0,0.0,0.0,0.0,0.0,0.0,0.0,0.0,0.0,0.0,0.0,0.0,0.0,0.0,0.0,0.0,0.0,0.0,3.0138,3.0128,2.9386,2.846,2.7432,2.623,2.5602,2.5554,2.629,2.8321,2.9741,3.0395,3.221,3.3621,3.468,3.3603,3.3694,3.4727,3.3601,3.2932,3.2632,3.1265,3.0669,3.0566,2.925,2.8907,2.93,2.9852,3.0078,3.0137,3.0684,3.0898,3.0898,3.0898,3.1652,3.2737,3.3021,3.3452,3.4069,3.4681,3.6394,3.7738,3.6117,3.6094,3.6156,3.3943,3.3386,3.3361,3.3403,3.4383,3.5437,3.5745,3.682,3.8201,3.9814,4.0419,4.1133,4.2737,4.2986,4.2905,4.2544,4.1419,4.0361,3.9756,3.9931,4.0129,4.0129,4.1688,4.2831,4.3137,4.3237,4.3489,4.394,4.3966,4.4217,4.4769,4.4895,4.5171,4.5623,4.6075,4.6301,4.6301,4.6301,4.6075,4.5648,4.5648,4.5874,0.0,0.0,0.0,0.0,2.7132,0.0,0.0,0.0,0.0,0.0,0.0,0.0,0.0,0.0,0.0,0.0,0.0,0.0,0.0,0.0,0.0,0.0,0.0,0.0,0.0,0.0,2.945,2.8354,2.8153,2.7603,2.6515,2.7671,2.7943,2.7034,3.0151,3.1363,3.0395,3.221,3.3621,3.468,3.4545,3.5048,3.6168,3.6001,3.5259,3.4068,3.2682,3.2079,3.1977,3.0618,3.108,3.2449,3.0443,2.9704,2.9746,3.0586,3.0898,3.0898,3.0898,3.0995,3.1383,3.2701,3.488,3.6518,3.4069,3.6516,3.9414,3.572,3.6911,3.8769,3.6122,3.5436,3.5088,3.3713,3.3544,3.407,3.5499,3.5928,3.6539,3.8164,3.9639,4.1133,4.2737,4.2986,4.2488,4.1076,4.0707,3.9581,3.6699,3.7604,3.8461,3.8461,4.0352,4.2181,4.3576,4.4141,4.4468,4.4518,4.4543,4.4794,4.5372,4.5849,4.615,4.6225,4.6276,4.6301,4.6301,4.6301,4.6276,4.6225,4.6225,4.625,0.0,0.0,0.0,0.0,0.0,0.0,2.648,0.0,2.5644,0.0,0.0,0.0,0.0,0.0,0.0,0.0,0.0,0.0,0.0,0.0,0.0,0.0,0.0,0.0,0.0,0.0,0.0,0.0,0.0,2.7607,2.7205,2.7395,2.7699,2.8143,2.9858,3.1027,3.1448,3.2835,3.3947,3.468,3.5006,3.5604,3.6405,3.6405,3.6121,3.5475,3.4117,3.3502,3.3403,3.2028,3.2134,3.3137,3.2362,3.1696,3.1197,3.0991,3.0898,3.0898,3.0898,3.1441,3.2264,3.2907,3.3957,3.488,3.4515,3.6616,3.8924,3.7438,3.8364,3.9413,3.7673,3.7183,3.6781,3.515,3.4798,3.4736,3.4425,3.4445,3.486,3.6478,3.7363,3.832,3.9931,4.1019,4.1362,4.0707,3.903,3.7413,3.6308,3.6782,3.732,3.7517,4.0106,4.2066,4.2763,4.3945,4.4769,4.5095,4.5723,4.62,4.6426,4.6652,4.6652,4.6326,4.6301,4.6301,4.6301,4.6627,4.6778,4.6778,4.6451,4.6301,3.0287,0.0,0.0,0.0,0.0,0.0,0.0,0.0,0.0,0.0,0.0,0.0,0.0,0.0,0.0,0.0,0.0,0.0,0.0,0.0,0.0,0.0,0.0,0.0,0.0,0.0,0.0,0.0,0.0,0.0,2.8103,2.7641,2.8016,2.9342,2.9915,3.0891,3.2215,3.3345,3.4173,3.4726,3.5232,3.583,3.6405,3.6405,3.6405,3.631,3.5114,3.4845,3.504,3.385,3.3917,3.4732,3.4612,3.4249,3.3648,3.252,3.1825,3.1498,3.1498,3.192,3.2644,3.3473,3.3417,3.3381,3.5002,3.6934,3.8625,3.907,3.9898,4.0401,3.9196,3.8876,3.8461,3.682,3.6112,3.5499,3.432,3.3713,3.3713,3.4922,3.5499,3.6215,3.75,3.9081,3.9966,3.9554,3.7549,3.6144,3.5994,3.5992,3.6286,3.7,3.9814,4.1831,4.2255,4.4003,4.5321,4.5899,4.6702,4.7205,4.733,4.7143,4.6954,4.6552,4.6376,4.6376,4.6552,4.6928,4.7143,4.733,4.6928,4.6677,0.0,0.0,0.0,3.0079,0.0,0.0,0.0,0.0,2.7147,0.0,0.0,0.0,0.0,0.0,0.0,0.0,0.0,0.0,0.0,0.0,0.0,0.0,0.0,0.0,0.0,0.0,0.0,0.0,0.0,0.0,2.9046,2.9451,2.998,3.0553,3.1069,3.1621,3.2215,3.3345,3.4173,3.4726,3.5232,3.583,3.6405,3.6405,3.6405,3.6335,3.5526,3.5916,3.7041,3.6201,3.701,3.8591,3.7136,3.6925,3.7163,3.5727,3.4236,3.3021,3.3021,3.215,3.1441,3.4314,3.4236,3.348,3.5456,3.7465,3.9229,3.9777,4.1345,4.2544,4.0937,4.0534,4.0129,3.8521,3.6941,3.5806,3.5745,3.4487,3.3418,3.3481,3.4736,3.5953,3.6436,3.7924,3.8454,3.6894,3.6897,3.6488,3.493,3.4733,3.5386,3.6893,3.9185,4.1171,4.2739,4.4937,4.6502,4.6993,4.7043,4.7355,4.7857,4.7405,4.7068,4.7043,4.6577,4.6577,4.7043,4.7068,4.738,4.7883,4.7857,4.7581,0.0,0.0,3.2905,3.1891,0.0,0.0,0.0,0.0,0.0,0.0,0.0,0.0,0.0,0.0,0.0,0.0,0.0,0.0,0.0,0.0,0.0,0.0,0.0,0.0,0.0,0.0,0.0,0.0,0.0,0.0,0.0,2.9475,3.0299,3.1094,3.2014,3.2767,3.3319,3.4424,3.5031,3.5232,3.583,3.6182,3.6405,3.6405,3.6405,3.6383,3.6476,3.6773,3.7236,3.7295,3.7966,3.8868,3.8362,3.8479,3.853,3.5123,3.3529,3.2964,3.1977,3.1325,3.1054,3.2055,3.2908,3.3826,3.5567,3.7719,3.9818,4.1121,4.2202,4.2849,4.2319,4.2206,4.1785,4.0187,3.9405,3.8676,3.7604,3.6112,3.4964,3.4964,3.455,3.4335,3.4796,3.5608,3.6282,3.6812,3.6126,3.544,3.5183,3.5156,3.5453,3.633,3.8086,3.9908,4.1633,4.4523,4.6702,4.7581,4.6289,4.6189,4.782,4.6301,4.5797,4.6541,4.6753,4.6954,4.7068,4.7857,4.8309,4.8485,4.8862,4.8535,3.2832,3.3408,0.0,3.2881,3.2642,0.0,3.1205,0.0,0.0,0.0,0.0,0.0,0.0,0.0,0.0,0.0,0.0,0.0,0.0,2.5214,0.0,0.0,0.0,0.0,0.0,0.0,0.0,0.0,0.0,0.0,0.0,0.0,3.0337,3.137,3.2533,3.3345,3.3897,3.4956,3.5508,3.5508,3.6107,3.6405,3.6405,3.6405,3.6505,3.6732,3.7236,3.7588,3.7814,3.8366,3.8818,3.917,3.917,3.9371,3.9362,3.6487,3.4792,3.3754,3.2758,3.1767,3.1054,3.2113,3.3069,3.4174,3.6511,3.8447,4.017,4.1748,4.2615,4.2936,4.2791,4.2891,4.2787,4.1973,4.1283,4.0692,3.9854,3.8376,3.7071,3.6475,3.5518,3.4752,3.4583,3.4766,3.5337,3.6343,3.5719,3.5273,3.5566,3.5605,3.5723,3.5996,3.7575,3.9322,4.1052,4.4312,4.624,4.606,4.5247,4.5645,4.7459,4.595,4.5867,4.7419,4.7431,4.7606,4.8008,4.851,4.8862,4.9063,4.9439,4.9213]}]]